ECMWFFLT1_sfc_temp_000.txt.gz
Temp
68 66 66 66 66 66 66 66 65 64 65 65 65 66 66 66 65 65 67 65 66 66 65 64 65 66 66 66 66 66 66 67 67 67 67 67 67 67 66 67 66 67 68 67 68 68 69 70 69 69 70 70 70 70 70 71 71 72 72 72 72 71 72
67 67 67 66 65 65 66 65 63 64 65 65 65 65 65 66 65 65 66 64 65 66 65 64 67 65 65 66 65 66 66 66 67 68 67 66 67 66 66 66 66 66 67 67 67 68 69 69 69 69 69 69 70 70 70 71 71 71 71 72 71 71 72
67 67 66 65 65 65 66 64 63 64 65 65 65 65 66 66 65 65 65 65 65 66 63 63 65 65 65 65 65 65 65 65 66 66 65 65 65 66 66 66 66 66 67 67 67 67 69 69 69 69 69 69 69 70 70 70 71 71 71 71 71 71 71
66 67 67 66 65 65 66 65 65 65 65 66 66 66 65 66 65 64 65 65 66 65 66 65 64 65 65 65 65 65 65 65 65 65 65 65 65 66 65 66 66 66 66 67 67 68 69 69 68 68 69 68 68 69 69 69 70 70 70 70 70 71 71
67 67 65 64 65 64 64 64 64 64 66 66 65 66 66 66 65 64 64 64 65 65 64 64 65 65 66 65 64 65 65 65 65 65 64 65 65 65 65 65 66 66 66 66 67 67 67 67 67 67 68 68 68 68 68 69 69 70 70 70 69 69 70
66 65 64 64 65 65 65 65 66 67 66 66 65 65 66 66 65 66 65 66 66 65 64 64 64 64 65 64 64 64 64 64 64 64 64 65 64 64 64 65 65 65 66 66 67 67 67 67 67 67 67 68 68 68 68 68 69 69 69 69 68 68 68
67 66 64 64 65 65 65 65 66 66 66 65 66 67 67 66 66 67 65 64 64 65 65 64 65 64 64 64 63 64 64 64 64 64 64 64 64 64 64 64 66 65 66 66 66 67 66 66 67 66 67 67 68 67 67 67 68 68 68 67 67 68 68
68 65 64 65 66 67 66 65 65 65 64 64 64 65 66 66 65 66 65 65 64 64 64 65 65 65 65 64 64 63 64 64 64 63 63 63 63 63 64 64 64 65 65 65 66 66 66 67 67 67 67 67 68 68 68 68 67 67 67 67 67 67 68
66 66 65 66 66 66 66 65 65 65 65 64 64 65 65 65 65 65 66 65 64 64 65 65 65 64 64 64 64 63 63 63 63 63 63 63 63 63 64 64 64 65 64 65 65 66 67 67 67 67 66 66 67 67 67 68 68 68 67 67 67 67 67
62 63 64 65 65 66 65 63 63 62 64 63 63 64 64 65 64 64 64 65 64 64 65 65 65 65 64 64 63 63 62 63 63 63 63 63 64 64 64 64 64 65 64 65 65 65 67 68 67 66 65 66 66 67 67 67 68 68 67 67 67 67 67
62 63 63 63 64 64 62 62 62 63 63 64 64 64 64 64 64 64 64 64 64 65 65 64 65 64 64 63 63 64 63 63 63 63 64 64 64 64 65 65 65 65 65 65 65 66 66 67 67 66 65 65 66 66 66 67 67 65 66 66 66 66 66
61 62 63 63 63 61 61 62 63 62 63 63 64 64 64 63 63 63 63 64 65 65 63 64 65 64 64 64 63 63 63 63 63 64 64 64 65 65 65 65 64 64 64 65 65 66 66 66 67 67 66 65 65 66 66 65 65 65 65 65 66 66 66
62 63 63 64 63 62 61 61 62 63 63 64 64 63 64 64 63 63 63 64 64 63 64 64 64 63 63 63 62 62 63 63 63 63 63 64 64 64 64 64 64 64 64 65 65 65 65 67 67 67 66 66 66 65 65 65 64 64 65 67 67 66 65
64 62 63 62 61 61 61 62 62 62 63 63 63 63 63 63 64 64 64 64 64 64 63 64 63 63 63 62 62 62 63 63 63 63 63 64 64 64 64 64 64 64 64 65 64 65 66 66 66 67 67 66 66 66 66 65 64 65 66 66 65 65 64
62 62 62 61 61 61 61 62 62 62 62 63 63 62 62 62 62 61 62 62 63 63 63 63 62 63 63 62 62 63 63 63 63 63 63 64 64 64 64 64 64 64 64 64 65 66 66 67 67 66 67 67 66 66 66 65 64 65 65 64 64 64 63
62 62 62 62 62 61 62 63 63 63 63 62 62 62 62 62 62 62 63 64 64 63 64 62 62 62 62 62 63 63 63 62 63 63 63 63 64 64 64 64 64 64 64 64 65 65 65 66 66 67 67 67 66 66 65 64 65 63 60 60 63 63 62
63 63 63 63 62 61 62 62 63 63 63 63 62 62 63 63 63 63 63 63 63 63 64 62 62 62 62 63 63 63 63 62 63 63 63 64 63 64 64 64 64 64 64 64 64 64 65 66 66 66 66 66 66 65 64 64 65 61 60 61 61 62 62
63 64 63 63 62 62 62 62 62 62 63 63 62 62 62 62 62 62 62 63 63 64 63 61 62 62 63 63 63 63 63 63 63 63 63 63 63 64 63 63 63 63 64 64 64 64 65 65 65 65 66 66 65 64 64 63 62 59 59 60 60 60 62
64 64 64 63 62 62 63 63 63 63 63 63 63 63 63 64 63 62 64 63 64 63 62 62 62 62 62 63 63 63 63 63 63 62 62 63 63 63 63 63 63 63 64 64 65 65 64 64 65 65 65 66 64 63 63 63 61 59 58 58 58 60 62
65 66 65 64 63 64 64 63 63 64 64 64 64 65 66 64 64 65 65 65 64 62 62 62 63 62 63 64 64 64 63 63 62 62 63 63 62 62 62 62 63 63 64 64 64 63 63 64 64 64 65 65 65 64 63 63 61 58 57 56 57 58 62
65 64 63 62 62 63 64 63 63 63 62 63 64 64 64 63 64 65 64 63 62 62 62 62 63 63 63 63 64 63 63 63 63 62 63 63 62 62 62 62 63 63 64 64 63 63 63 63 63 64 65 65 65 65 65 67 60 56 56 55 55 56 60
64 64 62 63 63 64 63 63 63 63 64 66 65 65 64 65 65 64 65 64 63 63 63 63 62 63 62 62 64 64 64 64 63 62 62 62 62 62 63 63 63 63 64 64 64 64 63 63 64 64 64 65 65 65 65 66 59 56 55 54 55 57 63
68 65 66 65 66 66 65 65 65 66 67 66 65 65 64 65 66 65 65 64 64 63 63 62 62 62 63 64 64 65 65 64 63 62 63 62 62 62 63 63 63 64 64 64 63 63 63 63 63 64 63 64 65 65 64 65 62 56 54 53 54 57 63
66 66 66 66 64 64 63 64 65 66 67 66 65 65 66 66 66 65 64 64 64 63 63 62 63 63 63 63 64 65 65 64 63 63 63 63 62 63 63 63 63 63 65 64 63 63 63 63 63 64 64 64 64 65 65 65 61 56 53 53 54 55 62
66 65 64 65 65 64 63 63 65 66 66 64 65 65 65 65 65 64 64 65 64 63 63 63 64 63 63 64 65 64 64 63 62 63 63 63 63 63 63 63 63 65 64 63 62 62 62 63 62 62 62 63 64 65 65 65 62 58 55 52 52 57 62
62 62 62 62 64 66 65 66 66 65 64 64 65 67 65 64 64 65 65 65 64 62 63 64 65 65 64 64 64 63 63 63 64 65 64 63 63 63 62 63 64 63 63 63 63 62 63 62 61 61 61 63 63 64 65 64 64 64 56 53 52 53 58
64 65 65 64 65 68 64 64 65 66 66 66 67 66 64 63 63 64 66 65 62 63 64 66 65 64 63 63 63 63 63 63 63 63 64 63 63 63 64 63 62 62 62 62 62 61 61 62 61 61 61 62 63 63 64 65 65 65 58 55 52 52 54
63 63 65 67 69 68 64 65 64 65 66 66 66 64 63 63 64 65 64 64 63 65 66 64 63 63 63 62 63 63 64 64 63 62 63 64 64 63 62 62 62 62 62 61 61 61 61 61 61 60 60 61 62 63 63 65 65 65 61 57 53 51 52
63 64 65 64 64 68 67 64 64 65 66 66 63 62 63 64 65 65 65 63 64 65 64 63 63 62 62 62 62 63 64 64 64 64 63 64 63 62 62 62 61 62 61 60 61 61 61 61 60 60 61 61 61 62 63 64 64 62 63 58 54 51 51
63 65 66 68 70 68 68 65 65 65 64 63 62 61 62 64 65 65 64 63 65 63 63 63 62 62 62 62 63 63 63 64 64 63 62 63 62 61 61 61 61 61 61 60 60 60 60 60 60 60 60 60 61 61 62 63 63 62 61 61 57 53 51
64 65 65 66 67 67 67 66 64 64 63 61 61 61 62 63 65 66 65 64 64 63 63 63 62 61 61 61 62 62 63 62 61 61 61 60 61 62 63 62 61 61 60 59 59 59 58 59 59 59 59 59 60 59 61 61 62 63 62 61 60 57 54
61 61 63 63 63 64 66 64 63 63 63 62 60 61 62 61 63 65 65 62 64 64 62 62 62 62 62 62 62 62 62 61 61 61 60 60 60 60 60 61 62 61 60 59 59 59 58 58 60 60 60 59 60 61 61 61 62 62 62 61 61 59 57
60 60 61 62 63 65 62 62 62 62 63 64 62 61 62 61 61 64 65 64 64 63 62 62 62 62 62 62 61 61 60 60 60 61 59 59 59 60 60 61 60 59 61 60 59 59 59 60 59 60 60 60 61 61 61 62 62 61 60 59 58 59 59
58 58 57 58 61 64 60 61 62 62 62 63 63 62 62 62 62 63 63 64 64 63 62 63 63 62 61 61 60 60 60 60 65 65 61 61 59 61 60 60 60 60 60 61 61 59 59 58 59 59 59 59 60 60 60 62 63 62 57 57 57 56 56
55 57 56 57 60 62 60 61 62 62 62 63 62 61 61 62 62 63 61 62 62 61 62 63 64 63 61 59 59 59 64 62 60 61 61 61 60 60 60 61 62 61 60 59 59 59 59 58 57 59 58 57 57 57 58 60 62 58 49 51 48 49 51
54 55 56 57 59 60 60 62 61 60 61 61 60 60 60 61 61 61 62 62 61 61 63 64 63 60 60 60 60 61 62 62 61 60 60 61 60 60 61 61 55 56 60 61 55 47 44 46 54 52 51 53 57 58 57 59 57 46 41 40 40 41 41
55 55 56 57 58 55 55 55 60 58 60 60 60 60 59 59 60 60 60 59 60 61 62 61 63 62 60 61 62 62 63 63 61 59 57 57 58 58 59 60 60 48 46 52 52 46 40 41 41 43 47 51 52 53 50 47 44 41 40 40 40 40 40
52 54 56 56 56 56 57 57 57 58 60 59 59 59 58 59 60 58 60 59 59 60 60 59 61 61 61 61 61 61 63 61 60 60 59 59 57 57 57 58 58 60 47 44 46 42 40 41 42 42 43 43 46 48 54 49 44 41 40 40 40 40 39

ECMWFFLT1_sfc_temp_003.txt.gz
Temp
79 79 78 78 78 78 78 77 77 77 77 78 78 79 80 79 79 79 79 79 78 77 77 78 78 78 78 78 78 77 77 76 76 75 75 75 75 74 73 74 73 73 74 74 75 75 75 76 76 76 76 76 76 76 76 76 75 76 76 76 75 74 74
78 78 79 79 78 78 77 77 77 77 77 78 78 78 80 79 78 80 80 79 79 79 78 78 78 78 77 77 77 76 76 76 76 75 75 74 74 74 74 73 73 73 74 75 75 76 76 76 76 76 76 76 76 76 76 75 75 75 75 75 74 72 71
78 78 79 78 78 78 77 77 76 77 78 79 79 79 79 78 79 80 79 78 78 77 77 78 78 78 77 77 76 76 76 76 76 76 74 74 74 74 74 73 74 74 75 75 75 75 76 76 76 76 76 75 75 75 75 75 75 74 74 74 74 72 72
77 78 79 79 78 77 77 77 77 78 79 80 80 80 78 78 79 80 80 79 79 78 78 78 78 77 77 76 76 76 75 75 75 75 75 75 74 74 73 74 74 75 75 75 75 75 76 76 75 75 75 75 75 75 75 75 75 75 74 74 73 74 73
77 79 79 77 77 76 76 77 77 77 79 81 80 78 79 80 79 78 78 78 79 78 79 78 78 77 76 76 76 76 75 75 75 75 75 75 74 74 73 74 75 75 75 75 75 75 74 75 75 75 75 75 75 75 75 75 75 75 74 74 73 73 73
77 77 77 77 77 77 77 78 79 80 80 80 78 78 79 80 81 81 79 76 77 77 77 76 76 76 76 76 76 75 75 75 75 75 74 75 74 73 74 74 74 74 75 75 75 75 74 74 74 75 75 76 76 75 75 75 75 75 74 74 73 74 74
77 78 77 77 77 77 77 78 80 80 80 80 79 79 81 82 81 81 80 78 78 77 77 77 77 77 77 77 75 75 75 76 75 75 75 74 74 73 73 74 74 74 74 74 74 75 74 74 74 74 75 75 75 75 74 74 74 75 74 73 73 73 73
78 78 78 77 78 79 79 78 78 78 78 78 78 80 81 80 79 79 78 80 80 81 80 79 77 77 77 76 76 75 75 75 76 76 75 74 74 73 74 74 74 74 73 73 74 74 74 74 75 75 75 75 74 74 74 74 74 75 74 73 72 72 73
79 79 78 78 78 79 80 78 77 76 75 75 76 77 78 78 79 78 79 78 78 78 79 80 79 78 76 76 75 75 75 75 75 75 74 74 74 75 76 76 75 75 73 73 74 75 74 74 75 74 74 74 73 73 74 74 74 74 73 72 72 71 72
77 76 76 77 78 79 78 78 76 74 74 74 74 75 76 77 77 77 78 79 80 78 78 79 78 78 76 76 75 76 75 75 75 74 75 75 76 75 76 77 76 76 74 74 74 73 74 74 74 74 73 73 73 74 74 73 73 73 73 72 72 72 71
76 75 74 75 75 76 76 75 73 73 74 74 74 76 76 76 76 76 76 78 80 80 80 79 78 77 76 76 76 76 75 75 75 75 75 75 77 77 78 79 79 77 75 74 74 74 74 74 74 73 73 73 73 73 74 74 73 72 72 72 72 72 72
74 74 73 73 74 74 73 73 73 73 74 74 75 76 75 75 76 76 76 76 78 79 78 78 78 78 77 77 76 75 75 75 75 75 76 76 76 76 77 76 75 75 76 75 75 74 75 74 74 74 73 74 74 74 74 73 72 71 71 72 72 72 71
73 73 73 73 73 74 73 73 72 73 73 74 76 76 76 76 75 76 75 76 77 77 78 77 76 75 75 76 76 75 75 75 76 75 76 75 75 75 76 76 77 78 76 77 76 76 75 75 74 74 74 74 74 74 73 72 71 70 70 70 70 69 68
72 72 73 73 73 73 72 73 73 73 73 74 75 76 76 76 76 75 75 76 77 78 77 77 75 75 75 75 74 74 75 76 76 76 75 75 74 74 74 75 75 74 75 74 74 76 76 76 75 75 75 74 74 74 74 72 72 71 70 70 68 67 67
71 72 72 73 73 73 73 73 72 73 73 74 75 75 75 74 74 74 75 76 76 78 77 76 75 74 75 74 73 74 75 75 76 75 74 74 74 74 74 75 75 74 74 74 74 75 75 75 75 74 74 74 74 74 74 73 71 69 68 67 66 66 65
72 72 72 73 73 73 74 74 73 73 73 73 74 74 74 74 74 74 75 75 76 75 76 75 74 74 74 74 74 75 75 75 75 74 74 73 73 74 74 75 75 74 74 74 74 74 74 74 74 75 74 74 74 74 73 72 71 65 58 60 64 65 64
72 72 73 73 73 74 74 74 74 74 73 74 74 74 74 74 75 75 77 77 78 75 76 76 74 74 74 74 75 75 75 74 74 74 73 73 73 74 74 74 74 73 73 73 73 73 73 73 73 75 75 74 73 73 72 72 70 61 59 61 60 63 64
71 72 73 73 74 74 73 73 73 73 74 74 75 75 74 74 75 75 75 76 76 77 77 75 74 74 74 74 75 75 75 74 74 73 73 73 73 74 74 74 73 73 73 73 73 73 74 73 73 74 74 74 73 73 72 72 66 60 59 60 59 58 63
72 73 73 73 73 73 74 74 74 74 75 76 76 75 75 75 75 74 75 76 76 76 75 75 75 74 74 75 75 75 75 74 74 73 73 73 74 74 73 73 72 73 73 73 74 73 73 73 73 74 74 73 72 72 73 72 65 60 59 59 57 58 62
74 74 75 75 75 75 74 75 75 76 76 76 77 78 77 77 76 76 78 78 77 75 74 73 74 74 74 74 75 75 75 74 74 73 73 74 74 73 72 72 73 73 74 73 73 73 73 74 73 73 73 73 72 72 72 72 65 59 58 57 55 57 61
73 74 74 75 75 75 74 74 74 74 75 76 77 76 76 75 76 77 77 76 75 75 73 74 74 74 74 74 74 75 74 74 74 73 74 74 73 73 73 73 73 73 74 74 73 73 73 73 73 73 73 74 74 73 73 72 62 59 56 55 54 55 60
75 76 75 76 75 74 73 74 74 74 74 76 76 76 76 76 77 77 77 77 76 75 74 74 73 74 74 74 74 74 75 75 74 74 74 74 73 73 73 73 73 73 74 73 74 74 73 73 74 73 74 74 74 73 73 75 61 56 55 54 55 55 66
78 77 78 77 77 75 75 76 75 76 76 75 76 76 76 77 77 76 77 76 76 74 75 74 73 73 74 74 75 75 76 76 75 74 74 74 73 73 74 73 74 74 73 72 73 73 74 74 74 74 74 73 74 73 73 74 65 56 54 54 53 57 68
80 79 79 78 76 76 75 75 76 76 76 76 76 76 77 77 76 76 75 75 76 76 75 74 74 74 74 74 75 75 76 75 75 74 74 74 74 74 74 75 74 74 73 72 72 73 74 74 74 74 74 73 74 75 73 74 68 56 53 53 54 56 66
79 80 78 77 77 76 75 74 75 76 76 76 76 76 76 76 76 75 75 75 77 76 75 74 75 75 75 75 76 76 76 75 74 74 74 74 75 75 74 74 73 74 73 73 73 73 73 74 73 74 75 77 75 69 70 74 70 58 54 54 54 59 68
74 75 75 76 77 77 76 74 73 73 74 74 75 77 76 76 75 75 75 76 77 76 74 75 75 76 77 76 76 76 75 75 73 74 74 75 75 75 74 74 74 74 74 74 75 75 75 73 74 73 75 77 75 76 74 73 74 70 57 54 53 54 63
77 77 76 77 77 76 75 74 74 74 75 75 76 77 76 75 74 73 74 75 74 74 75 76 77 76 76 75 75 75 75 75 74 75 76 76 75 75 75 75 74 73 73 74 75 74 73 74 74 74 74 75 76 76 76 75 73 72 59 55 54 54 56
76 76 78 78 76 75 75 75 74 75 77 76 77 77 75 73 72 73 74 74 73 75 77 77 76 75 74 74 74 75 75 75 75 75 75 75 74 73 74 73 72 72 72 74 73 72 73 73 73 73 73 74 75 75 74 73 68 72 64 58 55 53 53
74 74 75 74 74 76 76 74 74 75 77 79 79 76 74 74 72 73 73 73 74 76 77 76 75 74 74 73 73 73 74 74 74 75 73 70 70 70 71 71 70 71 71 71 71 72 72 72 72 72 72 73 74 74 74 73 71 63 66 59 55 52 52
74 75 75 79 80 77 77 75 75 76 77 78 76 75 74 73 72 73 73 73 76 76 75 74 74 73 72 73 73 73 73 74 74 72 70 70 69 70 71 68 67 68 69 68 69 71 71 71 71 71 72 72 73 73 74 73 72 67 61 63 58 54 51
74 75 76 76 78 77 77 77 75 75 75 74 73 73 73 74 74 73 73 75 76 74 75 74 73 72 72 73 74 73 73 73 72 72 71 71 71 71 70 68 67 66 68 68 68 69 69 70 71 70 70 70 71 72 73 73 72 74 68 61 59 54 52
72 73 74 74 74 74 75 75 75 74 74 73 72 72 72 73 75 74 74 77 75 76 75 74 73 72 73 74 73 73 72 71 72 72 70 70 71 71 70 68 68 68 69 69 69 69 67 67 69 71 71 70 72 72 73 72 71 72 72 68 65 63 58
72 72 72 73 73 72 73 73 74 74 74 73 73 73 75 74 75 77 77 76 76 75 74 73 72 72 72 72 73 72 71 70 71 72 71 70 70 71 71 70 69 68 66 68 68 67 68 67 69 69 70 70 71 71 71 73 72 71 69 68 67 68 66
70 70 70 70 70 71 72 72 73 73 73 73 74 73 74 75 74 76 76 78 78 77 73 72 72 73 73 72 72 71 71 70 68 69 72 71 71 72 71 70 69 69 68 69 68 67 68 68 68 67 68 68 69 69 70 70 71 66 58 58 58 58 60
69 70 70 70 70 70 71 72 72 72 72 73 73 72 72 72 74 75 73 74 74 72 73 73 72 72 72 72 72 71 70 71 71 71 71 71 70 70 70 70 71 69 69 65 65 64 65 66 67 66 65 65 65 65 65 66 66 61 49 49 46 48 52
68 69 69 68 69 70 70 69 70 70 70 70 70 71 71 71 71 72 76 75 73 72 72 72 72 72 73 72 72 73 73 71 72 70 69 70 69 68 68 62 49 57 69 64 51 47 46 48 58 57 58 59 62 60 58 58 57 48 43 41 40 40 40
68 68 68 68 68 68 68 68 68 68 68 69 69 70 70 70 72 72 73 72 72 72 72 71 70 71 72 71 73 69 68 69 69 68 66 67 68 67 66 69 59 42 46 52 51 47 42 43 43 44 47 52 57 57 51 49 46 42 42 41 41 39 39
67 68 68 68 68 67 67 67 68 68 69 70 70 70 70 72 72 71 74 72 72 72 72 71 70 69 70 70 71 67 67 69 68 67 66 66 67 66 66 67 65 57 44 42 46 46 43 43 42 42 42 43 46 51 57 50 45 43 43 43 42 40 40

ECMWFFLT1_sfc_temp_006.txt.gz
Temp
92 90 89 88 88 88 87 86 87 86 85 85 86 87 87 87 86 85 85 84 84 83 84 84 84 84 83 83 83 83 83 82 82 81 81 81 80 79 79 80 79 79 79 79 79 79 80 81 80 81 81 81 80 80 79 79 79 80 79 80 79 78 78
90 89 89 89 88 88 87 87 87 87 86 86 86 86 87 86 85 85 85 84 84 84 84 84 83 83 83 83 83 82 82 82 81 81 81 81 80 80 80 79 79 79 79 79 79 80 80 81 81 80 80 80 80 80 79 79 79 78 79 79 78 78 78
90 89 90 89 88 88 87 87 87 87 87 88 88 87 87 85 85 85 85 85 84 84 84 83 83 83 83 83 82 82 82 81 81 81 80 81 80 80 80 80 80 80 80 80 80 80 81 80 80 80 80 79 79 80 79 80 79 78 78 78 78 78 77
88 89 89 88 88 88 87 87 86 88 89 89 88 88 86 85 86 86 86 86 84 84 82 83 83 83 83 82 81 81 81 81 81 81 81 81 80 81 80 80 80 80 80 80 81 81 80 80 80 80 79 79 79 79 80 79 79 79 78 78 77 78 78
88 89 89 88 88 87 86 87 86 87 89 91 89 87 87 86 87 87 87 86 86 84 84 84 84 84 83 83 82 82 81 81 81 81 81 81 81 80 80 80 80 80 80 80 80 80 79 79 80 80 80 80 80 80 79 80 79 79 78 78 77 77 77
87 87 87 88 88 87 87 88 89 90 90 90 88 87 88 89 90 90 88 85 85 85 84 84 83 83 82 83 82 81 81 81 81 81 80 81 80 80 80 80 80 80 80 79 80 80 80 79 79 79 80 81 81 80 80 79 80 79 78 78 77 78 78
86 87 87 88 88 88 87 89 90 90 90 90 89 89 90 91 90 91 90 86 86 83 83 83 83 83 82 83 81 81 80 81 81 80 81 81 81 80 80 80 80 80 80 80 79 80 79 79 79 79 79 79 79 79 78 78 78 79 78 77 77 77 78
87 87 88 89 90 90 90 88 89 90 90 89 89 90 91 91 90 91 89 90 89 89 87 86 84 83 82 82 82 81 81 81 81 82 81 81 81 80 81 81 81 81 80 79 80 80 80 79 80 80 79 79 79 78 79 78 78 79 79 78 77 77 78
88 88 88 90 91 91 91 89 89 88 87 86 86 86 88 88 90 89 88 88 88 87 87 89 87 84 83 82 81 81 81 81 81 81 81 80 81 82 82 84 83 82 80 80 80 80 80 79 79 79 78 78 78 78 78 78 78 78 78 77 76 75 76
86 86 87 90 90 91 89 89 87 85 84 84 84 85 86 87 87 88 88 89 90 88 87 87 87 86 83 82 81 81 81 80 81 81 81 81 82 82 83 84 84 84 82 81 81 80 80 80 79 79 78 78 78 78 78 78 78 78 78 77 77 75 75
87 85 86 87 87 87 87 87 84 82 82 82 83 84 84 85 85 86 86 88 90 90 89 87 86 85 84 83 82 82 80 80 81 81 81 81 83 83 84 86 85 83 82 81 80 80 80 80 80 79 79 78 78 78 78 78 78 78 78 78 77 77 76
85 85 84 85 85 85 84 84 83 82 82 82 83 84 83 83 84 85 85 86 89 89 87 87 87 86 84 85 83 81 81 81 81 81 81 81 82 82 82 82 82 83 85 84 83 82 82 81 80 80 79 79 79 78 78 78 78 78 77 77 77 76 76
85 84 83 84 83 84 83 82 81 82 82 83 84 84 84 84 84 85 84 85 87 87 87 85 84 83 83 83 83 81 81 81 81 81 82 81 81 82 83 84 85 85 83 84 84 83 82 82 81 80 80 79 79 79 79 78 78 77 77 76 76 75 74
82 84 84 83 83 82 81 81 81 82 82 83 84 84 85 85 85 84 84 85 86 87 87 86 83 82 82 81 81 80 81 81 82 82 81 82 81 81 81 81 81 81 81 82 82 84 82 82 81 81 81 80 80 79 79 78 78 77 77 76 75 75 74
83 83 83 82 81 81 81 81 81 81 82 83 83 83 84 85 85 84 84 86 85 87 86 85 83 81 81 81 80 80 81 81 82 82 82 81 81 80 80 80 80 80 81 81 81 82 83 82 81 80 79 80 80 79 79 78 77 78 77 75 75 75 75
83 83 82 82 81 82 81 82 81 82 82 82 83 82 83 83 83 84 84 85 86 84 85 84 82 80 80 81 80 81 81 81 81 81 81 80 80 80 80 80 80 81 81 81 81 81 81 80 80 81 80 80 80 79 78 78 78 72 64 66 72 74 74
83 83 83 82 82 82 82 82 82 82 82 82 83 83 82 83 84 84 87 87 87 84 85 84 81 80 80 80 81 81 81 80 80 80 80 80 80 80 79 79 79 80 80 80 80 80 79 79 79 80 81 80 80 79 78 78 78 66 63 62 62 69 73
83 82 83 82 82 82 82 82 82 82 82 82 82 83 83 83 84 84 85 86 86 87 86 83 82 81 80 81 81 81 80 80 80 80 80 80 79 79 79 79 79 79 79 79 79 80 80 79 79 79 79 80 80 79 78 79 71 63 62 62 62 64 70
83 83 83 82 81 81 82 84 84 83 83 83 83 83 85 85 85 84 84 84 85 85 84 83 83 81 81 81 81 81 81 80 80 80 79 79 79 79 79 79 79 79 79 79 80 80 78 78 79 79 79 79 78 78 80 80 68 62 61 62 61 61 64
83 84 84 84 83 83 83 84 85 85 85 84 85 88 87 87 85 85 86 86 85 83 82 82 82 82 81 81 81 81 81 80 80 80 80 80 80 79 79 78 78 79 80 80 80 79 79 79 79 79 78 78 78 78 79 80 68 61 61 60 59 59 62
82 82 82 83 82 84 83 84 84 84 84 85 88 88 87 85 86 86 86 85 84 84 82 82 82 81 81 81 81 81 81 81 80 80 80 80 79 79 78 78 78 79 79 80 79 79 78 78 78 79 79 79 79 79 79 80 65 62 60 59 57 57 60
84 84 83 84 83 83 83 84 83 84 84 87 87 88 88 86 88 87 86 86 85 83 83 82 81 81 81 81 82 81 81 81 81 80 80 79 79 78 78 78 78 78 79 79 80 80 80 80 80 79 79 79 79 79 78 80 62 61 60 58 57 57 66
88 86 85 85 86 85 84 85 85 86 85 86 86 86 86 88 88 87 86 86 85 83 83 83 81 81 81 81 82 82 82 82 81 80 80 80 79 78 78 78 78 79 79 78 79 80 80 79 80 79 79 79 79 78 78 80 67 57 57 56 55 59 70
88 87 86 87 85 86 84 85 86 86 87 86 85 86 87 88 88 86 84 84 84 85 84 83 82 82 82 82 83 82 82 82 81 80 80 80 79 79 79 80 80 80 80 79 79 79 79 79 76 75 75 78 77 80 79 80 69 54 54 53 55 60 71
89 89 87 87 86 85 84 84 85 86 86 85 84 86 87 87 87 85 83 83 84 85 83 82 82 82 82 83 83 83 83 83 82 81 80 80 80 80 79 79 78 77 75 74 76 75 75 76 75 75 74 74 77 74 75 75 72 55 53 53 55 61 71
84 85 85 86 87 86 84 84 84 84 84 84 84 86 86 87 86 84 83 84 85 84 83 82 83 84 84 84 84 83 82 82 81 80 80 80 80 80 79 76 76 77 76 76 78 77 77 76 75 73 72 71 71 74 78 75 75 75 53 52 53 55 68
85 86 85 87 86 84 85 84 83 83 84 85 85 87 87 86 85 83 83 82 82 81 83 84 84 84 84 84 83 83 82 82 82 81 81 81 81 81 78 78 78 78 77 77 78 76 75 75 74 72 69 71 74 74 72 76 81 78 58 55 54 55 57
86 86 88 87 84 83 85 85 83 84 87 86 87 87 87 85 82 82 82 81 81 82 85 85 84 84 83 82 82 82 82 82 81 81 81 81 80 78 77 78 78 78 77 78 76 74 74 74 72 71 72 73 74 74 74 73 73 79 65 56 54 53 54
83 84 85 83 83 84 85 84 83 85 86 89 90 86 85 84 81 81 81 80 81 84 85 85 84 82 82 81 81 80 80 81 80 80 81 79 78 78 77 77 77 77 76 75 74 73 72 72 73 73 73 73 73 73 72 69 74 65 72 61 55 54 53
84 85 85 89 89 86 86 83 84 85 86 90 88 86 84 82 80 80 80 80 83 84 83 82 82 82 81 80 80 80 80 81 81 80 79 79 78 77 76 76 76 76 75 74 74 73 72 72 72 72 72 72 70 71 70 68 69 66 62 66 59 53 50
84 84 85 86 89 87 86 86 84 84 85 84 82 82 82 82 80 79 78 81 83 82 82 81 80 80 79 80 80 80 80 79 80 79 79 79 79 77 76 76 76 74 74 74 74 73 72 72 73 71 71 71 71 69 66 68 71 70 65 61 63 56 51
83 84 85 85 83 82 84 85 84 83 82 82 82 81 80 81 81 78 79 82 82 82 81 81 79 79 78 80 79 79 79 78 79 79 78 78 79 78 77 76 76 75 75 74 74 73 72 71 72 72 72 70 68 66 69 71 69 73 74 69 67 65 60
82 83 83 83 82 81 82 83 84 83 83 83 83 83 84 82 82 81 81 82 81 81 81 80 79 78 78 78 78 78 77 76 78 79 78 77 78 79 78 78 77 76 74 74 74 73 72 72 72 72 72 71 70 70 69 73 69 67 69 69 68 70 68
81 81 81 82 80 81 82 81 81 82 81 80 81 81 81 83 83 83 83 84 85 85 80 78 78 77 78 78 78 77 77 77 73 74 78 79 78 79 79 78 78 77 75 75 75 73 72 73 72 72 72 72 73 71 71 69 70 67 63 62 62 62 64
81 80 79 79 78 79 79 79 79 78 78 78 78 79 79 79 83 86 82 84 84 81 80 79 78 77 77 77 78 77 77 77 77 77 78 77 77 77 76 74 75 74 74 68 68 69 71 72 73 73 73 73 72 68 67 66 64 61 51 50 47 49 56
80 80 79 79 79 78 77 76 76 76 76 76 77 77 78 78 79 81 85 84 83 81 79 77 77 77 78 79 80 81 80 79 80 79 76 78 77 77 70 52 47 56 71 67 53 48 46 51 64 63 67 71 69 64 62 60 58 48 42 42 41 40 40
80 80 79 80 79 77 77 76 76 76 75 76 76 77 77 77 79 79 82 81 81 81 79 78 77 78 80 79 80 77 78 78 78 78 75 75 75 75 75 70 60 45 45 51 51 47 42 42 42 44 48 59 67 59 50 49 45 42 41 41 40 40 40
80 79 79 80 79 77 76 76 76 75 75 76 77 77 77 79 79 78 82 80 80 80 78 78 77 76 79 79 78 73 73 76 75 75 75 74 74 74 73 69 59 58 45 43 46 45 42 42 41 41 43 44 49 56 62 52 46 41 42 41 41 41 41

ECMWFFLT1_sfc_temp_009.txt.gz
Temp
96 96 94 92 91 92 91 91 90 90 88 88 88 89 90 90 88 87 86 86 85 84 85 85 86 86 86 86 85 85 85 84 84 83 83 82 82 81 81 81 81 81 81 81 81 81 82 82 82 82 82 82 82 82 81 81 80 81 80 80 80 79 79
94 95 95 93 92 91 91 90 90 91 89 88 89 88 90 88 88 87 86 86 85 85 85 86 86 86 86 86 85 85 84 84 84 83 83 82 82 82 82 82 81 81 81 81 81 82 81 82 82 82 82 82 82 82 82 81 81 80 80 80 79 78 78
95 95 95 93 92 90 88 89 91 90 89 90 91 90 89 87 87 87 86 86 85 85 86 86 86 86 86 86 85 84 84 84 83 83 82 83 83 83 83 82 82 81 82 82 81 81 82 82 82 81 81 81 81 81 81 81 81 80 80 80 79 79 78
93 94 94 93 92 90 91 89 90 91 91 92 91 91 89 87 88 88 87 87 86 85 85 85 86 86 85 85 84 84 84 84 83 84 83 83 83 83 82 82 82 82 82 82 83 83 82 82 81 81 81 81 81 81 81 81 81 81 80 80 79 79 79
95 95 95 93 93 91 89 89 90 90 91 93 92 90 89 88 89 89 88 88 88 86 86 86 87 86 85 85 85 85 84 84 83 83 83 83 83 82 82 82 83 83 82 82 82 81 81 81 81 81 81 81 81 81 81 81 81 80 80 80 78 78 79
94 93 93 93 92 91 90 90 89 93 93 93 91 90 90 91 92 92 90 88 87 88 87 86 86 85 84 85 85 84 84 84 83 83 83 83 82 82 82 82 82 82 83 82 83 82 82 81 81 81 81 82 82 81 81 81 81 80 80 79 78 78 78
93 93 93 93 92 93 92 91 92 94 94 94 93 92 93 93 93 93 92 89 89 86 86 86 86 86 85 85 84 84 83 83 83 83 83 83 83 82 82 82 82 83 83 83 81 82 81 81 80 81 81 81 80 80 80 79 79 80 79 79 78 78 78
94 92 92 93 94 94 89 89 91 94 94 93 93 93 94 93 93 93 92 92 91 91 90 89 86 85 85 85 85 84 83 83 84 84 83 83 83 82 82 83 83 83 83 83 82 83 82 81 81 81 81 81 80 80 80 79 79 80 79 78 78 77 78
95 93 93 94 94 92 91 92 92 92 91 91 90 90 91 92 93 92 92 92 91 91 90 92 90 87 85 84 84 83 84 84 83 83 83 82 83 84 84 85 85 85 83 83 84 83 82 82 81 80 80 80 80 79 79 79 80 79 79 77 77 77 77
93 91 92 94 92 94 89 89 91 90 89 88 88 88 89 91 91 92 92 93 94 92 91 91 92 90 86 84 84 84 84 83 83 83 84 84 84 84 85 86 85 86 85 84 84 83 83 82 81 81 80 80 79 79 79 79 79 79 78 78 77 77 76
92 91 90 92 91 91 91 91 89 87 87 86 87 88 88 89 90 91 91 93 94 93 92 91 90 90 88 86 85 84 83 83 84 83 83 83 85 85 87 89 89 86 84 84 83 84 83 83 83 81 80 79 79 79 79 79 79 78 78 78 78 78 77
91 90 89 90 90 89 89 88 88 86 86 86 87 88 87 87 89 90 90 90 93 93 92 91 91 90 88 88 86 84 84 83 83 84 84 84 84 85 85 85 84 85 87 87 86 84 85 83 83 82 81 80 79 80 79 79 79 78 78 78 79 78 77
91 89 88 90 90 90 89 87 86 86 86 87 88 87 88 88 88 89 88 88 91 91 91 89 89 87 87 87 87 85 84 84 84 84 84 84 84 84 85 86 87 87 84 84 84 85 84 85 83 83 82 81 80 79 79 79 79 78 78 77 77 77 77
88 90 89 89 89 89 88 87 86 86 85 86 86 87 88 88 88 88 87 88 89 90 91 91 87 86 85 85 84 84 84 84 84 84 83 84 83 83 83 83 83 82 82 82 82 84 84 84 83 83 83 81 81 79 77 77 76 77 78 78 77 77 77
89 90 89 88 88 88 88 87 85 85 85 85 86 86 86 87 87 87 86 86 85 91 90 89 86 85 85 84 83 82 83 84 84 84 84 83 83 82 82 81 81 81 81 81 82 83 84 83 83 81 81 81 80 80 77 75 76 80 79 77 77 77 76
91 90 90 88 88 88 88 87 86 85 85 85 85 85 86 86 86 83 81 84 87 87 89 88 85 84 84 83 83 83 83 83 83 83 83 82 82 81 81 81 81 81 80 81 82 82 81 81 81 82 81 81 80 80 77 74 77 74 69 72 77 77 76
90 90 90 89 88 88 87 87 86 85 85 85 85 85 85 86 82 79 82 85 88 87 88 88 84 84 83 83 83 83 83 83 82 82 81 81 81 81 81 81 81 80 79 80 80 80 80 81 80 81 81 81 81 80 80 79 78 66 65 65 67 73 74
89 89 90 90 89 88 87 87 86 85 85 86 86 86 86 84 81 78 76 87 88 90 89 87 85 84 83 83 83 83 83 83 82 82 81 81 81 81 81 81 80 79 79 80 80 80 81 80 80 79 80 80 81 81 80 80 74 62 63 65 64 67 73
89 90 90 89 88 87 88 88 87 86 86 87 87 86 87 83 77 73 78 86 88 88 88 87 86 84 83 83 83 83 83 83 82 81 81 81 81 81 81 81 80 80 80 80 81 81 80 79 80 80 80 80 79 79 80 76 64 61 63 63 63 63 67
89 90 90 91 90 89 88 88 88 88 88 88 88 90 85 77 74 78 85 89 88 87 86 85 85 84 83 83 83 83 83 83 82 81 81 81 81 81 80 80 80 80 81 81 81 80 79 80 79 80 79 79 74 71 74 75 65 60 62 62 62 62 65
88 88 88 89 88 89 87 87 87 88 87 88 90 88 83 79 81 85 88 88 86 86 85 85 85 84 84 83 83 83 83 83 82 81 81 81 81 81 80 80 80 80 81 81 81 80 79 79 79 79 79 75 73 73 73 76 65 59 60 60 59 60 63
90 90 88 89 87 87 86 87 87 88 87 89 89 88 87 85 88 90 88 89 87 86 85 84 83 84 83 83 83 83 83 83 82 81 81 81 81 81 80 80 79 79 80 80 81 81 80 79 79 77 77 78 77 77 76 79 67 61 60 59 59 59 69
94 91 91 90 90 88 88 89 88 90 88 88 89 89 89 91 91 89 89 88 88 86 86 85 83 83 83 83 84 84 84 83 83 82 81 81 81 81 81 80 79 80 80 80 80 79 79 79 80 79 79 78 78 77 76 78 71 62 57 57 58 61 72
94 92 91 91 89 90 88 89 90 90 90 89 89 90 91 91 90 88 86 87 88 87 86 85 84 84 83 83 84 84 84 84 83 82 82 81 81 81 81 82 81 81 81 80 79 79 80 80 79 80 79 79 77 79 76 77 72 60 56 55 55 60 70
95 94 91 91 90 88 88 88 88 89 89 89 88 89 90 90 90 88 86 87 88 88 86 84 84 84 84 84 85 85 85 85 83 82 82 81 82 82 81 81 81 81 81 80 80 79 79 80 79 80 79 81 80 73 74 77 72 62 58 56 56 59 68
90 89 89 90 91 89 88 87 87 87 88 88 88 90 90 90 89 88 87 87 89 87 85 85 85 85 86 86 85 85 85 84 83 82 82 82 82 82 81 82 82 81 80 80 80 80 81 81 80 79 79 80 79 79 79 77 75 71 58 56 57 57 63
91 91 90 92 90 86 87 87 87 87 88 88 88 90 90 90 88 87 86 86 85 84 86 87 87 86 86 85 85 85 85 84 83 81 82 83 82 83 83 83 81 80 80 80 80 79 79 78 78 78 77 79 79 79 79 77 75 74 60 56 53 54 57
91 92 94 91 86 86 87 89 87 89 91 89 89 90 90 88 86 85 85 85 84 85 87 87 87 86 85 84 84 85 84 82 81 82 83 82 82 81 80 81 81 80 80 80 79 77 77 76 76 76 76 77 79 78 77 75 70 72 64 58 54 52 53
88 89 89 87 86 89 90 88 88 90 91 92 93 91 90 89 86 85 85 84 85 87 87 87 87 86 84 83 84 82 81 80 79 81 81 80 81 81 79 79 79 79 78 78 77 76 76 75 75 75 75 76 77 78 77 74 73 64 68 62 54 53 53
89 90 89 92 92 90 92 88 88 89 91 93 92 91 90 88 85 84 83 83 86 87 86 86 86 85 83 82 82 81 80 79 80 79 77 78 80 79 78 78 78 78 78 77 76 76 75 75 75 75 75 75 75 76 76 74 73 68 62 66 59 54 51
89 88 90 91 92 90 90 90 87 88 89 90 90 91 90 88 85 84 83 85 86 85 84 84 84 83 81 80 80 79 80 81 79 77 78 80 78 78 78 78 78 77 77 76 76 75 74 74 75 74 74 73 73 72 72 70 69 71 67 61 61 57 55
89 90 92 92 90 89 90 91 89 88 87 86 86 85 85 86 85 83 83 86 85 85 84 83 81 80 79 79 78 78 77 75 78 78 81 80 81 80 80 79 79 77 76 76 76 74 73 73 75 75 74 72 66 66 70 68 68 69 72 70 67 64 62
87 88 88 86 86 87 88 89 89 87 86 83 85 85 85 86 86 84 84 84 86 85 83 81 79 78 79 79 79 78 77 78 77 75 77 81 80 81 80 80 78 75 71 71 69 70 70 73 74 73 74 65 60 62 67 70 70 71 70 69 68 68 67
85 86 86 86 86 87 87 86 87 87 86 85 86 85 86 87 87 87 86 88 88 88 83 80 79 79 79 80 80 79 78 77 78 77 79 81 82 82 81 80 79 78 74 66 65 65 66 68 71 69 67 67 72 73 72 72 72 71 65 63 62 62 62
84 84 84 84 84 85 84 85 85 83 83 82 83 84 84 84 87 91 89 87 87 86 82 80 79 80 80 80 80 79 79 79 79 78 77 79 80 76 69 72 75 74 74 68 67 68 70 71 70 73 73 76 71 65 70 71 69 63 48 51 47 49 56
83 84 84 84 84 83 82 82 82 81 80 80 82 82 82 82 83 86 91 90 87 84 81 79 79 80 81 81 81 83 82 78 79 82 80 81 80 76 61 51 46 53 68 68 53 47 45 52 62 63 69 69 68 65 67 65 62 46 42 41 41 40 41
83 83 83 84 82 81 81 80 80 80 79 80 80 81 81 81 83 83 86 85 85 84 81 80 78 78 80 81 83 79 80 82 82 81 78 78 78 76 74 67 59 44 43 49 49 46 42 41 43 45 49 59 69 59 47 50 46 42 41 40 41 40 39
85 84 84 84 82 80 80 79 79 78 78 80 80 80 81 83 83 81 85 83 83 82 81 80 78 77 78 81 81 76 77 80 79 78 77 77 77 76 75 72 65 59 45 42 45 44 42 42 42 43 44 45 50 57 63 53 47 42 41 41 41 41 40

ECMWFFLT1_sfc_temp_012.txt.gz
Temp
94 94 91 90 89 91 90 88 88 88 87 86 86 86 87 86 85 84 83 83 82 81 82 82 82 83 83 82 83 83 83 82 81 80 79 79 80 79 79 79 79 78 78 78 78 78 79 80 80 80 80 80 79 79 79 79 79 79 78 78 77 77 76
93 93 93 92 91 91 89 89 88 88 87 87 86 85 86 85 84 84 83 83 82 82 82 82 83 82 83 82 82 83 82 82 82 81 80 78 79 78 79 79 79 79 79 79 79 79 79 80 80 80 79 79 79 79 79 79 78 78 78 77 77 76 76
92 92 93 91 90 90 89 90 88 89 88 88 87 86 85 84 84 83 83 83 82 82 83 82 82 82 83 82 82 82 82 82 82 81 80 80 80 81 81 80 79 79 80 80 79 79 80 80 80 79 79 78 79 79 79 79 78 78 78 77 77 76 76
90 91 92 90 89 89 90 89 89 90 89 88 87 86 85 83 84 84 84 83 82 82 81 82 83 82 82 82 82 81 81 81 82 81 81 81 81 81 80 79 79 79 79 80 81 80 80 79 79 79 79 78 78 79 79 78 79 78 78 77 76 77 76
90 91 91 90 90 90 90 90 89 88 88 89 87 85 85 85 85 85 85 84 84 82 83 83 84 83 82 83 82 82 82 81 81 81 81 82 81 81 80 80 79 80 80 81 80 80 79 79 79 78 78 78 78 78 78 79 78 78 77 77 76 76 76
88 86 88 88 90 90 91 90 91 90 89 88 87 86 86 87 88 88 86 84 84 84 83 83 83 82 81 82 82 82 82 82 82 81 81 81 80 80 79 80 80 80 80 79 80 80 80 79 78 78 78 79 79 79 78 78 78 78 77 77 76 76 76
91 89 87 88 88 90 91 91 91 91 90 89 89 88 89 89 88 88 88 86 86 83 83 83 83 83 82 82 81 82 81 81 81 81 81 81 80 79 79 80 80 80 79 80 79 80 79 79 78 78 78 78 78 78 77 77 77 77 77 76 75 76 76
92 91 92 92 93 94 93 90 89 89 89 88 89 90 90 88 88 89 88 88 87 87 86 85 83 82 82 82 82 82 81 81 82 81 80 80 80 79 80 79 79 80 80 79 79 80 80 79 80 79 78 78 77 77 77 77 77 78 77 76 75 75 76
95 93 93 96 96 94 92 90 88 87 84 85 85 85 87 87 89 89 88 88 87 86 86 88 86 84 82 82 82 81 82 81 81 81 81 80 80 81 82 81 80 79 78 80 81 81 80 80 80 79 78 77 77 77 77 77 77 77 77 75 75 75 75
92 90 91 94 94 94 91 91 88 85 83 83 83 84 85 87 87 88 89 89 89 88 87 88 86 86 83 82 82 82 81 81 81 81 82 81 80 81 82 83 82 81 81 81 82 80 80 80 79 79 77 77 77 77 77 77 76 76 76 76 75 75 74
92 90 89 91 89 89 87 88 85 84 83 82 82 85 85 86 86 88 87 89 90 89 89 88 86 85 84 83 83 82 81 81 81 81 81 81 83 83 85 85 86 83 81 80 80 80 80 80 80 79 78 78 78 77 77 77 76 73 72 74 75 75 74
87 88 87 88 88 88 85 84 83 83 83 83 84 85 84 84 86 88 87 88 90 90 88 88 88 86 83 84 83 81 81 81 81 81 81 81 82 83 83 83 81 81 83 82 82 81 81 79 79 79 78 78 78 77 77 77 73 72 71 72 74 75 74
90 87 85 86 85 87 84 82 82 82 83 84 86 86 85 86 86 87 85 87 90 89 87 84 83 82 84 84 84 81 81 81 81 81 82 81 81 82 83 83 85 85 82 81 82 81 81 80 79 79 78 78 79 79 77 77 75 73 72 72 72 72 72
88 90 87 86 85 84 83 82 82 82 83 84 85 85 86 87 87 86 85 86 88 87 87 86 83 82 83 82 82 81 82 82 82 81 81 81 81 82 81 81 81 80 80 80 79 81 80 81 80 79 79 78 78 78 77 76 75 73 73 72 71 70 70
90 90 88 86 85 82 81 83 82 82 83 84 85 85 86 86 86 85 85 86 84 86 84 81 79 80 81 82 81 81 81 81 82 82 81 81 80 80 79 80 80 79 79 79 79 79 80 80 80 78 77 78 77 77 77 76 72 74 73 71 70 70 70
91 91 88 85 85 84 81 82 84 83 83 83 84 84 85 85 84 84 83 81 83 80 81 80 79 79 81 81 81 81 81 81 81 81 80 80 79 79 79 80 79 79 79 78 79 78 78 78 78 80 78 78 78 77 78 71 71 72 68 68 71 72 73
89 90 90 87 85 85 84 83 84 83 83 83 84 84 84 84 84 83 83 83 82 79 79 80 79 80 81 80 81 80 80 79 79 80 79 79 79 79 79 79 79 78 78 77 77 77 77 77 77 79 79 78 78 77 76 70 70 66 65 66 67 70 72
88 89 89 90 87 85 83 82 81 83 84 84 84 84 84 83 83 82 80 80 79 78 75 75 80 81 80 81 81 80 80 79 79 79 79 79 78 78 78 79 78 77 77 77 77 77 78 77 77 77 77 77 78 77 75 71 69 63 63 64 65 67 71
87 89 89 88 87 84 85 84 83 83 85 85 85 84 85 82 80 76 77 77 75 74 75 79 83 80 80 81 80 80 79 79 79 79 78 78 79 78 78 78 78 78 77 78 78 78 77 77 77 76 77 77 76 75 75 74 67 63 62 63 63 64 66
89 90 90 91 90 89 86 86 87 86 86 84 81 80 83 80 78 77 77 75 75 74 77 81 81 81 81 80 80 80 79 79 79 79 78 79 78 78 78 78 77 78 79 79 78 77 77 77 76 76 76 76 74 74 75 74 69 63 62 62 62 62 64
87 87 88 88 88 90 89 87 88 85 84 74 71 78 80 78 78 76 74 76 75 75 79 82 81 81 81 80 80 80 79 79 79 78 78 79 79 78 77 77 77 78 78 79 78 77 76 76 76 76 76 77 76 75 75 76 67 61 61 60 59 59 62
91 91 89 89 88 88 88 89 88 89 86 82 80 83 80 79 78 77 73 71 73 77 81 82 81 81 81 80 80 80 80 80 79 78 79 78 78 77 77 77 77 77 77 77 77 77 78 77 77 76 76 76 76 76 75 78 63 60 60 58 58 59 65
94 93 93 90 92 90 90 89 89 89 88 85 83 81 80 80 77 70 68 69 73 79 83 83 81 81 80 80 81 80 80 80 79 78 78 79 78 77 78 77 77 77 77 76 77 77 77 76 77 76 77 76 76 75 74 76 69 61 59 58 56 62 69
96 95 93 92 90 91 89 89 89 89 89 86 82 81 82 76 68 69 68 70 75 83 84 83 81 81 80 81 81 81 81 80 80 79 79 78 78 78 78 79 79 78 78 77 76 77 78 77 76 76 76 77 77 78 76 76 69 56 56 57 56 60 67
96 95 92 91 90 89 88 87 88 88 87 84 82 82 80 73 72 72 72 73 80 84 83 81 81 81 81 81 82 82 81 81 80 80 79 78 79 79 78 78 78 79 78 78 77 77 77 77 76 76 76 79 79 75 76 76 71 57 62 58 56 60 67
90 89 89 89 90 89 87 87 86 87 86 84 83 84 79 76 76 76 77 81 85 84 82 81 81 82 82 83 82 82 81 81 80 79 79 79 79 79 77 78 79 79 79 78 78 77 77 77 77 76 77 78 78 79 77 76 76 72 60 57 55 56 65
90 90 89 90 89 85 87 86 87 86 86 84 85 83 80 79 78 78 81 82 82 82 83 83 83 83 83 82 82 82 82 81 81 80 80 80 80 80 79 79 78 78 76 77 77 76 75 76 76 76 75 76 77 77 77 75 74 70 58 57 55 54 59
92 92 90 89 84 85 86 87 86 87 89 86 86 85 82 81 80 81 82 82 82 83 86 85 83 82 82 81 81 82 82 81 80 81 81 80 79 78 77 78 78 76 75 72 72 73 73 74 74 71 70 69 70 67 63 66 67 70 64 59 56 53 54
87 86 87 85 84 86 87 85 85 87 88 90 90 84 84 85 83 83 83 82 83 85 86 86 85 83 82 81 81 81 81 81 80 80 79 78 78 78 76 75 74 74 73 72 71 73 72 68 63 62 63 64 64 63 65 64 65 64 68 62 56 53 52
85 85 83 85 88 86 88 84 85 86 86 89 86 85 84 84 83 83 83 83 87 87 87 85 84 84 82 81 80 81 81 81 81 79 78 78 76 72 70 70 70 69 68 67 68 66 65 62 65 65 64 63 63 64 64 65 65 66 64 65 58 53 49
83 81 77 74 87 86 87 86 85 86 84 84 82 82 83 83 81 81 81 81 83 83 84 84 84 81 80 81 81 80 79 75 71 68 72 70 71 70 70 70 69 65 66 67 64 63 64 66 66 65 64 64 62 62 65 66 67 69 66 62 62 59 55
82 76 72 72 85 85 88 87 86 84 82 81 81 82 82 84 82 80 81 82 83 84 83 83 80 76 76 77 78 76 73 71 70 71 71 71 71 69 68 68 68 68 67 65 66 67 67 66 66 66 67 65 64 64 65 67 67 67 67 67 65 62 58
80 75 71 69 81 84 84 82 83 82 84 82 84 85 86 85 85 82 82 82 84 84 83 81 81 79 78 77 74 73 73 70 68 68 72 72 71 71 71 70 68 67 65 65 67 68 68 69 69 67 65 65 65 64 64 64 64 63 63 63 62 62 61
72 76 77 77 80 83 82 81 81 80 80 80 83 85 85 85 83 83 82 85 85 85 80 79 79 79 78 78 77 76 75 73 76 75 75 75 75 74 72 71 68 66 65 65 68 69 69 70 69 69 69 65 66 65 63 62 61 58 57 59 58 59 59
70 70 70 72 79 80 80 81 82 81 81 81 83 83 83 84 87 89 86 86 87 83 82 80 79 78 79 79 79 78 77 76 74 75 75 75 70 62 57 59 66 68 63 56 58 61 65 67 68 68 69 69 64 65 64 64 61 57 50 51 47 49 54
69 68 69 73 76 80 79 79 79 79 79 79 80 81 81 82 83 85 89 86 84 82 81 79 79 79 80 80 80 81 75 74 75 73 72 74 70 65 57 50 45 52 63 59 50 46 47 52 59 60 64 66 60 61 62 59 57 47 42 41 41 40 41
69 70 77 81 80 79 79 78 78 77 77 77 78 79 80 81 83 83 84 82 83 83 81 80 78 77 79 79 80 73 71 69 68 71 68 68 69 67 65 60 53 43 43 48 47 44 41 41 42 45 50 59 61 54 49 49 45 42 42 41 41 40 40
76 79 80 81 79 77 76 76 76 76 76 77 78 79 80 81 81 81 84 82 82 81 80 80 77 76 77 78 78 71 73 74 73 72 72 69 69 71 67 65 60 55 44 41 44 43 40 41 41 42 44 46 51 57 59 52 47 42 41 42 41 41 40

ECMWFFLT1_sfc_temp_015.txt.gz
Temp
85 85 84 84 83 83 82 82 82 82 81 80 80 81 81 81 80 79 78 77 76 75 76 76 75 75 75 74 74 74 73 73 73 71 71 69 72 70 71 69 70 69 70 70 70 71 71 73 73 72 73 73 73 73 72 73 73 73 71 71 71 70 69
84 84 84 84 83 82 82 82 82 82 81 81 81 81 81 80 79 78 78 77 76 76 76 76 76 75 75 74 74 74 73 73 74 75 73 72 73 70 71 70 70 69 70 70 70 70 73 72 73 72 73 73 72 72 72 72 71 71 70 70 70 69 69
84 83 83 83 83 81 82 82 82 83 82 82 82 81 81 79 79 78 78 77 76 76 76 76 76 75 75 74 74 73 73 73 73 73 71 71 70 71 71 71 69 70 70 71 71 71 73 72 73 73 72 71 71 71 71 71 71 71 70 70 70 69 68
83 82 83 83 83 82 83 83 82 83 83 83 83 82 81 79 79 79 78 78 76 76 75 75 76 75 75 74 74 73 73 73 73 73 73 72 72 71 71 69 70 71 71 71 72 73 73 72 72 71 74 72 70 70 71 70 70 70 70 70 69 69 69
83 82 83 83 83 81 82 82 82 83 83 84 83 82 81 80 80 79 78 78 78 76 76 76 77 76 75 75 75 74 74 73 73 72 72 73 72 71 71 70 69 70 70 72 71 72 71 70 70 70 70 70 70 70 70 70 70 70 69 70 68 69 69
82 80 81 83 83 82 82 83 84 84 84 83 82 82 81 81 81 80 79 78 77 77 76 76 75 75 74 75 75 75 74 74 74 73 73 71 71 71 70 71 71 71 71 70 71 70 70 69 70 70 69 70 70 70 70 70 71 71 70 69 69 69 70
82 82 79 82 82 82 83 84 85 85 85 84 83 83 83 82 82 81 80 79 78 76 76 76 75 75 74 74 74 75 73 73 73 73 73 72 72 71 70 70 72 71 72 71 70 71 70 70 70 70 70 70 70 69 69 69 69 70 70 69 69 69 69
81 79 79 82 83 84 85 84 84 85 84 84 83 83 83 82 82 81 80 80 80 79 78 77 75 74 74 74 75 74 74 73 74 73 72 73 71 72 71 71 71 72 71 71 72 71 72 71 71 71 71 70 69 69 69 69 69 70 69 69 69 68 71
82 82 81 83 85 85 85 84 84 84 82 82 81 82 82 81 82 81 81 80 80 79 78 80 77 76 75 74 74 74 74 74 73 73 73 73 72 73 73 73 73 73 71 71 71 72 72 72 72 71 71 70 70 69 69 69 69 69 69 69 68 68 68
80 80 81 83 85 85 84 84 83 82 80 80 80 80 81 81 81 81 81 81 81 79 79 79 78 77 75 75 74 74 74 74 74 74 74 73 72 73 73 74 73 73 73 73 73 72 70 71 71 71 69 70 70 69 69 70 69 69 68 69 68 68 68
78 78 80 81 82 83 82 82 81 80 80 80 80 80 80 80 81 81 80 82 82 81 81 80 79 78 77 76 76 75 74 74 74 74 73 73 74 74 75 76 76 74 72 71 70 71 70 70 70 69 69 71 70 69 69 70 69 68 68 68 67 68 68
77 78 78 80 78 81 81 80 80 80 80 80 80 80 79 80 81 81 81 81 83 82 81 80 80 79 77 77 76 74 74 74 75 74 73 74 73 74 74 74 72 71 72 71 71 71 72 72 71 71 69 68 69 69 68 68 68 67 68 68 68 67 67
78 78 77 79 77 79 79 78 79 80 79 80 80 80 79 80 80 81 80 81 83 82 81 79 79 78 77 78 76 74 74 74 74 74 74 74 73 74 74 73 75 76 72 73 74 74 72 71 70 71 70 69 71 71 70 69 69 67 66 67 66 67 66
79 77 77 77 76 77 77 78 78 78 78 79 79 80 80 80 81 80 80 81 82 82 82 80 79 78 77 77 75 74 75 75 75 75 74 73 72 72 72 72 70 71 70 71 70 72 70 70 70 69 71 70 71 70 70 69 67 67 67 66 66 66 65
76 77 77 77 76 77 77 77 77 78 78 78 79 78 79 80 80 80 80 81 81 82 81 79 78 77 77 76 75 74 75 75 75 75 74 74 72 71 71 71 69 70 71 71 71 72 71 71 71 69 69 69 69 70 71 68 67 67 67 67 66 66 65
77 77 77 77 76 76 77 78 77 77 78 77 78 78 79 79 80 80 80 80 81 80 79 78 77 76 76 75 75 75 75 74 75 74 73 73 72 71 70 71 70 71 69 69 70 69 70 69 71 71 70 69 68 68 69 67 68 69 69 68 68 66 66
75 76 77 77 77 77 76 77 77 77 77 77 78 78 79 79 80 80 81 80 80 78 78 78 76 76 76 74 74 74 74 74 73 73 72 72 71 70 71 70 71 70 69 69 69 70 70 71 70 71 72 70 69 68 70 67 68 67 65 65 67 67 65
75 76 75 77 77 77 76 76 76 76 77 78 78 79 79 79 79 79 77 76 76 77 76 77 76 75 74 74 74 74 73 73 72 72 71 71 70 70 70 70 69 69 69 69 70 70 71 70 70 70 70 70 69 69 69 67 68 64 64 65 64 66 65
76 76 75 74 76 77 77 78 78 77 78 79 80 80 80 80 76 68 66 67 67 69 70 73 76 74 74 74 74 74 73 72 72 72 70 70 71 70 70 70 69 69 69 70 71 70 70 70 70 70 69 69 68 68 68 67 67 63 63 63 63 63 64
77 78 78 78 76 78 78 78 79 80 80 80 80 80 79 73 66 67 69 70 72 71 73 74 74 75 74 74 74 73 73 73 72 71 71 71 71 70 70 70 70 70 71 71 70 70 70 70 69 69 68 68 68 67 66 66 67 63 61 61 61 61 63
74 75 75 75 75 75 77 78 78 77 76 77 78 74 69 68 69 69 70 72 72 73 72 72 71 72 74 74 74 74 73 72 72 72 72 71 71 70 70 70 70 70 71 71 70 70 69 69 69 69 69 68 68 66 68 70 66 63 61 59 59 59 62
75 76 77 77 76 76 75 78 78 77 76 77 74 71 69 69 70 70 70 72 72 70 70 70 71 72 73 73 74 74 73 73 72 72 71 70 69 70 70 70 69 70 70 71 71 71 70 69 69 68 68 67 67 67 67 70 66 63 60 59 59 60 62
82 79 80 78 79 77 77 79 79 78 75 75 73 69 69 70 71 70 69 68 68 67 68 69 71 73 74 74 75 74 74 73 72 71 70 70 70 69 70 69 69 70 71 70 70 70 70 70 70 69 68 68 68 67 67 67 60 56 57 57 57 59 62
84 81 79 79 79 78 78 78 79 77 75 75 73 70 70 70 69 68 68 68 68 68 68 68 71 73 75 75 75 75 74 73 72 71 71 70 70 71 70 71 71 71 72 71 70 70 70 70 67 65 65 65 65 66 66 65 60 56 55 55 56 60 61
82 81 79 79 79 78 78 77 78 77 76 75 71 70 71 70 68 66 67 69 69 69 69 70 73 74 75 75 75 75 74 74 73 72 72 71 72 72 71 72 72 72 72 71 71 70 69 67 63 64 64 65 66 67 66 64 62 54 54 54 54 57 60
78 79 79 79 79 78 76 77 77 76 75 73 70 71 71 69 66 66 69 69 70 69 69 72 74 76 77 76 75 74 74 74 73 72 72 72 72 72 72 72 72 72 71 69 69 68 66 64 64 63 63 65 64 64 63 64 64 62 55 54 54 56 60
79 80 79 80 79 79 76 76 77 76 75 72 71 71 70 68 67 67 69 69 69 69 71 74 75 75 74 74 74 74 74 73 73 73 72 70 67 66 69 72 71 69 69 69 67 65 62 62 63 63 61 62 63 63 63 65 63 62 54 53 54 54 56
78 79 79 77 77 78 77 77 76 77 75 72 72 72 71 69 68 67 68 69 69 71 74 75 75 75 74 74 74 75 74 73 71 69 67 66 67 66 68 69 70 69 67 66 65 63 61 61 61 61 61 61 62 62 61 64 67 64 60 56 54 53 53
74 75 75 74 75 77 78 75 72 72 74 74 74 72 72 71 69 69 70 70 72 75 77 78 77 76 76 75 75 73 72 69 68 68 67 66 66 66 66 65 65 64 64 64 64 62 61 61 61 61 61 60 61 60 61 61 63 62 62 56 53 51 51
75 74 74 77 75 71 71 68 67 68 70 73 75 74 73 72 70 71 71 72 76 77 77 77 76 76 74 74 73 71 68 67 67 67 67 67 65 65 64 64 63 62 62 64 62 60 59 59 60 61 60 59 59 60 61 61 60 62 63 60 54 51 50
73 72 71 71 70 69 70 69 67 67 68 71 75 75 75 75 74 73 73 73 75 76 76 75 74 73 73 72 71 68 66 66 66 66 66 65 65 64 64 63 63 62 62 63 61 60 59 59 59 60 60 59 59 59 59 60 61 62 63 62 61 55 53
69 70 70 69 68 69 69 69 68 68 66 71 77 76 75 75 76 74 73 75 75 76 76 74 72 71 70 70 69 67 67 65 65 65 65 65 65 64 62 63 64 63 62 61 60 60 59 59 60 60 60 60 60 59 59 60 61 59 58 61 61 59 56
68 68 68 67 68 69 68 68 68 68 68 70 76 77 78 77 76 75 75 75 76 76 75 73 72 71 69 69 67 66 65 64 63 63 63 63 65 63 64 63 63 63 61 60 60 59 59 60 60 61 61 59 59 59 59 58 57 54 54 55 54 55 56
66 66 67 68 67 68 68 68 67 66 66 68 75 77 77 78 77 77 77 78 79 77 74 72 71 71 70 69 67 67 66 65 69 66 63 64 64 63 63 63 63 62 59 59 58 59 59 60 62 60 60 59 58 58 59 57 54 52 51 52 52 52 52
66 66 66 67 67 67 65 65 66 66 66 67 74 76 76 76 79 82 78 78 76 73 72 71 72 72 71 70 69 68 68 66 67 66 64 59 55 52 51 52 57 57 53 53 53 56 59 61 59 60 60 59 56 57 57 57 54 54 51 50 48 47 49
66 67 67 67 69 69 68 68 67 67 68 67 71 74 75 75 76 79 80 77 75 73 72 72 72 71 71 70 70 70 67 67 67 67 64 59 54 52 51 49 43 49 56 54 51 48 47 51 56 55 57 55 53 54 55 54 54 48 42 41 41 41 41
67 67 68 69 69 69 68 68 68 65 64 64 66 68 68 71 75 74 76 75 75 74 72 71 69 68 71 69 68 67 67 65 66 65 63 61 57 55 54 52 50 42 42 47 48 45 42 42 44 47 53 56 53 51 50 51 46 43 42 41 41 40 40
69 70 71 72 71 69 68 68 67 67 65 65 67 70 72 74 73 73 75 74 73 72 70 69 68 67 66 67 66 66 66 65 66 66 63 62 61 58 55 53 51 50 43 41 43 42 40 40 41 43 45 49 52 53 52 48 46 43 41 41 41 42 41

ECMWFFLT1_sfc_temp_021.txt.gz
Temp
79 77 77 77 77 77 76 76 76 76 76 75 76 76 76 76 76 75 75 75 74 74 74 74 74 74 73 72 71 70 70 69 69 68 67 66 68 66 66 65 67 66 66 66 66 66 68 68 67 67 67 67 67 67 66 67 67 69 67 66 66 66 66
77 77 77 77 77 77 77 77 77 77 76 76 76 76 77 76 76 75 75 75 75 75 74 74 74 73 73 72 71 69 69 69 69 70 68 68 69 67 67 66 67 66 66 67 66 66 67 67 67 66 67 68 67 66 66 66 67 66 66 66 65 65 65
76 77 77 76 77 77 76 76 76 77 77 77 77 77 76 76 77 76 76 75 74 75 75 74 74 73 73 71 70 69 69 68 68 69 67 68 67 67 67 67 66 66 67 66 66 68 67 67 67 66 66 67 67 66 66 66 66 67 66 66 66 66 65
76 77 77 78 78 78 77 77 77 77 78 78 78 78 77 77 77 77 77 76 75 75 74 73 74 73 72 71 70 69 69 68 69 69 68 68 68 67 67 66 66 66 67 66 68 68 69 67 67 66 70 66 66 66 65 66 66 66 66 66 65 66 66
76 77 77 76 77 76 76 76 77 77 78 79 79 78 78 78 78 78 77 77 76 75 75 75 74 74 73 72 72 71 69 68 68 68 68 68 68 67 67 67 66 66 67 67 66 68 68 67 66 66 67 66 66 65 66 66 66 66 65 65 65 65 65
76 75 75 76 77 77 76 77 78 78 78 78 78 78 78 79 79 78 77 77 76 77 76 74 73 73 72 72 72 70 69 68 69 68 69 68 68 67 67 67 67 67 66 67 67 67 67 67 67 67 66 66 66 66 66 66 66 65 65 64 65 66 66
76 76 76 76 77 77 77 77 78 79 80 80 80 80 80 79 78 78 78 77 77 76 75 74 74 73 72 72 71 70 68 68 68 68 69 68 68 68 67 67 68 67 68 66 66 66 66 66 67 67 67 67 67 66 66 66 66 65 65 64 65 65 65
77 76 76 77 78 78 78 77 78 79 79 79 79 79 79 79 79 78 77 78 77 77 76 75 74 73 72 71 69 69 68 69 69 69 68 69 68 69 68 67 68 68 66 66 67 66 67 66 67 67 67 66 66 66 66 66 66 66 65 65 65 65 66
78 78 78 79 78 79 79 77 78 78 78 78 78 78 79 78 78 78 78 78 77 77 76 76 75 73 72 70 69 70 69 69 69 69 68 69 68 69 68 68 68 68 67 67 67 66 67 67 66 67 66 66 66 66 66 66 66 66 65 65 65 65 66
76 76 77 79 79 79 78 77 76 76 76 76 77 77 77 78 78 78 78 78 78 77 76 76 75 73 71 71 71 72 70 69 69 69 69 69 69 69 69 69 69 69 68 68 68 67 67 66 66 66 65 66 66 66 66 65 65 65 65 65 65 65 65
76 77 77 76 76 76 75 74 73 74 76 76 77 77 77 77 77 78 77 78 78 77 77 76 74 72 71 72 72 71 70 70 69 69 69 69 69 70 70 71 71 69 70 68 67 68 67 66 66 66 66 66 66 66 65 65 65 64 64 65 65 65 66
75 76 75 75 75 73 73 74 75 75 75 76 77 77 77 77 77 77 78 77 78 77 75 74 73 72 72 71 70 70 70 70 70 70 70 70 70 70 71 71 70 69 70 69 69 68 67 66 66 67 66 66 66 65 65 65 64 64 64 65 65 65 65
75 75 74 75 75 75 74 73 74 75 75 76 77 77 77 77 77 77 77 77 77 77 75 72 71 71 71 71 73 71 71 70 70 71 71 70 70 70 70 70 71 71 70 70 70 69 67 66 65 66 66 66 65 65 65 64 64 63 63 64 64 65 64
76 73 73 74 73 73 73 73 74 74 75 76 76 77 77 77 78 77 77 76 76 75 73 71 70 70 70 70 70 70 68 69 70 71 71 70 70 70 70 70 70 70 70 69 69 69 68 67 66 66 66 65 64 64 64 64 63 62 63 64 64 64 63
71 73 74 73 72 72 72 72 73 74 74 75 76 76 76 76 76 76 74 74 74 73 71 70 70 70 70 69 68 67 69 72 71 71 70 70 69 69 70 70 70 70 69 69 69 69 68 67 67 66 64 64 64 64 64 65 65 65 65 64 64 63 64
73 73 73 72 71 71 72 73 73 73 74 74 75 75 76 75 75 75 74 73 73 71 70 70 71 70 69 68 68 69 71 71 71 70 69 69 69 69 70 70 70 70 70 69 69 68 68 67 66 66 66 66 64 64 65 65 66 68 68 68 67 64 64
73 73 72 71 71 72 72 72 73 72 72 73 74 75 75 76 75 74 73 72 71 70 70 71 70 70 70 68 69 69 71 70 68 69 69 69 70 69 69 69 69 70 69 68 67 67 67 67 66 66 66 66 67 66 66 66 67 67 65 65 67 67 63
71 69 69 70 70 70 70 70 69 70 71 73 73 74 74 73 72 73 72 71 71 70 70 71 71 70 70 69 68 69 69 68 68 68 69 69 69 69 68 68 69 69 68 67 66 66 66 66 66 66 66 66 66 66 66 66 67 64 64 64 64 66 66
69 68 69 68 69 70 70 70 70 69 69 70 72 73 74 73 72 72 72 71 72 71 70 71 70 69 67 67 68 69 69 69 68 68 68 68 68 69 70 70 69 68 67 67 67 66 65 66 66 66 65 65 65 66 66 65 66 63 63 63 63 64 64
68 68 66 66 67 68 67 67 69 70 72 73 73 74 73 73 73 74 74 73 71 70 69 69 67 67 67 68 68 69 70 70 69 69 69 68 68 69 69 69 69 68 67 67 66 66 65 65 66 65 64 65 65 66 65 64 64 62 61 61 61 61 63
65 66 67 67 66 67 68 69 69 68 68 69 71 71 72 71 72 70 70 71 70 69 68 68 67 67 67 68 68 69 70 69 69 69 69 69 69 69 69 69 69 67 66 66 66 65 66 66 66 65 65 65 65 64 65 65 64 61 61 59 58 59 62
68 68 68 68 69 68 67 67 68 69 69 70 70 71 72 71 71 71 70 70 69 68 68 67 67 67 67 67 68 68 69 68 68 69 69 69 68 68 68 68 68 67 66 66 65 66 66 65 66 65 65 64 64 63 64 65 62 60 59 58 58 59 61
72 71 72 70 70 71 70 69 69 70 68 69 70 70 71 70 70 70 68 68 68 68 67 67 67 67 67 68 67 68 68 68 68 68 69 69 68 67 67 67 66 65 66 66 65 65 65 65 65 65 64 64 63 62 63 63 61 57 57 57 58 59 59
73 71 70 71 70 69 67 67 69 69 69 69 69 69 69 69 70 68 67 67 67 67 67 67 67 67 67 67 67 68 69 70 69 69 68 68 68 68 68 67 66 66 67 67 66 65 66 65 64 63 63 63 63 63 63 63 61 58 55 55 57 59 58
71 70 68 69 69 70 67 67 68 68 67 66 66 65 67 68 68 67 66 66 67 67 67 68 68 68 67 67 68 68 69 71 70 70 70 68 68 68 67 67 66 66 66 67 67 67 65 65 63 62 61 62 63 66 65 62 61 58 56 55 55 57 57
70 68 68 68 68 69 68 69 69 66 66 66 65 65 67 67 67 66 66 67 67 67 68 69 69 69 68 67 68 69 71 71 71 71 69 68 68 67 66 66 66 66 66 66 65 65 62 62 62 61 61 62 63 63 62 61 61 61 57 54 52 54 57
68 69 70 70 70 71 69 68 67 67 66 66 65 66 67 67 66 66 66 67 67 67 69 69 69 67 67 67 68 69 70 71 71 70 70 69 67 66 67 66 66 65 65 65 62 61 60 60 61 61 61 60 60 61 60 62 61 61 57 54 52 53 56
70 70 70 69 71 69 68 67 65 65 64 65 67 67 67 67 66 66 65 66 66 66 67 68 67 66 67 67 68 69 70 70 69 69 69 67 66 65 65 66 66 66 65 62 61 61 60 60 60 59 59 59 59 59 59 61 65 60 60 55 52 51 53
66 67 68 67 67 68 69 66 64 64 64 65 66 66 66 66 66 65 64 64 64 65 66 66 66 67 67 67 68 68 69 68 68 68 68 67 67 66 65 64 64 63 62 62 61 61 60 59 59 58 58 59 59 58 58 57 59 61 60 55 50 50 51
64 65 66 68 68 67 68 66 65 64 64 65 64 64 65 65 65 64 63 62 64 64 65 65 65 66 66 66 66 67 68 68 68 68 68 67 66 65 65 63 63 62 61 61 61 59 58 58 58 57 58 58 58 57 57 57 56 59 61 58 52 49 48
63 63 64 64 65 66 66 65 64 64 63 63 63 63 63 64 65 65 62 62 64 64 65 65 65 64 65 65 67 67 67 67 67 67 67 66 65 65 64 63 62 60 60 60 59 58 58 57 58 58 58 57 57 55 55 56 59 59 60 57 53 50 48
62 62 63 64 64 65 64 65 64 64 63 63 63 63 64 64 64 64 62 64 65 65 65 65 65 65 65 66 67 67 67 66 66 65 65 65 64 64 63 62 61 61 59 59 59 58 58 57 57 58 57 56 55 55 54 56 57 54 55 58 57 54 52
62 62 62 62 64 65 64 64 63 63 63 63 63 64 64 63 64 64 64 65 66 66 66 66 66 66 66 67 66 66 65 65 64 63 63 63 62 63 63 63 61 61 60 59 59 58 57 58 58 57 56 56 55 55 57 56 53 50 49 49 49 50 52
62 61 61 62 64 65 64 64 64 63 63 63 63 63 64 64 63 64 65 67 68 68 67 67 67 66 65 66 66 65 65 64 68 66 62 62 62 62 61 60 61 60 60 59 59 58 57 58 58 57 57 56 55 56 57 54 52 52 50 48 49 48 47
61 62 62 63 64 65 64 64 64 64 63 63 63 63 64 64 65 66 65 66 67 67 66 66 67 66 65 65 64 64 66 65 66 63 61 58 54 51 51 53 55 56 51 50 50 54 58 58 55 56 54 57 56 58 58 56 55 54 50 49 49 48 46
62 61 61 61 62 62 62 63 63 63 63 62 62 63 64 64 66 66 67 67 66 66 66 66 65 65 64 64 64 64 64 63 62 61 59 56 53 52 51 48 43 46 52 51 51 46 44 50 54 55 52 50 49 52 55 55 53 45 42 42 41 41 42
62 62 61 62 61 61 62 62 63 62 61 61 62 63 64 64 65 66 66 66 66 66 66 65 64 64 64 64 64 64 64 62 60 58 56 56 54 54 52 50 47 41 42 46 45 43 42 43 45 49 51 53 49 49 48 48 43 41 41 41 40 40 40
61 62 62 62 62 62 62 61 61 62 62 61 62 64 64 64 65 65 67 67 67 67 66 66 65 64 64 64 64 64 65 62 61 59 56 55 55 54 52 51 50 49 43 41 42 41 40 40 41 42 45 48 49 48 47 45 41 40 41 41 41 40 40

ECMWFFLT1_sfc_temp_024.txt.gz
Temp
77 76 76 76 76 76 76 76 76 75 75 75 75 75 76 76 76 76 75 75 75 75 74 74 74 74 74 74 74 73 73 72 71 70 69 69 69 68 67 67 68 68 68 68 68 69 70 70 70 71 70 71 70 70 69 70 70 71 70 70 69 69 69
75 76 76 76 76 76 76 77 76 76 76 76 75 75 76 76 76 75 75 75 75 75 75 74 74 74 74 74 74 73 71 71 71 71 70 69 70 68 69 68 68 68 68 68 68 69 70 70 71 70 69 70 71 70 70 70 70 70 70 69 68 68 68
75 75 76 76 76 76 76 76 76 77 76 76 76 76 76 76 76 76 76 75 75 75 75 74 75 74 74 74 73 71 71 70 70 70 69 69 69 68 68 68 68 68 68 68 68 69 70 70 70 69 70 70 70 70 69 69 70 69 69 69 69 69 68
74 75 76 76 76 77 77 77 77 77 78 78 77 77 76 76 77 77 77 76 75 75 74 74 74 74 74 74 73 71 70 70 71 71 70 69 69 68 68 67 68 68 68 68 69 70 70 70 70 69 71 69 69 70 69 69 69 69 69 69 68 68 68
74 76 76 75 76 75 76 76 76 76 77 78 78 77 77 78 78 77 77 77 76 75 76 75 75 75 75 74 73 72 71 70 70 70 70 69 69 68 68 68 68 68 69 69 68 70 70 69 69 69 69 69 69 69 69 69 69 68 68 68 68 68 68
74 74 75 75 76 76 76 77 78 78 78 78 78 77 78 78 78 78 77 77 76 77 76 75 74 75 74 74 73 72 71 70 70 69 69 69 69 68 69 68 68 68 68 69 69 69 69 69 69 69 69 69 69 69 69 69 69 68 68 67 68 68 68
73 74 75 75 76 76 76 77 78 78 79 79 79 79 79 79 78 78 78 77 77 76 75 75 75 75 74 73 72 72 70 70 69 69 69 69 69 69 68 69 69 69 70 69 68 69 68 68 69 69 69 69 69 69 69 68 69 68 68 67 68 67 68
74 75 75 76 77 78 78 77 77 78 78 78 78 78 78 78 78 78 78 78 78 78 77 76 75 74 74 73 72 72 71 70 70 70 69 69 69 69 68 68 69 69 69 69 69 68 69 69 69 69 69 69 69 69 69 68 68 69 68 68 67 68 68
75 76 76 77 78 78 78 77 77 77 77 76 77 77 77 78 78 78 78 78 78 77 77 78 77 75 74 72 71 71 71 70 69 70 69 69 69 70 69 69 69 69 69 69 69 68 69 69 69 69 69 69 69 68 68 68 68 68 68 67 68 68 68
73 73 74 77 78 78 77 76 75 75 75 75 75 76 76 77 77 78 78 79 78 77 77 78 77 75 73 72 72 72 71 70 70 70 70 70 69 69 70 70 69 70 69 69 69 68 69 69 69 69 68 68 68 68 68 68 68 68 67 68 68 68 68
72 73 74 74 74 74 73 73 73 73 74 74 75 76 76 76 77 77 77 78 79 78 78 78 77 74 72 72 72 72 70 70 70 69 69 70 70 70 71 71 71 70 70 69 69 69 68 69 69 68 68 68 68 68 68 68 68 67 67 67 67 68 68
71 72 72 72 71 71 72 72 73 73 73 74 75 76 75 76 77 77 77 78 79 79 77 77 76 74 72 72 72 72 71 70 70 70 70 70 70 70 71 71 70 69 70 69 69 68 69 68 68 68 68 68 68 68 68 68 68 67 68 68 67 67 67
72 72 72 71 71 72 70 70 71 72 73 74 75 75 76 76 76 77 77 77 78 78 77 76 74 73 72 72 73 72 70 70 69 67 68 68 68 69 70 71 71 71 70 70 70 70 69 68 67 68 68 68 68 68 68 68 67 66 67 67 67 66 67
73 70 69 69 69 69 70 71 71 71 72 73 74 75 75 76 77 76 76 77 77 77 77 75 73 72 72 72 71 71 69 67 68 68 68 68 70 70 70 70 70 69 70 70 69 70 70 69 68 68 68 68 68 68 68 67 66 66 66 66 66 66 66
70 71 70 70 69 69 69 70 70 70 71 72 73 73 74 75 75 75 76 76 76 76 76 74 72 72 72 71 71 68 67 68 69 69 70 72 70 69 69 69 69 69 69 69 70 70 70 70 69 68 67 67 67 67 67 66 66 66 66 66 66 66 66
71 71 71 70 69 69 69 70 70 70 71 70 71 72 73 74 74 75 75 75 76 75 74 73 72 71 71 70 69 67 68 69 70 69 69 70 69 69 70 69 69 69 69 68 68 69 69 69 68 68 68 68 67 66 67 67 67 68 67 67 69 67 67
70 71 71 70 69 69 69 69 70 69 69 70 70 71 72 73 73 74 75 74 74 74 74 73 71 71 71 70 68 68 69 69 69 69 69 69 68 69 69 69 69 68 68 68 68 68 68 68 67 68 69 68 69 68 67 68 68 66 64 65 67 69 67
70 69 69 69 69 69 68 68 68 69 70 70 70 71 71 72 72 73 73 74 74 74 73 72 72 71 70 69 68 68 69 69 69 68 67 67 68 68 69 68 68 68 68 69 68 68 68 67 67 68 68 68 69 69 69 68 67 64 64 64 64 66 68
68 69 70 69 69 69 69 70 70 69 69 69 70 71 71 72 72 72 73 73 73 72 71 71 71 71 70 69 68 69 69 69 68 67 67 68 68 69 68 68 68 68 69 69 69 67 66 67 67 67 68 68 68 68 69 68 66 63 63 63 63 63 65
69 70 68 68 69 69 68 67 68 68 69 70 70 73 73 74 74 74 74 74 71 71 70 70 70 70 69 68 69 69 69 67 67 66 66 66 67 67 67 68 68 68 69 68 68 67 67 67 67 67 67 67 67 68 69 68 66 62 62 61 61 61 63
67 68 68 67 66 67 68 68 68 69 69 70 71 71 72 72 74 73 72 71 70 70 70 70 70 69 69 68 68 69 68 66 65 65 66 67 67 67 67 67 68 67 68 68 68 67 67 67 67 67 67 67 67 67 68 69 64 61 60 59 58 59 62
68 68 68 68 68 67 68 69 70 70 70 70 70 71 72 73 72 72 71 71 71 69 70 69 69 68 68 68 68 68 67 66 65 65 67 67 67 67 67 68 68 68 69 68 67 68 68 67 68 68 67 67 67 67 68 70 63 60 59 58 58 59 64
69 69 70 69 71 71 69 70 70 70 68 69 70 70 71 71 71 71 70 69 70 69 69 69 68 68 68 68 68 67 66 66 65 65 66 67 67 67 68 67 67 68 67 66 66 66 66 67 67 67 67 67 67 67 67 68 64 59 57 57 57 60 64
69 69 68 69 65 66 66 66 67 68 69 68 68 69 69 70 70 69 69 68 68 68 68 68 68 68 68 67 68 67 67 66 66 65 66 67 67 67 68 68 68 67 67 67 66 66 67 67 66 66 66 67 67 67 66 67 64 58 55 55 56 61 64
68 67 66 67 69 68 66 67 68 68 68 68 67 67 68 69 69 68 68 68 68 68 68 67 68 68 68 67 68 68 67 66 66 66 67 67 67 68 69 69 67 67 66 67 67 67 67 67 66 65 65 66 67 67 67 66 64 57 55 54 55 59 63
66 68 68 68 67 67 68 69 70 68 67 67 66 66 68 68 68 68 68 68 68 67 67 67 68 69 69 68 68 68 67 68 68 68 68 68 69 69 70 69 67 67 67 66 66 66 67 66 66 65 64 65 66 66 67 65 65 63 55 54 52 54 62
68 68 68 68 69 70 68 67 68 68 67 66 65 66 67 68 68 67 67 67 67 67 67 68 68 68 68 68 68 68 68 68 68 69 69 70 70 69 69 68 67 67 66 66 66 65 65 64 65 65 64 63 64 64 64 65 64 63 56 52 52 53 58
70 69 70 70 70 69 68 67 66 65 65 64 65 66 67 67 67 67 66 66 66 66 68 68 68 68 68 68 68 68 68 68 68 70 70 70 69 67 67 68 68 68 67 66 65 65 64 64 63 63 62 62 62 63 63 64 65 64 58 54 51 51 54
67 67 67 68 68 69 68 65 64 64 63 65 65 66 66 66 66 66 65 65 65 66 67 68 68 68 68 67 67 68 68 68 68 69 70 69 68 67 66 66 66 67 66 65 64 64 64 63 62 62 61 61 61 61 62 61 62 61 62 54 50 49 51
64 64 65 66 67 66 67 64 63 63 64 64 65 65 65 66 66 65 65 64 65 66 67 67 67 67 67 67 67 67 68 68 68 69 69 68 67 67 66 65 65 65 65 64 64 63 62 61 61 60 61 61 61 61 60 60 59 59 60 58 51 49 49
62 63 63 64 65 66 66 65 63 63 63 64 64 64 64 65 65 66 64 64 65 66 67 67 67 66 66 66 67 67 67 67 67 67 68 68 67 66 66 66 65 64 63 63 63 62 62 60 61 61 61 61 61 60 59 59 60 61 61 58 54 50 48
65 64 64 64 64 65 65 64 64 63 63 63 64 64 65 64 66 66 64 65 66 66 66 67 66 66 66 66 67 67 67 67 67 67 67 67 66 66 65 66 65 65 63 62 62 62 62 60 60 61 61 60 60 59 58 58 59 58 58 58 55 52 50
63 62 62 62 63 65 64 64 63 63 64 64 63 64 64 64 65 65 64 65 66 66 66 66 66 66 66 66 66 66 67 67 66 66 66 66 65 66 66 66 65 64 63 62 62 61 61 61 61 60 60 61 59 59 59 58 57 56 56 56 56 57 56
63 62 61 61 63 64 63 64 63 64 64 64 63 64 64 64 65 65 65 67 68 67 66 66 66 66 65 65 66 66 66 66 69 67 65 65 65 64 63 63 63 63 62 62 62 61 60 61 62 61 61 60 58 58 58 57 55 56 57 56 56 56 54
61 62 61 63 63 64 63 63 64 64 64 64 63 63 63 64 65 66 65 66 66 65 65 64 66 65 64 64 64 64 67 66 68 66 64 59 55 52 52 55 58 60 56 53 55 60 63 63 61 62 61 62 59 59 58 58 57 59 53 55 52 53 55
61 61 61 62 63 62 63 64 64 64 64 62 63 63 63 64 65 66 68 67 67 66 65 65 65 65 65 65 66 67 67 66 65 63 61 59 55 53 51 48 43 47 55 55 51 47 45 51 60 61 60 58 55 56 59 60 59 47 44 43 42 42 43
63 63 63 63 63 63 63 63 64 63 63 62 62 63 64 64 65 66 67 67 67 66 66 66 66 65 66 66 66 66 65 63 62 61 59 58 56 55 53 51 48 41 41 45 46 43 42 43 45 48 52 57 55 51 48 48 43 41 41 40 41 40 40
63 62 62 63 62 62 62 63 63 63 63 62 62 64 64 65 65 66 68 67 67 67 67 66 65 65 64 65 65 65 65 63 62 60 58 57 57 56 55 54 52 50 42 40 41 42 41 41 42 43 45 47 50 51 51 44 40 40 41 41 40 40 39

ECMWFFLT1_sfc_temp_027.txt.gz
Temp
87 86 85 85 84 84 84 83 83 83 82 82 82 82 83 83 82 82 82 81 80 81 81 81 81 81 81 81 81 82 82 82 81 81 80 80 81 79 79 79 79 79 80 79 79 79 80 81 80 80 80 80 80 80 80 80 80 80 79 79 79 78 78
85 85 86 86 85 84 84 84 83 83 83 83 82 82 83 82 82 82 82 81 81 81 81 81 81 81 81 81 82 81 81 81 81 81 81 80 80 79 80 78 79 78 79 79 80 80 80 80 80 80 80 80 80 80 80 80 79 79 79 79 78 78 78
85 85 86 85 85 85 83 84 84 84 83 84 84 83 83 82 82 82 82 82 81 81 82 81 81 81 81 81 81 81 81 81 80 80 80 80 79 80 79 79 79 79 79 79 79 79 80 80 80 80 80 80 80 80 80 80 79 79 79 79 78 78 77
83 85 85 85 84 84 84 85 84 85 85 85 85 84 83 82 83 83 83 83 81 81 81 81 81 81 81 81 81 81 80 80 80 80 80 80 79 79 78 78 78 79 78 79 80 80 79 80 79 79 79 80 79 80 80 79 80 79 79 78 78 78 78
84 85 85 84 85 84 84 84 84 84 85 87 85 84 84 83 84 84 83 84 84 82 82 83 83 82 82 82 82 81 81 81 80 80 80 80 80 79 78 78 78 79 79 79 79 78 78 79 79 79 79 79 79 79 79 79 79 79 78 78 77 78 78
84 83 83 84 85 85 85 85 86 87 86 86 85 84 85 86 86 86 85 83 83 84 83 83 82 81 81 82 82 81 81 81 80 79 79 79 78 78 78 78 79 79 79 78 79 79 79 79 79 79 79 80 80 79 79 79 79 79 78 78 77 78 78
83 83 83 84 84 85 85 86 87 88 87 87 87 86 87 87 86 86 86 85 84 82 83 83 83 82 82 82 81 81 79 79 79 79 79 79 78 78 78 78 78 79 80 79 78 79 78 78 78 78 78 78 78 78 78 78 78 78 78 77 77 77 77
84 83 83 84 86 87 87 86 86 87 87 86 86 87 87 87 87 87 86 87 86 86 85 85 83 82 81 81 82 81 80 78 78 78 78 78 78 78 78 78 77 77 78 77 77 78 78 77 77 77 77 77 77 77 78 77 77 79 78 77 77 77 78
85 84 84 86 87 88 87 86 85 85 84 83 84 84 85 85 86 86 86 86 86 85 85 87 85 84 82 81 81 79 78 77 77 78 77 77 77 78 78 78 76 76 76 77 77 76 76 76 76 75 76 76 77 77 77 77 78 78 78 77 77 77 78
83 82 82 85 87 87 86 85 84 83 82 82 82 83 84 84 84 85 86 87 87 86 86 86 86 85 82 82 80 79 78 77 77 77 77 77 78 79 80 80 78 76 75 75 76 74 74 75 75 75 74 75 76 76 76 76 77 78 78 77 77 77 77
82 81 81 83 83 84 84 84 82 81 81 81 81 83 83 83 83 85 85 86 87 87 87 86 86 84 82 83 82 79 78 77 76 76 76 78 80 81 81 81 80 77 76 75 74 74 73 72 74 74 74 74 75 75 75 76 76 77 77 77 77 77 76
80 80 79 81 81 82 82 81 81 81 81 81 82 83 82 82 83 84 84 85 87 87 86 86 86 84 82 83 80 79 78 76 77 77 77 78 80 80 80 79 77 77 77 76 74 74 74 72 73 74 74 75 75 75 75 75 75 76 77 78 77 75 75
80 80 79 81 80 81 80 80 79 80 80 82 83 83 83 83 83 84 83 84 86 86 86 85 84 82 82 82 81 78 78 76 76 77 77 77 77 78 77 78 78 76 74 74 76 76 75 73 73 74 75 75 74 73 72 73 74 74 75 75 75 74 74
79 80 80 80 80 79 79 79 79 79 80 81 82 82 83 84 84 83 83 83 85 86 86 85 83 81 81 80 79 78 77 76 76 76 75 76 77 76 74 74 74 73 73 73 74 76 75 75 74 74 75 74 74 73 72 72 73 73 73 74 74 74 74
80 80 80 79 78 79 79 78 78 79 80 81 82 82 82 83 83 83 83 84 84 86 85 84 82 81 81 79 78 77 77 76 77 76 75 75 74 73 73 74 72 72 72 72 73 73 74 75 75 73 73 73 72 72 71 71 72 73 73 73 73 74 74
81 81 81 80 79 79 79 79 79 79 80 80 81 81 82 82 81 82 83 83 84 83 84 83 81 81 80 80 78 78 77 76 77 76 75 75 75 74 74 73 71 70 70 70 70 72 73 73 73 75 74 74 73 73 73 72 73 71 67 69 74 75 75
80 81 82 81 79 79 79 79 80 79 79 79 80 80 81 81 82 82 84 83 83 82 83 83 81 80 80 80 79 78 76 76 75 75 74 76 74 72 71 69 69 69 69 69 70 71 72 72 72 72 72 71 71 72 73 73 73 67 64 65 67 74 76
80 80 81 81 80 79 78 79 79 79 79 80 80 80 81 80 81 82 82 83 82 83 84 82 81 80 79 80 79 78 76 76 75 74 74 74 71 69 69 69 69 69 69 70 70 71 72 71 70 70 70 71 72 73 74 75 70 65 64 64 64 68 75
81 81 81 79 78 78 79 81 81 79 80 81 81 80 81 82 82 80 81 81 82 82 82 81 81 79 79 79 79 77 76 75 75 74 73 72 71 70 69 70 70 70 70 71 72 72 70 70 70 71 71 72 73 74 76 76 69 64 63 63 63 63 69
82 82 81 81 81 80 80 81 81 81 82 80 81 82 83 82 82 82 82 82 82 81 80 80 80 79 78 79 78 77 75 75 74 73 71 71 71 71 71 71 70 70 71 71 71 72 72 72 71 71 71 72 73 74 76 76 70 64 62 62 62 62 65
79 80 81 80 79 81 79 79 79 79 79 80 81 82 82 82 83 82 82 82 80 80 79 79 79 79 78 78 77 76 75 74 73 72 72 72 72 72 72 71 70 70 70 71 72 72 71 72 72 72 72 73 74 74 75 77 67 63 62 60 60 60 65
82 83 81 81 79 78 78 80 79 80 80 82 81 83 83 82 83 82 80 81 80 79 79 78 78 78 78 78 76 75 75 74 72 72 72 72 72 71 71 71 71 70 71 72 74 74 73 73 74 74 73 74 75 75 75 78 66 63 61 59 59 60 70
84 82 81 80 82 80 80 82 82 83 81 80 81 81 82 83 83 81 80 80 81 78 78 77 77 77 77 77 76 75 76 74 73 72 72 72 71 71 71 70 71 72 73 73 74 75 75 74 75 74 75 74 74 74 75 77 69 61 59 58 58 62 73
84 84 83 82 80 81 80 80 80 80 81 80 80 81 82 82 81 80 78 78 77 77 77 77 77 77 77 77 77 76 75 74 74 72 71 70 70 71 71 71 73 74 74 74 75 75 76 76 75 75 75 75 75 78 76 77 71 60 56 56 57 64 73
82 82 80 80 81 79 78 78 79 79 79 80 79 79 80 80 79 78 77 77 78 79 78 77 77 77 76 77 77 76 75 74 73 73 72 69 70 71 71 72 73 75 75 76 76 76 76 76 75 75 75 77 77 71 75 78 71 56 57 55 56 62 71
77 78 78 79 80 79 78 77 78 79 80 80 78 78 79 80 79 78 77 78 78 77 77 77 77 78 77 78 77 76 75 74 73 73 72 70 71 72 72 74 75 75 75 75 76 76 77 76 76 75 75 77 76 76 76 75 76 67 54 54 54 58 70
79 80 80 81 78 77 78 79 80 79 79 77 76 78 79 79 78 76 76 76 76 76 77 78 78 77 76 77 76 76 75 75 74 73 72 72 73 74 74 75 75 75 75 75 75 75 74 74 75 75 74 75 76 75 74 75 74 68 53 53 53 55 61
79 79 80 79 77 78 78 78 76 76 76 75 76 77 78 78 76 75 75 75 75 77 78 77 77 76 76 75 75 76 75 74 73 73 72 72 73 73 73 75 76 75 75 75 73 73 73 74 73 73 74 73 72 71 69 68 67 71 58 53 52 52 55
76 77 78 78 78 79 80 77 74 73 73 75 75 75 76 77 75 74 74 74 75 76 76 77 76 76 76 75 75 75 74 73 72 71 71 71 73 73 73 74 74 74 74 73 73 73 73 72 73 71 67 66 66 65 65 67 69 63 67 54 51 50 52
75 75 75 77 78 79 79 75 74 73 73 74 74 74 75 76 75 74 74 74 75 75 75 76 75 76 75 74 74 74 74 74 73 72 72 73 73 73 73 73 74 73 73 73 73 72 72 71 68 65 64 63 63 65 67 67 68 63 62 60 51 49 50
75 76 76 76 77 77 78 78 74 74 72 72 72 73 74 75 76 74 74 74 74 74 75 74 75 74 74 74 74 74 74 74 73 72 73 74 74 73 73 73 73 71 72 72 72 72 71 67 65 65 65 66 65 67 68 69 67 69 63 58 54 51 49
75 76 76 75 74 74 75 75 74 74 72 71 72 72 73 74 75 74 74 74 74 75 75 74 74 73 73 74 74 74 74 73 73 73 74 74 75 74 73 73 72 72 72 72 73 72 70 67 66 67 67 67 67 67 68 68 68 68 63 59 56 54 51
72 72 72 71 71 73 75 75 75 73 73 71 70 72 73 73 74 74 73 73 75 75 75 74 74 73 73 73 73 73 74 72 71 71 72 73 73 74 74 74 74 73 71 71 71 70 69 69 67 65 65 66 67 68 68 67 66 65 64 64 64 64 59
71 70 69 69 70 71 72 73 74 72 72 72 71 71 73 73 73 73 74 76 77 78 75 73 73 73 73 73 73 72 72 71 71 71 73 73 74 74 74 74 74 73 72 72 71 69 69 70 65 63 65 66 68 68 67 64 64 65 68 68 69 68 68
72 71 72 72 71 72 72 72 72 71 71 71 71 71 71 72 73 73 73 75 76 75 73 72 72 73 73 73 72 71 72 72 72 73 73 73 70 64 61 65 71 74 73 69 71 72 71 65 65 68 72 73 71 69 67 68 66 68 62 66 59 65 70
71 71 71 71 72 72 71 71 71 71 71 71 71 71 71 71 72 73 76 75 75 74 72 72 72 73 73 73 73 74 73 72 74 73 72 70 65 61 56 49 42 48 63 67 54 49 48 55 68 74 77 76 72 69 70 72 71 51 46 44 45 44 45
71 72 72 72 73 72 72 71 70 70 71 71 71 71 71 71 72 73 75 74 74 73 72 72 71 72 75 74 74 73 72 71 72 69 66 65 63 63 61 59 53 42 40 44 47 45 42 45 47 52 59 68 66 56 46 48 45 43 43 41 42 42 41
72 72 73 73 73 72 72 72 71 71 70 71 71 72 72 73 73 72 75 75 74 73 72 72 72 72 73 74 73 69 68 66 66 66 65 65 66 64 63 62 59 56 44 39 41 43 41 41 43 45 48 52 55 56 57 46 41 41 41 41 40 41 40

ECMWFFLT1_sfc_temp_030.txt.gz
Temp
97 96 94 94 93 93 93 92 91 91 91 90 90 91 91 91 90 90 89 87 86 86 87 87 87 87 87 87 87 88 88 88 88 87 87 87 88 87 86 87 86 85 86 85 85 85 85 86 86 86 85 85 84 84 84 84 84 84 84 83 83 83 82
96 96 96 95 94 94 93 92 92 92 91 91 90 90 91 90 89 89 88 88 87 87 87 87 86 87 87 87 88 88 87 87 88 88 88 88 88 87 88 86 86 85 85 86 86 86 86 86 86 85 85 85 84 84 84 84 84 84 84 83 82 82 82
96 96 96 95 94 94 92 93 92 92 92 93 92 92 91 89 89 88 88 88 87 87 88 87 87 87 88 87 87 87 87 88 87 87 87 88 88 88 88 87 87 87 87 86 86 86 86 86 85 85 85 84 85 84 84 84 83 83 83 83 83 82 81
94 95 96 95 94 93 94 93 93 94 95 94 93 93 91 89 90 89 89 89 87 87 86 87 87 88 88 87 87 87 87 87 88 88 88 88 88 87 87 86 86 87 87 87 87 87 87 86 85 84 84 84 84 84 84 84 84 83 83 82 82 82 82
95 96 96 95 95 93 93 94 93 92 95 96 94 92 91 91 91 91 90 90 90 88 88 88 90 89 88 88 88 88 88 87 87 88 88 88 88 87 86 87 87 87 87 87 86 85 85 85 85 84 84 83 84 84 83 83 83 83 83 83 81 82 82
95 94 94 95 95 95 94 95 96 96 96 96 94 93 93 94 94 94 92 90 90 90 89 89 88 88 87 88 88 88 88 88 88 87 87 88 87 86 86 86 87 87 87 86 87 85 85 84 85 84 84 84 83 82 82 83 83 83 83 82 82 82 83
95 94 94 94 95 95 95 96 97 97 97 97 96 95 96 96 95 95 95 92 92 89 90 90 89 89 88 88 88 87 87 87 87 87 88 87 87 86 86 86 86 87 87 85 84 84 84 83 83 84 83 83 82 81 81 81 82 82 82 82 81 81 81
96 94 94 95 97 98 98 96 96 98 97 96 96 96 96 96 96 96 95 95 94 94 93 93 90 88 88 88 88 88 88 88 88 88 87 87 86 85 86 86 85 86 86 85 84 84 84 82 83 83 82 82 81 80 80 81 80 82 82 81 80 81 82
97 95 95 97 97 99 99 96 96 95 93 93 93 93 94 94 96 95 95 95 94 93 93 95 93 91 88 88 88 87 88 88 88 87 86 86 86 88 88 87 86 85 84 85 85 83 83 83 83 81 81 79 78 78 79 80 81 81 82 81 80 80 81
95 93 93 96 97 99 97 96 94 92 91 90 90 91 92 93 93 94 95 96 96 95 94 94 94 93 89 88 88 88 87 87 87 87 87 87 87 87 88 88 86 85 85 85 86 83 82 82 82 80 79 78 77 77 77 78 80 80 81 80 80 80 80
94 92 91 93 93 94 95 94 91 89 89 88 89 91 90 91 92 94 93 95 97 96 96 94 94 93 90 89 90 89 87 87 88 87 86 86 87 87 89 90 89 87 86 86 86 84 82 80 80 79 78 78 78 77 77 78 79 80 81 82 82 82 82
90 89 88 90 91 92 92 90 89 88 88 88 89 90 89 89 91 93 93 94 97 97 95 94 95 94 91 91 89 88 87 87 87 87 86 85 86 87 89 90 88 87 87 86 86 84 84 81 81 79 78 78 78 78 78 78 79 80 80 81 82 82 81
90 89 88 90 89 90 90 88 87 87 87 88 90 90 90 90 91 92 91 92 95 95 95 93 92 91 90 91 91 88 88 87 86 86 87 85 85 87 88 90 89 88 87 87 86 85 84 83 80 79 78 78 79 78 78 78 79 80 79 80 80 79 78
88 90 89 89 89 88 87 87 87 86 87 88 89 89 90 91 91 90 90 90 93 95 95 94 91 89 89 89 88 88 87 87 86 85 86 85 85 85 87 88 87 86 86 86 85 85 83 81 79 79 78 78 79 79 79 79 78 79 79 79 78 78 78
91 91 90 89 87 87 87 87 86 86 87 88 89 88 89 90 90 90 90 91 91 95 93 92 89 88 88 87 87 87 87 86 85 85 85 84 84 84 85 86 86 85 84 84 85 84 83 82 81 78 77 78 79 79 80 79 78 78 78 77 77 78 79
94 93 92 90 88 88 87 87 87 86 87 87 88 88 89 89 88 89 89 90 92 90 91 90 88 87 87 86 86 87 87 86 84 83 83 82 83 83 84 84 83 83 82 82 83 83 82 81 81 81 78 77 78 79 79 78 77 74 70 72 78 79 80
93 93 93 91 89 89 88 88 87 87 86 86 87 87 88 88 88 89 91 90 89 89 90 91 87 87 87 86 87 87 85 84 83 82 81 81 82 82 82 82 82 82 80 79 79 81 80 81 81 82 81 79 78 77 77 76 76 69 66 66 67 74 78
93 92 93 92 91 89 88 88 87 86 87 88 88 88 88 87 88 88 89 90 89 90 91 90 88 87 86 87 87 87 85 83 82 81 81 81 81 82 81 81 81 80 80 79 79 79 81 80 80 80 81 80 80 79 78 76 71 65 65 65 65 67 76
94 93 92 91 90 88 89 90 89 87 88 89 89 88 89 89 89 87 88 88 89 89 89 89 89 87 86 87 86 86 85 83 81 80 80 81 81 82 81 81 80 80 80 79 80 80 79 79 79 79 79 79 78 77 77 77 68 64 64 64 64 64 69
93 94 94 93 92 90 89 89 90 89 90 89 89 90 92 90 89 89 89 89 89 88 87 87 88 87 86 86 86 86 84 82 81 80 80 80 80 80 80 80 79 80 81 80 79 79 79 79 78 78 78 77 76 76 78 79 69 63 63 63 62 63 66
90 91 91 91 90 91 88 88 88 88 88 89 90 90 91 90 90 89 88 88 87 87 87 87 87 86 86 85 86 85 83 82 80 80 79 79 79 79 79 79 79 79 80 80 78 78 77 76 76 77 76 76 77 78 80 81 66 62 62 61 61 62 66
92 92 91 91 88 88 87 89 88 89 88 89 89 91 91 90 91 89 87 88 88 87 87 86 86 85 85 85 85 85 83 82 80 80 80 79 79 78 78 79 79 78 78 79 79 77 73 74 77 76 75 76 79 80 79 84 65 62 61 61 60 61 72
96 93 93 92 93 90 88 89 89 90 88 88 90 90 91 92 91 88 88 87 89 87 86 85 85 85 84 84 85 84 83 81 80 79 79 79 78 78 78 78 77 77 76 75 76 75 75 76 78 77 77 78 79 79 79 83 69 61 61 60 59 63 75
98 96 95 94 91 89 88 89 90 89 90 89 90 91 91 92 89 87 86 86 86 86 85 85 85 85 84 84 85 84 83 81 80 79 79 78 78 78 79 80 79 76 73 73 73 73 75 76 78 78 79 80 81 83 81 83 73 60 60 59 58 66 76
96 95 92 91 91 89 90 88 89 89 89 88 88 90 90 89 87 86 85 86 88 87 86 85 85 85 85 84 85 85 83 82 81 80 79 78 78 79 79 79 77 75 73 74 74 74 74 78 78 79 80 82 83 78 81 84 77 59 59 57 57 65 77
91 91 91 91 92 90 87 87 86 87 87 87 86 88 88 88 87 85 86 88 88 86 86 85 85 86 86 86 85 85 82 82 80 80 79 79 79 79 80 79 77 75 74 73 74 75 76 79 80 79 80 83 83 83 82 82 82 71 56 56 55 60 75
89 90 90 92 89 84 86 87 88 88 88 86 86 89 89 88 87 84 85 85 85 85 86 86 86 85 85 85 85 85 83 82 81 80 80 80 80 80 80 78 74 73 73 72 73 75 77 79 81 81 80 82 83 84 82 83 82 72 54 55 54 57 64
91 92 92 88 85 87 89 90 87 87 87 86 88 88 88 86 84 84 84 84 84 85 87 86 85 84 84 83 84 85 83 81 80 80 80 79 79 78 76 75 74 73 73 74 74 75 77 78 79 80 80 81 82 81 80 79 72 78 57 55 53 55 58
86 86 86 86 86 88 88 86 86 86 85 87 87 87 86 85 83 83 83 83 83 85 85 84 84 83 83 82 83 82 82 81 79 78 79 79 79 76 74 73 73 73 73 74 75 76 77 77 78 78 77 77 78 77 77 76 74 66 70 55 53 52 55
87 87 89 91 90 87 87 83 82 82 83 84 84 85 85 84 82 82 83 81 83 83 83 83 83 83 82 82 82 81 81 80 79 78 78 78 77 76 73 73 74 73 74 75 76 76 75 76 77 76 76 76 75 76 77 76 77 68 65 60 52 50 51
87 87 87 86 87 86 85 83 81 81 81 82 81 82 84 85 83 82 81 80 82 82 82 81 81 81 81 81 81 80 80 79 78 78 77 77 77 75 73 73 74 73 75 75 76 76 76 76 76 74 73 74 75 74 74 75 75 72 61 58 55 51 49
84 85 85 84 84 84 84 83 82 81 79 79 81 81 82 84 84 81 80 81 81 82 81 80 80 80 80 79 78 79 79 78 78 77 77 77 78 76 75 74 74 74 74 75 76 76 76 76 75 74 74 74 75 73 71 71 70 67 62 61 58 56 51
78 79 80 80 82 83 84 83 83 82 80 78 81 83 84 83 83 81 81 80 82 82 80 80 80 79 79 78 78 78 78 76 76 76 76 76 77 77 76 75 75 75 74 76 77 76 76 76 74 73 74 72 70 71 72 69 66 66 65 66 65 67 61
79 79 80 80 80 79 80 80 79 78 77 76 78 80 81 82 82 81 82 84 86 84 81 80 80 80 79 79 78 77 77 77 75 75 76 76 75 76 76 76 77 77 77 77 77 76 75 77 74 72 72 71 72 70 70 68 67 69 71 70 73 74 72
79 79 80 79 79 80 80 79 78 76 76 77 79 80 80 80 81 81 81 83 83 82 80 79 78 79 79 79 79 77 77 76 76 75 75 75 73 65 60 62 69 74 79 75 74 76 79 77 75 74 75 75 69 67 66 68 68 73 65 68 58 69 78
79 80 80 81 81 80 80 80 80 79 78 78 79 80 79 79 80 82 84 83 82 81 79 79 79 79 79 79 79 80 78 77 78 76 75 75 68 65 60 50 43 46 62 67 56 51 52 59 74 76 76 70 69 69 68 68 72 54 46 47 46 41 43
80 80 81 81 81 80 79 79 79 79 78 78 79 79 79 79 81 81 83 81 81 81 79 79 78 80 81 79 80 78 77 77 77 76 74 74 71 68 65 65 57 44 41 45 49 46 45 48 48 51 61 69 65 56 49 52 48 45 45 42 41 40 41
81 82 82 82 81 79 79 79 79 79 78 79 80 79 80 81 80 79 83 81 81 81 79 79 78 78 80 80 79 76 76 76 74 71 69 70 70 67 63 60 59 55 45 40 42 44 42 42 44 45 48 55 60 62 63 50 44 44 44 42 41 42 40

ECMWFFLT1_sfc_temp_033.txt.gz
Temp
97 97 97 99 98 98 97 96 95 95 94 93 93 94 94 94 93 92 91 90 89 88 89 89 89 90 89 89 90 90 90 90 89 89 88 89 89 89 88 89 88 88 89 88 87 87 87 88 88 88 87 86 86 85 85 85 85 86 85 84 84 84 84
98 98 99 98 98 98 97 96 95 96 95 94 94 93 94 93 93 93 92 91 90 89 89 89 89 89 90 90 90 90 89 90 90 89 89 89 89 89 90 88 88 88 88 88 89 88 88 88 88 87 86 86 86 85 85 85 84 85 85 84 83 82 83
99 97 99 99 99 98 96 97 96 96 95 96 96 95 94 92 92 92 92 91 90 90 90 90 89 90 90 90 90 90 90 90 90 90 89 89 89 91 90 89 88 89 89 89 89 89 89 87 87 87 86 85 86 85 85 85 84 85 85 84 83 81 82
100 100 100 99 99 97 98 97 96 97 98 98 96 96 94 92 93 93 93 92 90 90 89 90 90 90 90 90 90 89 90 90 90 90 90 91 90 90 89 89 88 89 88 88 89 90 89 87 87 86 86 85 85 85 85 85 85 85 84 84 82 82 82
100 100 98 99 100 98 97 97 97 96 98 99 97 94 94 94 95 94 94 93 93 91 91 91 92 91 91 91 91 91 90 90 90 91 91 91 91 90 89 90 89 89 89 89 88 88 87 86 87 86 85 85 85 85 84 84 84 84 83 83 81 82 82
99 98 97 100 100 100 99 99 99 100 99 99 97 96 97 97 97 97 96 93 93 93 92 92 91 91 90 91 91 91 91 90 90 90 90 90 90 90 89 89 90 89 90 88 89 88 87 86 86 86 85 86 85 84 83 82 83 83 82 81 80 80 81
99 98 98 100 100 100 99 100 101 101 100 100 100 98 99 99 98 98 98 96 95 92 93 93 92 92 90 91 90 90 90 90 90 90 91 91 91 90 89 89 89 90 90 89 88 88 87 86 86 85 85 85 84 83 81 81 81 81 80 79 78 78 80
102 101 99 100 102 103 102 100 100 101 100 100 101 100 100 99 99 99 98 98 97 97 96 96 93 91 90 91 91 91 91 91 91 91 91 90 90 89 89 89 89 89 89 89 88 88 87 86 86 86 85 86 84 83 82 80 81 82 82 80 79 78 80
104 101 100 102 102 104 103 100 100 100 98 98 98 97 98 99 99 99 99 98 97 97 96 98 96 94 91 91 90 90 91 91 91 91 90 90 90 92 92 91 90 90 89 89 89 87 87 86 86 84 84 84 83 82 82 82 82 82 81 80 79 78 80
100 98 98 102 102 104 102 101 99 97 96 95 95 95 96 97 98 99 99 100 100 98 97 98 97 96 92 91 91 91 91 90 91 91 92 92 91 91 93 93 91 90 89 89 90 87 86 86 85 84 83 83 82 81 81 81 80 80 81 80 80 79 79
102 99 97 99 99 100 100 101 97 94 94 93 94 97 95 96 97 99 98 100 100 99 99 98 98 96 93 93 93 92 90 91 92 91 91 91 93 93 94 95 94 91 90 90 89 87 87 85 85 83 83 82 81 81 80 80 80 79 79 80 81 80 80
97 97 95 96 97 98 98 96 95 94 94 92 95 96 94 94 97 98 97 98 101 100 98 98 99 97 94 94 93 91 91 91 92 91 91 91 93 93 94 95 93 92 91 90 90 88 88 85 85 83 81 81 81 81 80 80 79 79 79 80 80 79 80
97 95 94 96 95 96 95 94 93 93 93 94 96 95 95 96 96 97 95 96 100 100 99 97 96 94 93 94 94 91 91 91 91 91 91 90 91 92 94 95 95 94 92 91 91 90 88 87 85 83 82 81 81 81 81 80 80 79 79 78 78 79 79
93 95 95 94 94 94 93 93 93 92 92 93 94 94 95 96 96 96 95 96 98 101 100 99 95 93 92 92 92 90 91 91 91 91 90 90 90 91 92 92 92 91 91 91 90 91 89 87 85 84 83 81 81 81 81 80 80 80 78 78 78 79 80
97 97 95 94 92 92 92 93 91 91 92 92 93 93 93 94 94 94 95 96 96 100 99 96 93 93 93 91 91 90 90 90 91 90 90 90 89 89 90 90 90 90 90 89 90 90 90 88 86 83 80 80 80 80 81 81 80 80 79 78 78 80 80
98 98 96 95 93 93 92 92 91 90 90 90 92 91 93 92 92 94 94 95 97 96 96 95 93 92 91 91 90 91 90 90 90 89 89 89 88 87 88 89 89 90 89 89 89 89 87 86 85 84 80 78 79 80 81 81 81 76 72 74 78 79 80
101 101 102 98 93 93 93 92 91 90 90 90 90 91 91 91 92 93 96 94 94 94 95 96 92 91 91 90 91 90 90 89 89 88 88 87 88 87 87 87 88 88 87 87 87 87 86 85 84 84 82 81 79 78 81 81 80 69 67 68 72 78 79
100 100 101 100 97 94 93 92 91 90 90 91 92 91 91 91 92 92 93 93 94 95 96 94 92 91 90 91 90 90 89 89 88 88 87 87 86 86 86 87 86 86 85 85 86 86 87 85 82 82 82 81 80 81 81 81 73 66 66 67 68 73 79
100 101 101 99 96 93 94 95 94 91 92 92 92 92 93 93 93 91 92 92 92 93 94 93 93 90 90 90 89 89 89 88 88 87 86 85 86 86 85 85 85 85 84 84 85 86 83 81 81 81 81 82 81 81 81 82 68 65 65 66 65 67 74
102 102 103 104 100 98 95 95 95 94 94 92 93 94 95 94 92 92 93 93 92 92 91 91 91 90 89 89 89 89 88 88 88 87 86 85 85 85 84 84 83 84 84 82 82 82 81 82 80 81 81 81 81 80 81 81 66 64 63 64 63 64 68
99 99 100 100 98 99 96 94 94 93 92 93 94 94 95 93 94 92 92 92 91 91 90 91 90 89 89 88 89 89 88 88 87 86 86 84 84 83 83 83 82 82 82 82 81 80 80 81 80 81 81 82 81 81 81 80 63 62 61 61 61 62 66
102 103 102 101 97 96 94 95 94 94 92 94 94 95 95 94 95 92 91 92 91 91 90 90 89 88 88 88 88 88 88 87 86 85 84 84 83 83 82 83 82 81 82 81 81 81 81 81 82 81 81 81 81 82 79 80 60 61 60 60 61 61 73
104 103 105 101 102 99 95 95 95 95 93 93 94 94 95 95 94 92 91 91 92 90 90 89 88 88 88 88 88 88 88 88 87 85 84 84 83 82 82 82 81 81 82 81 81 80 80 82 83 80 81 80 79 79 77 78 64 60 59 60 60 64 77
106 106 106 104 100 98 94 95 95 94 95 93 93 95 95 95 92 90 89 89 89 89 89 89 88 89 88 88 89 88 88 87 86 85 84 84 83 82 82 83 82 82 82 80 80 80 82 83 82 80 80 80 78 80 77 80 67 59 59 59 58 67 78
105 106 104 102 99 97 95 93 94 94 93 92 93 94 94 93 91 89 88 89 91 91 90 89 89 89 88 88 88 88 88 88 86 85 84 83 83 83 82 82 81 82 80 80 80 81 81 81 80 79 79 80 80 73 78 81 70 56 59 59 57 68 78
100 102 102 100 100 97 93 92 92 91 92 92 92 93 93 93 91 88 89 91 92 90 89 89 89 90 89 89 88 88 88 88 86 84 84 83 83 83 83 83 82 80 79 79 79 78 78 78 77 75 76 80 75 74 79 80 78 66 59 58 56 61 77
100 102 100 100 97 91 92 92 91 91 92 92 92 94 94 92 90 88 89 89 89 88 89 90 90 89 88 88 88 88 88 88 86 85 85 84 83 83 83 82 81 79 77 79 79 76 74 74 75 73 75 78 79 80 80 81 81 74 58 56 56 58 66
100 100 99 96 90 90 91 93 91 92 94 92 93 94 93 90 87 87 88 88 88 89 91 90 89 88 88 87 87 88 88 87 85 85 84 84 83 82 81 81 80 79 79 80 78 73 72 72 73 73 75 78 80 80 81 81 79 77 58 56 54 56 58
94 94 95 92 90 92 92 91 91 92 90 92 93 91 90 89 87 87 87 87 87 89 89 88 88 87 87 86 87 86 86 85 85 84 84 83 83 81 80 79 79 78 77 77 75 73 71 71 72 74 77 78 77 78 79 79 74 68 67 54 54 52 55
93 93 90 93 93 92 94 90 89 88 90 91 90 90 89 87 85 86 85 85 87 87 87 87 86 85 85 85 86 86 86 85 85 83 83 82 81 79 79 77 77 76 75 74 73 72 72 72 73 74 75 75 77 79 80 77 77 68 66 61 54 52 52
91 90 91 91 92 91 90 89 87 87 87 88 87 88 88 88 86 84 83 84 86 85 85 85 84 84 84 84 85 85 85 85 83 82 82 82 80 78 77 77 76 74 74 73 73 73 73 73 74 74 75 76 77 75 75 77 76 73 63 58 55 52 50
90 90 90 89 87 86 86 86 85 85 84 85 87 87 87 87 86 82 82 85 84 85 84 83 82 82 83 84 84 84 84 83 83 82 81 80 80 78 77 76 75 74 74 74 75 75 74 73 74 74 75 75 75 75 76 76 74 70 66 61 59 57 53
87 87 86 84 85 85 85 86 85 85 84 84 86 88 88 86 86 84 84 84 86 85 83 83 82 82 82 82 83 83 83 82 82 81 80 79 79 78 77 76 75 74 74 75 76 75 75 74 74 73 76 75 75 76 75 75 73 70 68 69 67 68 62
81 85 86 87 86 86 86 85 84 83 83 83 85 86 86 85 85 84 86 88 89 86 83 81 82 82 82 82 83 83 82 81 80 79 79 78 78 78 77 76 76 76 76 77 77 76 76 77 75 76 77 77 76 75 73 74 74 72 70 69 67 65 64
81 82 83 82 82 82 82 82 81 81 81 81 83 83 83 83 85 86 87 87 85 82 81 79 79 81 82 82 83 82 81 81 80 80 80 75 65 61 60 63 72 75 78 73 73 75 80 79 79 79 81 81 76 74 73 74 73 74 65 70 62 67 69
83 83 83 84 84 83 82 82 82 81 80 81 82 82 82 82 82 84 87 85 84 83 81 80 81 83 84 84 84 85 82 81 81 79 77 72 68 64 60 50 44 51 71 75 59 50 47 61 79 83 84 80 78 77 75 75 74 56 50 46 44 45 47
84 84 84 84 83 82 82 82 81 81 81 81 82 82 83 83 85 85 87 86 85 85 83 82 81 83 86 84 87 85 83 81 81 79 77 72 69 68 67 67 60 45 41 47 48 46 44 45 55 61 66 75 75 62 50 53 48 46 46 44 44 44 45
85 85 84 85 83 82 81 81 81 81 80 82 83 84 84 86 86 85 87 85 86 85 83 83 82 83 86 86 86 78 81 82 80 78 74 70 69 67 65 63 63 61 47 41 44 45 43 43 44 47 50 55 62 64 61 50 47 45 44 44 43 43 42

ECMWFFLT1_sfc_temp_036.txt.gz
Temp
97 96 95 94 93 93 92 91 91 91 91 91 90 91 92 91 89 89 88 87 86 85 86 86 86 86 86 86 86 86 86 86 86 85 85 85 86 85 85 85 85 84 84 83 83 83 83 85 84 83 83 82 82 82 81 82 81 82 81 80 81 80 79
96 96 96 96 94 93 92 92 91 92 93 92 91 90 92 91 89 89 88 87 86 86 86 86 86 86 86 86 86 86 86 86 86 85 86 85 85 85 86 85 84 84 84 84 83 84 84 85 84 83 83 82 82 82 82 81 81 81 80 79 79 79 79
96 96 95 95 94 93 91 92 92 92 93 94 93 92 91 89 89 89 88 88 86 86 87 86 86 86 87 86 86 86 86 87 86 86 86 86 86 88 87 86 85 85 86 85 84 84 85 84 84 83 83 82 82 81 81 81 80 81 80 79 79 79 78
94 95 95 95 94 93 93 93 93 95 96 96 94 93 91 89 90 90 89 89 87 87 86 87 87 87 87 86 86 86 86 86 87 87 87 87 87 87 86 86 85 86 85 85 86 86 86 84 84 83 83 81 81 81 81 81 81 80 80 79 78 79 78
94 96 96 94 96 94 94 94 95 94 96 98 95 91 91 91 92 91 91 90 90 88 88 88 89 88 88 88 88 87 87 87 87 87 88 87 87 87 86 87 86 86 86 87 85 84 83 83 83 82 82 81 81 81 81 81 80 80 79 80 78 79 78
93 93 94 95 97 96 95 96 98 99 97 97 95 93 93 94 94 94 93 90 90 90 89 88 88 87 87 88 88 88 87 87 87 87 87 87 86 86 87 87 87 87 87 85 86 85 84 83 83 83 82 83 83 82 81 81 81 80 80 79 79 79 78
94 95 95 95 96 97 97 97 99 99 98 98 98 95 95 95 94 94 94 93 92 89 89 89 89 89 88 88 88 87 87 87 87 87 88 88 88 87 86 86 86 87 87 86 85 85 84 83 82 82 82 82 81 81 80 79 80 79 79 78 77 78 77
96 96 95 97 99 101 100 98 99 100 98 97 97 97 96 95 95 95 94 94 93 93 91 91 89 88 88 88 88 88 88 88 88 88 88 88 87 87 87 87 86 86 86 85 85 85 85 83 84 82 82 82 80 80 80 79 79 81 79 78 77 77 78
97 95 96 99 99 101 100 97 97 97 95 94 95 94 95 95 95 94 94 94 93 92 91 93 91 90 88 88 88 88 88 88 88 88 88 88 88 89 89 89 87 87 86 86 86 85 85 84 84 81 81 80 80 79 79 79 79 80 79 78 77 76 77
94 93 94 98 99 100 96 96 94 93 92 92 92 92 93 93 94 94 94 95 95 93 92 93 93 92 89 88 89 89 88 88 88 89 89 89 89 89 90 90 89 88 87 87 87 85 84 84 83 82 80 80 79 79 79 79 79 79 78 77 77 76 76
94 92 92 95 95 95 95 96 93 91 91 90 90 93 92 92 93 94 93 95 95 94 94 93 93 92 90 90 90 90 88 89 89 89 88 89 90 90 91 91 90 89 88 88 88 86 84 83 83 81 80 80 80 79 78 79 79 78 78 78 77 77 77
91 92 91 93 93 94 94 91 91 91 90 90 92 93 91 91 93 94 94 94 96 95 94 94 95 93 91 91 90 88 88 88 89 89 89 89 90 91 91 92 90 89 89 89 88 86 86 83 83 82 80 80 80 79 79 78 78 78 78 78 78 77 78
93 91 91 94 92 93 91 90 91 91 91 92 94 93 93 93 93 94 92 93 96 96 95 93 93 91 90 91 91 89 88 88 88 89 89 88 89 90 91 92 92 91 90 89 89 88 87 85 83 82 81 80 80 79 78 78 78 77 77 77 77 77 77
90 93 94 93 93 92 91 91 90 90 91 92 93 93 94 94 95 93 92 93 95 97 97 96 92 89 89 89 89 88 88 88 89 88 88 89 88 89 90 91 91 89 89 89 88 89 88 86 83 82 82 81 80 79 78 78 78 77 77 76 76 77 77
94 94 94 94 91 90 91 91 90 90 91 91 93 93 93 94 93 93 93 94 93 98 96 93 90 89 90 89 88 87 88 88 89 88 88 89 88 88 88 89 89 89 88 87 88 89 89 87 85 82 81 81 80 79 79 78 77 77 76 75 76 77 77
95 95 94 93 91 92 91 91 91 90 90 90 91 91 93 92 91 93 93 93 95 93 93 92 90 89 89 88 88 88 88 88 88 88 88 88 87 87 88 89 88 89 88 87 87 87 87 86 83 83 82 80 79 79 78 78 78 74 70 73 76 76 77
95 95 94 93 91 92 91 91 91 90 89 90 90 91 91 91 91 92 96 93 93 91 92 93 90 90 89 88 89 88 88 87 87 88 87 87 87 87 87 87 87 87 86 86 86 86 85 84 83 83 82 81 79 78 78 77 78 68 67 68 72 76 76
96 94 94 93 92 91 90 90 90 90 90 91 92 91 91 90 91 92 92 93 93 94 95 93 91 90 89 89 88 88 88 87 87 87 87 87 86 86 86 87 86 86 86 86 86 85 86 85 83 82 81 80 79 79 78 77 72 64 66 67 69 73 77
97 95 92 91 90 89 92 93 93 90 91 92 92 91 93 92 92 90 91 91 91 92 94 93 93 90 89 89 88 88 88 87 87 86 86 86 86 86 86 85 85 85 85 86 86 86 83 82 83 81 81 79 78 78 79 78 68 64 65 66 67 69 75
98 100 99 96 94 93 92 92 93 92 92 91 91 93 95 93 92 91 91 92 91 91 91 90 90 89 88 88 88 88 88 87 87 86 86 86 85 85 85 84 84 85 86 86 84 83 83 83 81 80 78 78 77 77 78 78 66 63 64 64 64 67 72
93 94 95 96 92 94 91 91 91 91 90 92 93 93 94 92 93 92 91 91 90 90 90 90 89 88 88 88 88 88 87 87 86 86 85 85 85 84 84 83 83 84 84 85 84 83 81 82 80 78 78 78 78 77 77 79 64 62 63 62 63 65 70
99 100 99 98 94 91 90 93 92 93 91 93 92 94 94 93 94 91 90 91 91 91 90 89 88 88 88 87 88 87 87 86 86 85 85 84 84 83 83 82 82 82 83 83 83 82 80 80 80 78 77 77 77 78 76 79 61 62 61 61 62 64 73
103 101 101 98 101 97 92 93 93 94 91 92 93 93 94 94 94 91 91 90 92 90 89 89 87 87 87 87 87 87 87 86 86 85 84 84 83 82 82 82 82 82 83 82 81 80 79 79 79 77 78 77 77 77 77 75 62 60 60 60 61 64 72
104 102 102 103 98 99 93 93 95 93 93 92 92 94 94 95 92 90 88 88 89 89 88 88 87 87 87 87 87 87 87 87 86 85 84 83 83 83 83 83 83 82 82 81 81 80 80 79 78 77 78 79 78 79 78 74 63 57 58 59 59 66 72
104 104 103 102 101 101 99 93 93 93 92 92 92 93 93 93 91 89 88 88 90 91 89 88 87 87 87 87 87 87 87 87 86 85 85 83 83 83 82 82 82 82 82 82 81 81 79 79 78 77 77 80 81 74 77 75 66 56 58 58 57 66 73
97 100 101 100 102 97 93 92 91 91 92 91 90 93 93 93 90 87 88 89 90 89 88 87 88 88 88 88 87 88 87 86 84 84 84 83 83 83 82 82 83 82 81 81 81 81 80 79 78 77 78 79 79 77 78 76 72 63 56 56 56 61 73
96 98 99 102 101 89 92 91 91 91 92 91 90 93 93 92 89 87 86 87 87 87 88 89 88 88 87 87 87 87 87 86 85 84 84 84 83 83 83 82 82 82 80 80 80 78 77 78 78 77 76 77 75 75 74 75 74 67 55 55 56 58 65
96 97 102 100 91 89 92 93 91 92 94 91 92 93 93 89 86 86 86 86 86 87 90 89 88 87 87 86 86 87 87 86 84 84 83 83 82 81 81 82 82 81 80 80 76 75 74 74 74 73 74 74 74 74 72 71 69 74 58 56 55 57 59
93 92 92 90 91 92 92 91 91 92 92 93 94 92 90 88 85 85 85 86 86 88 88 88 87 86 86 85 85 85 84 83 83 83 83 82 82 81 80 80 80 78 78 77 75 73 73 73 72 72 72 72 72 72 72 73 71 67 67 57 55 54 57
93 93 93 95 94 92 94 90 89 90 90 92 91 90 89 87 85 85 85 85 87 87 87 86 86 86 85 84 83 83 83 83 83 83 82 82 81 80 80 79 79 77 76 76 74 72 72 72 72 71 71 71 71 72 74 74 74 69 66 63 56 54 54
91 93 92 91 92 91 90 89 88 89 88 89 88 88 88 87 85 84 84 85 86 85 85 85 85 84 83 83 82 82 82 82 82 81 81 81 80 79 78 78 77 75 75 74 73 72 71 71 71 70 70 70 71 72 74 74 73 72 66 62 58 55 53
80 88 91 90 88 88 89 88 88 87 86 86 87 86 86 86 86 82 82 85 84 85 85 84 83 82 82 82 82 82 82 81 81 80 80 80 79 78 78 77 76 74 73 73 73 72 71 71 72 71 71 71 72 73 73 72 72 69 65 62 59 57 53
71 69 70 76 82 85 86 87 86 85 85 84 85 85 84 85 85 84 84 84 85 85 84 83 82 81 81 81 82 81 81 80 80 79 78 78 78 78 79 78 77 75 73 73 73 72 72 73 72 72 72 72 73 73 72 71 70 69 67 66 64 63 58
67 70 70 69 68 70 73 75 78 78 80 79 80 82 82 84 84 85 85 87 87 86 83 81 81 81 81 82 81 81 81 79 79 77 77 77 77 77 77 77 76 75 73 73 72 72 72 73 73 73 74 73 74 72 72 70 70 69 69 68 68 66 64
68 68 68 68 68 70 71 70 70 70 73 76 79 82 82 83 85 86 85 84 84 83 81 80 80 80 80 80 81 79 78 78 78 78 76 70 64 59 58 63 70 71 74 73 68 68 72 75 74 76 77 77 74 71 71 71 69 69 64 70 62 67 68
68 69 69 70 70 72 72 71 73 74 75 79 81 82 83 83 84 84 85 84 84 83 80 79 79 80 81 81 81 81 80 79 81 79 75 73 68 63 57 49 45 51 63 65 56 51 44 53 71 76 77 73 71 72 70 71 72 57 52 52 52 51 52
67 68 67 68 70 72 73 75 77 78 78 79 81 81 82 83 84 83 84 83 83 83 81 80 79 80 82 81 82 80 80 80 80 76 74 73 71 69 65 63 56 44 43 48 49 45 43 43 44 58 64 70 69 59 54 54 50 49 49 47 45 45 45
70 72 75 79 78 78 77 78 78 79 79 81 82 83 82 83 84 83 85 84 84 83 82 82 80 80 81 83 81 77 79 81 78 74 72 71 71 70 68 66 63 59 47 43 45 45 43 43 45 47 50 54 57 58 56 50 46 45 44 44 43 43 43

ECMWFFLT1_sfc_temp_039.txt.gz
Temp
92 92 90 90 89 88 87 87 88 87 87 86 86 86 87 86 85 84 83 82 82 81 82 82 82 82 81 82 82 82 82 82 82 81 81 81 80 80 80 80 79 79 79 78 78 78 80 79 79 79 77 77 76 76 75 76 75 76 75 75 75 74 74
90 91 91 90 89 88 87 88 88 88 87 87 86 86 87 86 85 84 84 83 83 82 82 82 82 82 82 82 82 82 81 82 82 82 82 80 80 80 81 80 80 79 79 79 78 78 80 78 79 78 77 77 76 75 76 75 75 74 74 75 75 73 73
90 90 89 89 88 88 86 87 88 88 88 88 87 87 87 85 86 85 84 83 82 82 83 82 82 82 82 82 81 81 82 82 81 81 81 81 81 81 81 81 81 80 80 80 79 79 80 78 79 78 78 77 76 76 76 75 75 74 74 74 75 74 73
89 89 89 89 88 88 87 87 87 89 89 89 88 87 87 86 86 86 85 84 83 82 82 82 83 82 82 82 81 81 81 82 82 82 82 82 82 82 80 80 81 80 79 80 80 81 80 79 78 78 79 77 76 76 76 76 75 74 74 74 72 73 73
88 89 90 89 88 85 85 85 87 87 89 91 89 87 87 87 87 86 86 85 85 83 83 83 84 83 83 83 82 82 82 82 82 82 83 83 82 82 81 81 81 81 80 81 80 80 79 78 78 78 77 77 76 76 76 76 75 74 74 74 73 73 72
88 88 88 88 89 88 87 88 88 89 89 90 89 87 88 88 88 88 87 85 85 85 84 84 83 83 82 83 83 82 82 82 82 82 82 82 82 82 81 81 81 81 80 80 81 80 80 79 78 78 77 77 77 76 76 76 75 74 74 74 73 73 72
88 88 88 88 89 89 89 89 89 90 90 91 90 88 89 89 88 88 88 86 86 84 84 84 84 83 83 83 83 82 82 82 82 82 83 83 82 82 82 81 81 82 82 81 80 80 80 79 78 78 77 77 77 76 76 75 75 75 73 74 73 73 73
90 88 88 89 90 91 91 89 89 90 90 90 90 89 89 89 89 89 88 88 87 86 85 85 84 83 83 83 83 83 82 82 83 83 83 82 82 82 82 82 81 82 81 81 80 80 80 79 79 78 78 77 76 76 76 75 75 76 74 73 73 73 74
90 90 89 91 91 92 91 89 89 89 88 89 89 88 89 89 89 89 88 88 87 86 86 86 85 85 84 83 83 83 83 83 83 83 82 82 82 83 83 82 82 82 81 81 81 81 80 79 79 78 77 77 76 76 75 75 75 76 75 74 73 73 74
90 89 89 91 92 92 91 90 88 87 86 87 87 87 87 88 89 89 89 89 89 87 86 87 86 86 84 83 83 83 83 83 83 83 83 83 83 83 84 84 83 82 82 82 82 80 80 80 79 78 77 77 76 76 75 75 75 75 75 75 74 73 73
88 88 87 89 89 89 89 89 86 86 87 86 87 88 87 88 88 88 88 89 89 88 88 87 87 86 85 84 84 84 83 83 83 83 83 83 84 84 85 85 84 83 83 82 82 81 80 79 79 78 77 76 76 76 75 75 75 75 75 75 75 74 73
87 86 86 87 88 88 88 87 87 86 86 86 87 88 86 87 88 88 88 89 90 89 88 88 88 87 85 85 84 83 83 83 83 83 83 83 84 84 85 85 84 83 83 83 82 81 81 79 79 78 77 77 76 76 76 75 75 75 75 75 74 73 73
86 86 86 86 86 87 86 84 85 86 86 86 88 88 87 87 87 88 87 88 90 90 89 88 87 86 85 85 85 83 83 83 84 84 84 84 84 85 85 85 86 85 84 84 83 82 81 80 79 79 78 77 77 76 76 75 75 75 74 72 72 73 73
86 86 86 87 87 86 84 83 84 84 84 85 86 87 87 87 88 88 87 88 89 90 90 89 87 85 85 85 84 83 83 84 84 84 84 84 84 84 85 85 85 84 84 84 83 83 82 81 79 79 78 77 77 77 76 75 75 74 73 72 74 74 73
85 86 85 85 84 82 81 82 82 82 83 84 86 86 87 87 87 87 87 88 89 90 89 88 86 85 85 84 83 83 84 84 84 84 84 84 84 84 84 84 85 84 84 83 83 83 83 82 80 79 77 77 77 76 76 75 75 74 74 72 73 74 73
86 86 86 86 84 84 82 83 82 82 83 83 85 85 86 86 86 87 87 87 89 89 89 88 86 85 85 84 84 84 84 84 84 84 84 84 83 83 84 84 84 84 83 83 83 83 82 81 80 80 78 77 76 76 75 75 75 72 69 70 74 73 73
84 85 85 82 82 83 83 84 85 84 83 83 84 85 86 86 87 87 89 88 88 87 88 88 86 85 85 84 85 84 84 83 83 83 83 83 83 83 83 83 84 83 82 82 82 83 82 81 80 80 79 78 77 76 75 75 75 67 66 67 69 73 73
84 84 84 85 84 84 83 83 83 83 84 85 86 86 87 86 86 87 87 88 88 89 89 88 87 86 85 85 85 84 83 83 83 83 83 83 83 83 83 83 83 82 82 82 82 82 82 80 79 79 78 78 77 76 76 75 70 64 65 67 67 70 73
85 86 86 85 84 83 85 86 86 85 86 87 87 87 88 88 87 86 87 87 88 88 88 88 88 86 85 85 84 84 84 83 83 83 83 83 83 83 83 82 82 82 81 81 82 82 81 80 78 78 78 77 77 76 76 76 68 64 64 66 66 67 71
82 84 87 88 88 88 87 87 87 87 88 87 88 89 90 89 88 88 89 89 88 88 88 87 87 86 85 85 84 84 84 83 83 82 82 83 82 82 82 82 82 82 82 81 81 81 81 80 78 77 77 77 77 76 76 76 66 63 63 64 64 65 69
80 81 84 84 84 87 86 86 86 86 86 87 88 89 89 88 89 88 87 87 87 87 87 88 87 85 85 85 84 84 84 83 83 82 82 82 82 81 81 81 81 81 81 81 80 80 80 80 77 77 77 77 77 76 75 76 64 62 62 62 62 64 67
81 82 82 86 84 85 85 86 86 87 86 87 87 88 89 89 89 87 86 87 87 87 88 87 86 85 85 84 85 84 84 83 83 82 82 81 81 81 80 80 80 80 79 79 79 79 80 79 79 77 76 76 76 75 74 76 62 61 60 61 61 63 69
86 83 82 83 88 86 85 87 87 88 87 87 87 87 88 89 89 87 86 86 87 86 86 86 85 85 84 85 84 84 84 83 83 82 81 81 80 80 80 79 79 79 79 79 78 77 77 77 77 76 76 75 75 74 74 75 62 59 59 59 61 63 70
92 89 87 85 85 88 86 85 87 88 87 87 87 88 89 89 88 86 85 85 86 86 85 86 85 85 84 84 85 84 84 83 83 81 81 80 80 80 79 80 79 80 79 79 76 75 75 74 73 74 75 75 75 75 74 75 62 58 57 59 59 64 71
89 91 89 88 87 85 87 86 86 88 87 86 86 88 88 88 87 85 84 85 86 86 86 85 85 85 84 84 85 84 84 84 83 82 81 80 80 80 79 79 79 78 77 77 76 74 73 73 73 72 73 75 75 72 74 75 63 56 57 58 58 64 72
84 81 81 82 85 86 84 87 86 86 86 86 86 88 87 88 86 84 84 85 86 85 85 85 85 85 85 85 84 84 84 83 82 81 81 80 80 79 79 78 77 76 76 75 75 74 74 73 73 72 72 74 74 73 74 73 67 60 57 57 57 61 72
84 85 83 83 85 83 81 82 86 86 87 87 86 87 88 88 86 83 83 84 84 84 86 86 86 84 84 84 84 83 83 83 82 81 81 81 80 79 78 77 77 76 76 76 75 74 73 73 72 72 71 73 74 74 74 74 70 63 56 56 56 58 65
80 82 82 81 81 81 81 82 83 85 88 87 87 87 88 87 84 83 83 83 83 85 86 85 84 84 83 83 83 83 82 82 81 81 80 80 79 77 77 77 76 76 76 74 73 72 72 71 71 71 70 71 72 74 74 72 68 68 56 56 55 57 61
72 75 79 80 79 80 81 79 79 82 86 88 87 86 86 84 81 81 81 82 83 84 84 84 84 83 83 82 82 81 81 81 80 80 80 78 78 77 76 75 75 75 74 72 71 71 70 70 70 69 68 68 70 70 71 70 69 64 61 55 54 55 57
71 71 73 76 76 76 75 71 69 69 70 74 80 85 86 85 82 81 80 81 82 83 83 83 83 83 82 81 81 81 80 79 79 79 78 77 77 76 75 74 74 73 72 71 70 69 68 68 69 68 68 67 67 68 68 68 69 63 60 58 54 54 55
69 69 69 68 68 69 72 72 72 72 70 69 67 67 73 81 83 80 80 81 82 82 83 82 82 81 80 80 79 79 79 79 78 77 77 77 76 75 74 73 73 71 70 70 70 69 68 67 68 68 67 66 66 67 68 69 70 69 62 59 56 55 54
69 69 69 69 68 68 69 69 69 69 69 69 69 69 68 68 72 77 80 82 82 83 82 81 80 79 79 78 78 78 78 77 77 76 76 76 75 74 73 72 72 70 69 69 69 69 68 67 67 67 66 66 66 67 69 70 70 70 68 62 59 57 55
67 68 67 66 67 68 67 67 67 67 68 67 69 70 70 71 70 69 74 80 82 81 80 79 77 76 77 77 77 77 77 76 75 75 73 73 72 72 72 71 69 69 68 69 67 67 65 66 66 66 66 66 66 66 67 68 69 67 65 64 62 60 57
66 67 67 68 68 68 67 67 67 66 67 67 68 69 70 71 71 71 71 75 80 80 79 77 77 77 76 77 76 75 75 74 77 74 71 71 72 72 72 70 70 69 68 68 68 67 66 67 66 66 66 66 66 67 67 67 65 64 64 62 62 60 58
66 65 66 67 67 68 67 67 68 68 67 67 68 68 69 69 70 71 72 75 77 78 78 76 75 76 76 75 75 73 73 73 71 68 63 57 53 49 50 56 64 68 64 58 60 66 70 68 67 68 68 68 67 66 66 66 64 65 61 65 59 61 61
65 65 66 67 68 67 67 69 68 68 68 67 68 69 69 69 70 72 73 73 74 74 73 73 74 75 76 75 75 74 73 71 69 66 64 62 59 57 55 51 44 48 60 61 55 49 48 56 67 69 69 68 65 67 67 67 65 54 52 51 51 52 54
65 64 65 66 66 67 66 66 68 67 66 66 67 68 67 68 70 72 73 73 73 74 74 75 74 75 75 75 75 74 73 70 68 66 64 63 61 61 59 58 54 45 43 47 49 45 43 45 45 53 62 66 64 56 56 55 51 50 49 49 50 50 49
66 66 66 67 68 67 67 66 66 67 66 67 68 68 69 69 71 73 74 74 76 77 76 76 75 75 75 75 74 72 71 70 68 67 65 63 63 62 60 58 57 56 47 43 44 44 42 42 45 51 53 55 56 56 57 52 48 46 45 45 45 45 45

ECMWFFLT1_sfc_temp_042.txt.gz
Temp
87 86 86 86 86 85 84 84 85 85 84 84 84 84 83 83 82 81 81 80 80 79 80 80 80 80 79 80 80 80 80 80 80 79 79 79 79 79 78 77 77 77 77 76 77 77 78 78 78 78 77 76 75 75 74 74 73 73 73 72 72 71 71
85 86 86 87 86 85 85 85 85 86 85 85 84 84 84 83 82 81 81 81 80 80 80 80 80 80 80 80 80 80 79 80 80 80 80 79 79 79 79 78 78 77 77 78 78 77 78 78 78 77 76 76 76 75 75 73 73 73 72 72 72 71 71
85 85 86 86 85 85 85 85 85 86 86 86 85 85 84 83 83 82 81 81 80 80 80 80 80 80 80 80 80 80 80 80 79 79 79 79 78 79 79 79 79 78 78 78 78 77 78 77 77 77 77 76 76 75 74 73 73 73 72 72 72 72 70
85 85 86 86 86 86 86 86 85 86 87 87 86 86 84 84 84 83 83 82 81 80 79 80 80 80 80 80 80 79 79 80 80 80 80 80 79 79 79 79 78 78 77 78 78 79 78 78 77 76 78 76 76 75 74 74 73 72 72 72 72 72 71
85 86 86 85 86 85 86 86 86 86 87 88 87 86 85 85 85 84 83 83 82 81 81 81 82 81 81 81 80 80 80 80 80 80 80 80 80 79 79 79 79 78 78 78 78 78 77 77 77 76 76 76 75 74 74 73 73 72 72 72 72 71 71
85 85 86 86 86 86 86 87 88 88 87 87 86 85 86 86 86 85 84 83 82 83 82 82 81 81 80 81 81 80 80 80 80 80 80 80 80 79 79 79 79 79 78 78 78 78 78 77 77 76 76 76 76 75 74 73 73 72 71 71 72 72 71
86 86 86 87 87 87 87 87 88 88 89 88 88 86 87 87 86 85 85 83 83 82 81 81 82 81 81 81 81 80 80 80 80 80 80 80 80 80 79 79 80 80 80 79 78 78 77 77 77 77 76 76 75 75 74 73 72 72 72 71 71 71 72
87 86 87 88 89 89 88 87 87 88 88 87 87 86 86 86 86 85 85 84 84 84 83 82 82 81 81 81 81 80 80 80 80 80 80 80 80 80 80 80 79 80 79 79 79 78 78 77 77 77 76 76 75 75 74 73 73 72 72 71 71 71 72
87 88 88 89 89 90 89 87 87 87 86 85 85 85 85 85 86 85 85 85 84 83 83 84 83 82 82 81 80 80 81 80 80 80 80 80 80 80 80 80 80 80 79 79 79 79 78 77 77 76 76 76 75 74 74 73 73 73 73 72 71 71 71
87 86 87 89 90 91 89 88 86 84 83 83 84 83 84 85 85 86 85 85 85 84 84 84 84 83 82 81 81 81 80 80 80 80 80 80 80 80 81 81 80 80 80 79 79 78 78 78 77 76 75 75 75 74 74 73 73 73 73 73 72 72 71
86 86 86 87 87 87 87 86 82 82 83 83 83 84 84 84 85 85 85 86 85 85 85 84 84 83 82 81 81 81 80 80 80 80 80 80 81 81 82 82 81 81 80 80 79 79 78 78 77 76 75 75 75 74 74 74 73 73 73 73 73 72 72
85 85 84 85 85 85 84 82 82 81 82 82 83 84 83 83 85 85 85 85 86 85 84 84 85 83 82 82 81 80 80 80 80 80 80 80 81 81 82 82 81 81 81 80 80 79 79 78 77 77 75 75 75 75 74 74 73 73 73 73 73 72 72
84 83 84 85 85 85 83 80 81 81 82 83 84 84 84 84 84 85 84 85 86 86 85 84 84 83 82 82 81 80 80 80 80 81 81 80 81 82 82 82 82 82 81 81 81 80 79 78 77 77 76 75 75 75 74 74 73 73 73 73 73 72 72
84 83 83 84 83 83 81 81 81 81 81 83 83 84 85 85 85 85 84 84 86 86 86 85 84 82 82 82 81 80 80 81 81 81 81 81 81 81 82 82 82 81 81 81 80 80 79 78 77 77 77 76 75 75 75 74 73 73 73 72 73 72 72
81 84 83 82 82 82 81 81 80 81 82 82 83 83 84 84 84 84 84 85 85 87 85 85 83 82 82 81 80 80 81 81 81 81 81 81 81 81 81 81 81 81 81 80 80 81 80 80 78 77 76 76 75 75 75 74 74 74 74 72 72 73 72
81 83 84 83 83 83 82 82 81 81 81 81 82 83 83 83 83 84 84 84 86 85 85 85 83 82 82 81 81 81 81 81 81 81 81 81 80 80 81 81 81 81 80 80 80 80 80 79 78 78 76 75 75 75 74 74 74 71 67 69 73 73 73
81 83 84 84 83 82 82 82 82 81 80 81 81 82 83 83 84 84 85 85 84 84 85 85 83 83 82 82 82 82 81 81 81 81 80 80 81 81 80 80 81 80 80 80 80 80 79 79 78 78 77 76 75 75 74 74 74 67 64 66 68 73 73
82 81 82 82 81 80 79 80 81 80 81 81 82 82 83 83 83 83 84 84 85 85 86 85 84 83 82 83 82 82 81 81 81 80 80 80 80 80 80 81 80 80 80 80 79 79 80 79 78 78 77 77 76 75 75 75 69 64 64 65 66 69 74
77 78 80 79 77 77 80 82 82 81 82 83 83 83 84 85 84 83 84 84 85 85 85 85 85 83 83 83 82 82 81 81 81 80 80 80 80 81 80 80 80 80 80 80 80 80 79 78 78 77 77 77 76 75 76 75 68 63 63 65 66 66 71
79 80 81 82 82 83 82 82 82 82 83 83 84 85 86 86 85 85 85 86 85 84 84 84 84 84 83 82 82 82 82 81 81 80 80 81 80 80 80 80 79 80 81 81 80 79 79 79 78 78 77 77 76 76 76 76 66 62 61 63 64 65 68
76 77 79 80 81 83 83 84 83 83 83 84 85 86 86 85 86 85 84 85 84 84 84 84 84 83 83 82 82 82 82 81 81 80 80 80 80 80 80 80 80 80 81 81 80 79 79 79 78 78 77 77 77 76 76 77 64 60 60 62 63 64 66
76 78 78 79 80 80 81 82 84 86 85 87 85 85 86 86 87 85 84 84 84 84 84 84 83 83 83 82 82 82 82 81 81 81 80 80 80 80 79 79 79 79 80 80 80 80 80 79 79 78 77 77 77 76 75 76 61 60 60 61 62 63 68
77 75 75 77 83 84 81 82 84 85 85 85 86 85 86 87 87 85 84 83 84 84 83 83 83 83 82 82 83 82 82 82 81 80 80 80 80 79 79 79 79 80 80 79 80 79 79 79 79 79 78 77 76 76 75 74 61 59 59 60 61 62 69
77 78 75 74 73 77 82 84 83 83 84 84 84 85 86 87 85 84 82 82 83 83 82 83 83 83 83 83 83 83 83 82 82 81 80 80 80 80 80 80 80 80 80 80 79 79 79 80 79 78 78 77 76 76 74 74 61 57 58 60 60 63 69
74 75 76 76 75 78 77 77 80 83 82 80 81 83 84 84 84 83 82 82 83 83 83 82 83 83 83 83 84 83 83 83 82 82 81 80 80 81 80 80 80 81 80 80 80 79 79 78 78 76 75 76 76 72 74 75 63 56 58 59 58 63 69
70 71 73 75 75 74 75 77 77 77 78 81 83 83 82 82 82 81 82 82 83 83 83 83 84 85 85 85 84 84 84 84 82 82 82 81 81 81 81 81 80 80 79 79 79 78 76 75 75 73 73 74 75 74 74 74 67 60 57 57 56 60 69
69 70 70 72 71 73 73 73 75 79 80 79 77 79 80 82 82 81 81 82 81 82 83 85 85 85 84 84 84 84 83 84 83 82 82 82 82 81 81 81 80 79 78 77 75 74 72 73 73 72 71 72 73 74 73 74 68 63 56 55 55 57 63
68 69 71 70 71 70 70 71 72 75 78 75 77 78 78 76 77 77 78 80 81 83 85 85 85 84 83 83 83 83 83 83 83 83 82 82 81 79 79 79 79 78 78 76 74 73 71 71 71 71 70 70 71 72 71 70 66 66 56 55 54 56 59
66 66 66 67 68 70 71 69 69 68 69 71 73 75 77 78 77 75 75 76 77 80 81 82 83 83 83 82 82 82 83 83 82 82 82 80 80 79 78 77 77 77 76 74 73 72 71 70 70 69 68 67 67 68 70 69 67 62 60 55 54 54 56
67 67 67 68 68 68 69 68 68 68 69 70 70 70 73 77 75 74 74 75 75 77 78 78 79 80 81 81 81 82 82 82 81 81 81 79 79 78 77 76 76 75 74 74 73 72 70 69 68 67 66 66 66 68 68 68 68 62 59 59 55 54 54
66 66 66 65 66 67 67 66 67 67 68 68 68 70 70 72 74 73 75 73 74 77 78 79 79 79 79 80 80 80 81 80 80 80 79 79 78 76 76 75 75 73 72 73 71 70 69 66 67 66 66 66 65 65 64 66 66 67 62 60 57 54 53
67 67 67 67 66 66 66 66 67 67 67 67 68 68 68 70 71 73 71 71 72 74 75 76 78 78 79 79 79 79 80 79 79 78 78 78 78 77 76 75 74 72 70 70 69 68 67 66 66 65 65 64 64 63 64 64 64 64 61 60 57 56 54
65 65 65 65 66 66 66 66 66 66 67 66 68 68 69 69 68 68 68 69 72 74 75 76 76 76 76 77 77 78 78 78 76 76 76 76 75 74 73 72 71 70 68 68 68 67 66 66 66 66 66 65 64 63 63 64 64 62 60 60 59 60 58
64 65 65 66 66 67 67 66 66 66 66 66 67 68 69 69 69 69 70 70 72 72 72 73 74 74 75 74 74 74 74 73 76 74 72 72 73 71 70 69 70 70 68 68 68 67 66 65 65 65 65 64 64 64 64 64 63 63 62 61 60 60 59
64 64 65 65 66 67 66 66 65 65 65 65 66 67 67 68 69 69 69 69 70 70 71 70 69 71 71 71 70 68 67 67 65 63 60 56 54 53 58 67 70 66 60 60 64 70 68 67 66 66 67 67 66 65 64 64 64 63 59 63 57 60 60
63 64 65 66 66 66 66 65 65 65 64 65 66 66 66 67 69 70 71 70 71 71 69 69 68 68 68 68 67 67 66 65 64 64 63 61 59 58 55 49 46 55 65 61 54 53 58 61 66 67 67 66 66 68 66 65 66 58 53 51 50 50 53
63 63 65 66 65 65 64 64 65 65 65 65 66 66 67 67 69 69 70 70 70 71 70 69 67 67 67 66 66 65 65 65 64 63 63 62 62 60 57 56 54 43 43 48 50 47 43 45 51 57 60 66 65 60 57 60 55 51 49 48 48 47 47
65 65 65 66 66 66 65 65 65 64 64 65 66 66 67 68 69 69 70 70 70 70 69 69 67 66 66 66 66 66 65 65 64 64 63 63 64 62 61 59 56 54 46 42 44 44 42 41 43 50 53 56 59 58 56 51 48 47 46 45 45 45 45

ECMWFFLT1_sfc_temp_045.txt.gz
Temp
83 83 83 83 83 83 82 82 83 83 82 82 82 82 82 81 81 80 79 79 78 78 78 78 78 78 78 78 79 79 79 79 78 78 77 77 77 77 76 76 76 76 76 75 75 75 76 76 76 76 76 75 75 75 74 74 72 72 71 70 70 69 69
81 83 83 83 82 82 83 83 83 84 83 83 83 82 82 81 81 80 80 79 79 79 79 79 78 78 78 78 79 79 78 78 78 78 78 77 77 77 77 77 77 76 76 76 76 76 76 76 76 76 75 75 75 75 74 73 72 72 71 70 69 68 69
82 83 83 83 82 82 82 83 83 84 84 84 84 83 82 81 81 80 80 79 79 79 79 79 79 79 79 79 78 78 78 78 78 78 77 77 77 78 77 77 77 77 77 77 76 76 76 76 76 76 76 75 75 74 74 73 73 72 71 70 70 70 68
81 83 83 83 83 83 83 84 83 84 85 85 85 84 83 82 82 82 81 81 79 79 78 79 79 79 79 78 78 78 78 78 79 78 78 78 78 78 77 76 76 77 76 76 77 77 77 76 76 76 77 75 75 74 73 73 72 72 72 71 70 70 69
82 83 83 83 83 83 83 83 84 84 85 86 86 84 84 83 83 82 82 82 82 80 80 80 80 80 80 80 79 79 79 79 78 79 79 79 78 78 77 77 77 76 77 77 77 76 76 76 76 75 76 75 75 74 73 72 72 72 71 71 70 70 69
82 81 82 83 84 84 84 85 85 85 86 86 85 84 84 84 84 83 82 82 81 82 81 81 80 80 79 80 80 79 79 79 79 79 79 79 78 78 77 78 78 77 77 77 77 77 76 76 76 75 75 75 75 74 73 72 72 72 71 70 71 70 69
83 82 82 83 84 84 84 85 86 86 86 87 87 86 85 85 84 84 83 82 82 80 80 80 81 80 80 80 79 79 78 78 78 78 79 79 78 78 78 78 78 78 78 77 77 77 76 76 76 75 75 75 75 74 74 72 72 71 71 70 70 69 69
84 83 83 84 85 86 86 85 86 86 87 86 86 86 84 85 84 84 83 83 82 82 81 81 80 80 80 80 80 79 79 79 79 79 79 78 78 78 78 78 78 78 77 77 77 77 77 76 76 76 75 75 74 74 74 73 72 71 71 70 70 69 70
85 84 83 85 85 86 87 86 86 86 85 84 84 84 84 84 84 83 83 83 83 82 82 82 82 81 80 80 79 79 79 79 79 79 78 78 78 78 78 78 78 78 77 77 77 77 77 77 76 75 75 75 74 74 74 73 72 72 71 70 70 70 69
84 81 82 85 86 87 87 86 85 84 83 83 82 82 83 83 84 84 84 84 83 82 82 82 82 82 80 80 79 80 79 79 79 79 79 78 79 78 79 79 79 79 78 78 78 77 77 77 76 75 74 74 74 74 73 73 72 72 71 71 71 70 70
82 82 82 83 84 84 85 85 83 82 82 82 82 83 82 83 83 84 83 84 84 83 83 83 83 82 81 80 80 79 79 79 79 78 78 78 79 79 79 80 80 79 78 78 77 77 77 76 76 75 75 74 74 74 73 73 72 72 72 72 71 71 70
79 79 79 80 82 83 83 83 82 81 81 81 82 83 82 82 83 83 83 84 85 84 83 83 83 82 81 80 79 79 79 79 79 78 78 79 79 79 80 80 79 79 79 79 78 77 77 76 76 76 75 75 75 74 74 73 72 72 72 72 72 70 70
80 80 79 81 82 83 82 79 80 81 81 82 83 83 82 82 83 83 83 83 84 84 83 83 82 81 80 80 80 79 79 79 79 79 79 79 79 80 80 80 80 80 79 79 79 78 77 77 76 76 75 75 75 74 74 73 73 72 72 72 71 70 70
80 80 81 82 82 81 80 79 79 79 80 82 82 83 83 83 83 83 83 83 84 84 84 84 82 81 80 80 79 79 79 79 80 79 79 79 79 79 79 80 80 79 79 79 78 78 78 77 76 76 76 75 75 75 74 73 73 72 72 71 71 71 70
76 79 79 78 77 78 79 79 78 79 80 81 82 82 82 82 82 83 83 83 83 84 84 83 81 81 80 80 79 79 79 79 80 80 79 79 79 79 79 79 79 79 79 79 79 79 79 78 77 76 75 75 74 74 74 73 73 73 73 71 71 71 71
77 78 79 80 79 79 79 80 79 79 80 80 81 81 82 81 81 82 82 82 83 83 83 82 81 80 80 79 79 80 80 79 79 79 79 79 78 78 79 79 79 79 78 78 78 78 78 78 77 77 75 74 74 74 74 74 74 71 67 68 72 71 71
76 78 79 81 80 80 80 81 81 79 79 79 80 81 81 81 82 82 83 82 82 82 83 83 81 81 80 79 80 80 79 79 79 79 78 79 79 78 78 78 78 78 78 78 78 78 78 78 77 76 76 75 75 74 74 74 74 67 64 65 67 71 71
75 77 80 81 80 79 79 79 79 78 79 80 80 81 81 81 81 81 81 82 82 83 83 82 82 81 80 80 80 80 79 79 79 78 78 78 78 78 78 78 78 78 78 78 77 78 78 77 77 76 76 76 75 74 74 74 69 64 63 64 65 68 72
76 77 79 81 80 79 81 81 81 80 80 81 81 81 82 82 81 80 81 82 82 83 82 82 82 81 80 80 80 79 79 79 79 78 78 78 78 78 78 78 78 77 77 77 78 78 77 77 77 76 76 76 75 75 75 75 68 63 62 63 64 65 69
72 77 81 81 78 78 79 80 81 82 81 81 81 83 84 83 83 83 83 83 82 81 81 81 81 81 80 80 80 80 79 79 79 78 78 79 78 78 78 77 77 78 78 78 78 77 77 77 77 77 76 76 75 75 76 75 67 62 61 62 62 64 67
70 69 69 72 75 78 77 79 80 80 79 80 81 82 82 82 82 82 81 81 81 81 81 81 81 81 81 80 80 80 80 79 79 78 79 78 78 78 77 77 77 78 78 78 78 77 77 77 76 77 76 76 76 76 75 76 65 60 60 60 60 63 65
67 68 72 73 73 75 77 79 80 81 81 83 82 82 83 83 84 82 81 81 81 81 81 81 81 81 80 80 80 80 80 79 79 79 79 78 78 78 77 77 77 77 78 78 78 78 78 77 78 77 77 77 77 76 75 77 63 60 59 59 59 62 68
68 67 68 67 70 74 72 73 75 77 77 78 81 82 83 84 84 82 80 79 81 81 81 80 80 80 80 80 80 80 80 80 79 79 78 78 78 77 78 77 77 78 78 78 78 78 77 78 78 78 77 77 76 75 75 76 65 59 58 58 59 62 70
68 68 68 68 68 68 69 71 76 78 79 79 80 83 84 84 82 80 78 78 79 80 79 80 80 80 80 81 81 81 81 81 80 79 78 78 78 78 78 79 79 78 78 78 77 77 78 78 78 78 78 77 77 76 76 76 66 56 57 57 58 63 70
67 67 67 68 67 68 68 68 70 76 76 77 78 78 78 78 78 78 78 79 80 80 80 80 80 81 81 81 81 82 82 81 80 80 79 79 79 79 79 78 78 79 79 79 79 78 79 78 78 78 78 78 78 72 75 77 68 55 57 56 57 63 71
65 66 67 68 68 68 67 68 70 73 75 77 78 78 78 79 78 78 79 79 79 79 79 80 81 82 82 82 82 82 82 82 81 81 81 80 80 80 80 80 79 79 78 78 79 79 79 78 78 77 77 77 77 76 76 76 73 59 56 55 56 59 69
65 66 66 67 67 69 68 68 67 68 70 71 73 75 77 79 79 78 78 78 77 78 80 82 82 82 82 82 82 82 82 82 82 81 82 82 81 81 80 80 79 79 78 78 78 78 77 77 77 77 77 76 76 77 75 76 73 60 55 55 56 57 62
65 66 67 67 68 67 68 68 68 68 68 68 69 73 75 76 77 77 77 76 77 79 82 82 81 80 80 80 81 81 82 82 82 83 82 82 81 79 79 80 80 79 79 79 78 77 76 76 76 76 76 74 74 75 75 73 68 62 55 56 55 56 58
65 65 64 65 65 67 67 66 66 66 67 68 68 68 71 74 75 75 74 76 78 80 81 80 79 79 79 79 80 80 81 81 81 81 82 81 81 80 79 79 79 79 78 78 77 76 75 75 74 74 73 71 70 70 71 70 67 60 60 56 55 54 55
66 66 66 67 67 66 67 66 66 66 67 67 67 68 67 70 73 74 74 76 80 78 78 78 79 79 79 79 79 80 81 81 81 81 81 81 80 80 79 78 78 78 78 77 76 75 74 73 73 72 70 68 67 67 68 67 68 61 59 59 55 54 54
65 66 66 66 66 67 67 66 66 66 67 67 67 67 67 67 68 70 73 73 72 74 77 79 79 79 79 79 80 80 81 81 81 81 81 81 80 79 79 78 78 77 77 76 75 74 73 72 71 70 69 68 67 66 66 66 66 65 61 59 56 54 53
66 67 67 67 66 66 66 67 67 67 66 67 67 67 68 68 67 66 66 68 69 70 72 75 77 77 78 79 79 80 81 80 80 80 80 80 80 80 79 78 77 77 75 74 74 74 73 69 69 69 68 68 67 66 66 66 66 65 63 61 58 57 54
65 66 65 65 66 66 66 66 66 66 66 65 66 66 68 68 69 68 67 68 69 70 71 71 73 75 75 78 79 79 79 79 79 79 79 79 79 79 79 78 78 76 73 74 74 73 71 69 69 68 68 67 66 66 66 66 66 64 62 61 60 59 57
64 65 66 66 66 65 64 64 64 65 65 65 65 65 67 68 69 69 68 68 69 69 70 70 71 72 74 75 75 74 75 75 78 77 75 77 78 77 77 76 76 75 73 73 73 72 70 69 68 68 68 67 66 66 65 65 65 63 61 59 59 58 57
64 64 65 65 65 65 64 64 64 64 64 64 64 65 66 67 68 68 68 68 68 67 68 68 68 69 70 71 72 73 73 74 74 74 75 74 74 71 72 74 73 72 70 67 67 70 70 69 69 69 70 69 67 66 65 65 63 64 58 61 57 58 58
64 64 65 66 66 66 66 66 66 65 65 65 66 66 66 66 67 68 69 68 69 68 68 68 68 68 69 69 69 71 72 73 74 73 73 71 60 56 53 52 55 66 69 64 61 63 61 61 68 68 69 67 66 69 66 65 66 55 52 50 50 50 53
63 64 64 66 66 66 66 66 67 66 66 66 67 67 67 67 68 68 68 68 67 68 67 67 67 67 67 68 67 67 69 71 73 73 71 65 63 61 58 55 49 44 47 51 56 56 55 54 55 57 60 66 65 58 55 56 51 49 48 47 47 47 47
65 64 65 65 64 64 64 65 65 65 65 66 67 67 67 68 68 67 68 68 67 66 65 65 65 64 64 65 65 64 64 65 67 70 68 64 63 62 61 58 54 50 44 47 49 47 47 48 49 51 53 56 59 59 57 50 47 46 46 46 46 46 46

ECMWFFLT1_sfc_temp_051.txt.gz
Temp
87 86 86 86 85 86 85 85 85 85 84 84 84 85 86 85 84 84 83 82 81 81 82 81 81 82 81 82 82 82 83 83 83 82 82 83 83 83 82 83 83 83 84 84 84 84 85 85 85 85 85 84 85 85 84 84 83 83 82 82 81 81 81
86 87 87 87 86 86 86 86 85 86 85 85 85 85 86 85 84 84 83 83 82 82 82 82 81 82 82 82 82 82 82 82 83 83 83 83 83 83 84 83 83 83 83 84 85 85 85 85 85 84 84 84 84 85 85 84 83 83 83 82 81 81 81
87 87 87 87 87 87 85 86 86 86 86 87 87 86 85 84 84 84 83 83 82 82 83 82 82 82 82 82 82 82 82 83 83 83 83 83 83 85 84 84 84 84 85 85 85 85 85 85 84 84 84 84 85 84 84 84 83 83 83 81 81 81 80
86 87 88 88 87 87 87 87 87 88 88 89 88 88 86 84 85 85 85 84 83 82 81 82 82 83 83 82 82 82 82 82 83 84 84 84 84 84 84 83 83 84 84 84 85 86 86 85 85 84 83 84 84 85 84 84 85 84 83 82 81 81 80
87 88 88 87 87 87 87 87 87 87 88 90 89 87 87 86 87 86 86 86 86 83 84 84 85 84 83 83 83 83 83 83 83 84 84 84 84 84 83 84 84 84 84 85 85 84 84 84 85 84 83 83 84 84 84 84 84 84 82 82 81 81 81
88 86 86 87 88 88 88 89 90 90 89 90 89 89 89 90 89 89 88 86 86 86 85 84 84 83 83 83 84 83 83 83 83 83 84 84 83 83 84 84 85 85 85 84 85 85 84 84 84 84 84 85 85 85 85 84 84 85 83 82 81 81 81
89 87 86 87 88 88 89 89 91 91 91 91 92 91 91 91 90 90 89 88 87 85 85 85 85 84 83 84 83 83 82 83 83 83 84 84 84 83 83 84 84 85 85 85 84 85 85 84 83 84 84 85 84 84 84 83 84 84 83 81 80 81 80
89 89 87 87 89 90 91 89 90 92 91 91 91 92 91 92 91 90 89 90 89 89 87 87 85 84 83 83 84 83 83 84 84 84 84 84 84 83 84 84 84 84 84 84 84 85 85 84 85 84 84 84 83 83 84 83 83 84 83 82 80 81 82
91 89 89 90 90 92 91 90 90 90 89 88 89 89 90 91 91 90 90 89 89 88 88 89 88 86 84 83 83 83 84 84 84 84 84 84 84 85 86 85 85 85 84 84 86 85 85 85 85 83 83 83 83 83 83 82 83 83 82 81 80 80 80
87 87 87 89 90 92 90 90 89 87 86 86 86 87 88 89 89 90 90 90 90 89 89 89 89 87 85 84 84 84 84 83 84 85 85 85 85 86 87 87 86 85 84 85 86 85 84 85 84 84 82 82 82 83 82 82 83 82 82 81 81 81 80
86 85 85 87 87 88 88 89 87 84 85 84 85 88 87 88 88 89 89 90 91 90 90 89 89 88 86 85 85 85 83 84 85 84 84 85 87 87 88 88 88 87 86 86 86 86 85 84 84 83 83 82 82 82 82 83 83 82 82 82 82 81 81
83 83 82 84 85 85 86 85 85 84 84 83 86 88 86 86 88 89 89 89 91 91 90 89 90 88 86 87 86 84 84 84 85 85 85 85 87 87 88 88 87 88 87 86 86 86 86 84 84 83 83 83 83 83 83 83 83 82 82 83 82 81 82
82 81 81 84 83 84 84 83 83 83 83 86 88 87 88 88 88 89 87 88 90 91 90 88 87 86 85 86 87 84 84 84 84 85 85 84 85 87 87 88 89 88 88 87 87 87 86 86 84 84 83 83 83 83 83 83 83 82 82 82 82 81 81
79 81 82 82 83 83 82 82 83 83 83 85 86 87 88 88 89 88 87 87 89 90 90 89 87 84 84 85 85 83 84 84 85 84 84 85 84 85 86 87 87 86 87 87 86 87 87 87 85 85 84 84 83 83 83 83 83 82 82 81 81 81 81
83 85 84 83 81 81 82 83 82 83 84 84 86 86 87 88 88 87 87 88 88 91 89 88 85 85 85 84 83 83 83 84 85 84 84 84 84 84 84 85 85 85 85 85 86 87 88 87 87 85 83 83 83 83 83 83 82 83 82 81 81 81 81
85 86 86 85 83 83 82 83 83 83 83 83 84 85 87 86 86 87 87 87 89 87 88 87 85 84 84 83 83 83 84 83 83 83 84 83 83 83 84 85 85 85 85 84 85 85 85 85 85 86 85 83 83 83 83 82 83 76 69 71 81 81 81
86 86 87 84 83 83 83 83 83 84 83 82 83 84 85 85 86 87 90 88 88 86 87 89 85 85 84 83 84 84 84 83 83 83 83 83 83 83 83 83 84 83 83 83 84 84 84 84 85 86 86 84 84 83 82 83 82 69 65 66 69 79 81
84 83 84 84 83 83 82 83 83 83 83 85 85 85 85 84 86 87 87 88 87 89 89 88 87 85 84 84 84 84 83 83 83 83 82 83 82 83 83 83 83 83 83 83 83 83 84 83 83 83 84 85 85 84 83 83 72 66 64 65 65 69 80
85 83 81 79 80 80 83 85 85 83 85 86 86 86 87 87 87 85 86 86 86 87 88 88 88 85 84 84 84 84 83 83 83 82 82 82 83 83 83 82 82 83 83 83 83 84 82 82 83 83 83 84 83 84 84 84 71 65 63 64 63 64 72
79 79 79 80 80 82 83 83 85 87 87 86 86 88 90 88 87 87 87 87 87 86 85 85 86 85 84 84 84 84 84 83 83 82 82 83 83 83 82 82 82 83 85 84 83 82 83 83 82 83 82 83 82 82 84 84 71 63 62 62 61 62 68
75 75 75 76 76 79 79 81 82 84 85 86 88 88 89 88 89 88 86 87 86 86 84 85 85 84 84 84 84 84 84 83 83 82 83 83 83 82 82 82 82 83 84 85 84 83 82 82 82 82 83 83 84 83 84 85 67 62 61 60 59 60 65
76 75 75 75 73 73 74 77 80 85 85 88 88 89 89 89 90 87 86 87 86 86 86 85 84 84 85 84 84 84 84 83 83 83 83 83 82 82 82 82 82 82 83 83 85 84 84 84 84 83 83 83 84 84 83 86 65 61 60 59 58 59 72
74 74 73 73 74 74 75 76 76 80 85 86 88 88 89 90 90 87 87 86 88 85 85 84 83 84 84 84 84 84 84 84 83 83 83 83 82 82 82 81 82 82 83 83 83 84 84 84 84 83 84 83 83 83 83 86 70 59 58 58 57 62 75
74 74 73 72 72 74 75 76 78 79 82 86 86 89 89 90 88 85 84 84 85 85 84 84 84 84 84 84 85 84 84 84 84 83 83 83 82 82 83 84 84 84 83 83 83 84 85 85 84 84 84 84 84 85 84 86 73 57 57 57 56 65 75
73 72 71 71 72 73 75 76 77 81 82 84 85 87 88 88 87 85 84 84 87 87 86 84 85 85 85 84 85 85 85 85 84 84 84 83 83 84 83 83 83 84 84 84 84 84 85 85 84 85 85 86 86 75 82 87 76 57 58 56 55 66 77
70 70 71 72 73 73 74 75 78 79 82 83 82 85 86 88 86 84 84 86 87 86 85 84 85 86 86 86 85 86 85 85 84 83 84 84 83 84 84 84 85 85 84 84 84 84 84 85 84 83 84 86 86 86 84 84 84 68 56 55 55 60 76
70 70 70 71 71 72 74 74 73 74 75 75 77 83 86 86 85 83 83 84 84 84 86 86 87 86 86 86 86 86 85 85 84 84 85 85 85 85 85 85 85 85 84 84 85 84 83 83 83 83 82 84 85 86 86 85 85 75 54 55 55 57 66
71 71 72 72 71 72 73 74 73 74 74 75 78 82 85 84 83 82 83 83 82 84 87 86 86 86 85 85 85 86 86 85 85 85 85 85 84 84 83 84 85 85 84 85 83 82 82 82 82 83 83 83 83 83 83 80 73 84 57 56 54 56 60
69 69 70 70 71 72 73 72 71 71 72 75 78 79 82 83 82 81 82 81 80 82 84 86 86 85 85 84 84 85 85 85 85 85 86 85 85 84 83 84 84 84 83 82 82 81 81 81 81 81 81 82 82 82 83 84 79 68 65 55 54 53 57
68 69 69 71 71 71 72 71 71 71 72 74 75 77 80 82 80 80 79 76 77 80 83 84 85 85 84 84 84 84 85 86 86 85 85 85 84 84 83 83 83 83 83 82 82 82 81 81 81 80 80 80 81 82 84 83 84 69 61 60 53 53 55
68 68 69 69 70 70 71 71 71 72 72 73 73 74 75 78 78 76 75 74 77 79 81 83 83 84 83 84 84 84 85 85 85 85 85 85 85 83 83 83 83 82 82 82 82 81 81 81 81 80 80 79 79 81 82 84 83 83 67 58 54 54 54
68 69 70 70 70 71 71 71 71 71 70 71 73 73 73 74 74 71 70 73 74 77 80 81 82 82 82 84 84 84 85 84 85 85 85 85 85 84 84 84 84 83 83 82 82 81 81 81 81 81 80 80 80 80 82 82 82 80 71 61 57 56 55
68 69 69 69 70 71 72 72 71 70 70 70 73 74 75 74 74 74 74 74 75 76 78 80 80 80 81 81 83 83 84 83 85 85 85 84 85 86 85 85 85 84 82 82 82 82 81 81 80 79 80 79 80 80 79 80 79 79 74 68 65 65 62
67 69 70 71 72 72 72 71 70 70 70 70 71 72 72 73 74 74 74 76 75 75 76 76 77 79 80 81 81 81 82 82 80 80 84 85 86 86 86 86 85 85 83 83 83 82 81 81 80 79 80 80 80 80 79 78 79 78 73 69 68 67 66
69 70 71 71 71 72 71 70 70 70 70 70 71 71 72 72 73 74 74 74 75 75 75 74 74 74 74 75 75 74 76 78 79 80 81 83 83 84 84 83 84 83 83 85 85 82 82 82 80 79 81 82 80 79 79 79 78 79 68 70 63 65 65
70 70 70 71 72 71 71 71 71 70 70 70 71 72 72 72 73 74 75 75 74 76 75 74 74 74 74 75 75 75 75 75 74 74 74 75 74 75 76 72 62 66 71 72 65 59 56 56 72 78 80 80 79 80 79 80 80 69 57 54 53 54 56
69 69 69 70 70 70 70 70 71 71 70 71 72 72 73 73 74 74 74 75 74 75 74 74 72 73 73 73 73 71 73 74 74 73 73 72 72 72 71 72 72 58 55 57 59 56 53 53 52 53 55 65 75 76 67 69 65 55 52 52 51 52 52
70 70 70 71 70 69 69 69 69 70 70 71 71 72 73 73 74 74 75 75 74 74 73 73 71 70 71 72 72 71 73 74 73 74 74 74 74 74 72 72 72 74 62 54 52 51 50 50 49 50 52 54 58 66 74 60 52 51 51 51 52 52 51

ECMWFFLT1_sfc_temp_054.txt.gz
Temp
98 96 95 94 93 93 93 92 91 91 91 90 90 91 91 91 90 89 89 87 86 85 86 86 86 86 86 86 86 87 87 87 88 87 88 88 89 89 88 89 89 88 90 90 90 90 90 91 91 91 90 90 90 89 89 89 88 89 88 88 87 87 87
98 97 97 96 95 94 93 93 92 92 91 91 91 90 92 91 90 90 89 88 87 86 86 86 86 86 86 86 87 87 86 87 87 87 88 88 88 89 90 89 89 88 89 90 91 91 91 91 91 90 90 90 89 89 90 89 89 88 89 88 87 86 86
98 98 98 96 95 95 92 94 93 93 92 93 93 92 91 89 89 89 89 89 87 87 87 87 86 87 87 87 87 87 87 87 87 88 87 89 89 91 90 89 89 90 90 90 91 91 92 91 90 90 90 90 90 89 89 89 89 88 88 88 87 86 86
97 98 98 97 96 95 94 94 93 94 95 95 94 93 91 89 91 90 90 90 88 87 86 87 87 87 87 86 86 86 86 87 87 88 89 89 89 89 89 89 89 90 90 90 92 92 92 91 91 90 89 90 89 90 90 90 90 89 88 87 87 87 86
97 98 98 97 97 95 95 95 94 93 95 97 95 92 92 92 92 92 91 91 92 88 89 89 90 89 88 88 88 88 87 87 87 88 89 89 89 89 89 90 90 90 90 91 91 90 90 90 91 90 89 89 90 90 89 89 90 89 88 87 86 87 87
98 97 97 97 97 97 96 96 97 97 96 97 96 94 95 95 95 95 93 91 91 92 90 89 89 88 87 88 89 88 88 88 88 88 88 89 89 89 89 89 91 91 92 90 92 91 90 90 90 90 91 91 91 91 90 90 90 90 88 87 87 87 88
98 97 96 97 98 98 97 97 98 98 98 98 99 98 97 97 96 96 95 94 93 90 91 91 90 90 88 89 88 88 87 88 88 88 89 89 89 89 89 89 90 91 91 91 90 91 91 89 89 90 90 91 90 90 89 88 89 89 88 87 86 87 87
100 98 97 97 99 101 100 98 98 99 98 98 99 99 98 98 97 97 95 96 95 95 94 93 91 89 88 89 89 89 89 89 90 90 89 89 89 89 90 90 90 90 90 91 90 91 92 90 91 90 90 91 89 89 90 89 88 90 89 87 86 86 88
101 99 99 100 100 102 101 99 98 98 96 96 96 96 98 97 98 96 96 96 95 95 94 96 94 92 89 89 88 88 89 89 90 89 89 90 90 92 92 92 91 91 90 91 92 91 91 91 91 89 89 89 89 88 88 88 88 89 89 87 86 86 87
99 97 96 98 99 101 99 99 97 95 94 94 94 94 96 96 96 97 97 97 98 96 96 96 96 94 90 89 89 89 89 89 90 91 92 91 91 92 93 94 92 91 91 91 93 92 90 91 91 90 88 88 88 88 88 88 88 88 89 88 87 87 86
97 95 94 96 96 96 97 98 95 92 93 91 92 95 95 95 95 97 96 97 98 97 97 96 96 95 92 91 91 91 89 90 91 90 90 92 93 93 95 95 95 93 92 92 92 93 92 90 90 89 88 88 88 88 88 88 88 88 89 89 88 88 88
92 92 91 92 93 94 94 93 93 92 91 91 93 95 93 93 95 96 96 96 99 98 97 96 97 95 93 93 92 90 89 89 90 91 91 91 94 94 95 96 95 95 94 93 92 92 94 91 90 90 88 88 89 88 88 88 88 87 88 90 89 88 89
93 92 91 93 91 93 92 91 91 91 91 93 95 95 95 95 95 96 94 95 98 98 97 95 94 92 92 93 93 90 90 90 90 91 91 91 91 94 95 95 97 97 95 94 94 94 94 94 91 90 89 89 89 89 88 88 88 87 87 88 88 88 88
88 92 93 92 91 91 90 90 90 90 90 92 94 94 95 95 96 94 94 94 96 98 98 97 94 91 91 91 90 89 90 90 91 90 90 91 90 91 93 94 95 94 94 94 93 94 94 95 93 92 91 90 89 89 89 88 88 88 87 87 88 88 88
96 96 93 92 90 90 90 90 89 90 91 92 93 93 94 95 95 94 93 94 94 98 97 95 92 91 91 90 89 89 89 89 90 90 90 91 90 90 91 92 92 93 93 92 93 94 95 95 95 92 90 90 89 89 89 89 88 89 88 87 87 88 88
98 100 98 95 92 92 90 91 91 90 91 90 92 92 94 93 92 94 94 93 95 94 95 94 91 90 89 89 89 89 89 89 89 89 89 89 89 88 89 91 91 92 92 92 92 92 92 92 93 94 92 90 89 89 89 89 89 81 73 76 87 87 88
98 99 100 99 94 93 93 92 92 91 90 90 90 91 91 92 93 94 97 94 94 92 94 96 91 90 90 89 90 89 89 88 88 88 88 88 88 88 88 89 90 90 90 90 90 90 90 91 92 93 94 92 91 89 89 89 88 71 68 69 72 85 87
97 96 98 100 97 95 92 92 91 91 91 93 92 91 91 91 93 94 93 95 94 95 96 95 93 91 89 90 89 89 88 88 88 87 87 87 87 88 88 89 88 88 88 89 89 89 90 90 90 90 92 92 92 91 90 90 76 67 66 67 68 74 87
97 98 98 97 94 92 95 97 96 92 94 95 95 93 94 93 94 91 92 92 93 93 95 95 94 90 89 90 89 88 88 88 88 87 87 87 87 88 87 87 87 88 88 89 89 89 88 88 89 89 90 91 90 91 91 91 72 65 64 66 66 68 78
98 99 101 101 98 97 95 94 95 96 96 94 95 98 97 95 94 93 93 94 94 92 91 91 92 91 89 89 89 88 88 88 88 87 87 87 87 87 87 87 87 88 90 90 88 87 88 88 88 88 88 88 89 89 91 92 72 64 63 64 64 66 72
95 95 95 95 92 95 93 90 90 91 91 94 96 96 96 95 96 94 92 93 92 91 90 91 90 90 89 88 89 89 88 88 87 87 87 87 87 87 87 87 87 87 89 90 89 88 87 87 87 87 88 89 90 89 91 93 68 62 61 61 61 63 69
97 98 96 95 92 89 87 89 89 91 91 94 95 97 97 96 97 95 92 93 92 92 91 90 89 90 89 88 89 89 88 88 87 87 87 87 87 87 86 86 86 86 88 89 90 90 90 88 89 89 88 88 89 89 89 92 66 60 60 60 60 62 77
98 96 92 89 89 88 86 85 85 87 87 89 93 96 96 97 97 94 93 92 94 91 91 90 88 89 89 89 89 89 89 88 88 87 87 87 87 86 87 86 86 87 88 88 89 90 89 89 90 89 89 89 88 88 88 91 73 59 59 59 58 64 81
93 89 89 87 84 84 83 84 86 86 87 88 90 94 96 97 95 92 90 90 91 91 90 90 89 89 89 89 90 89 89 89 88 88 87 87 87 87 87 89 89 88 88 88 88 90 91 91 90 89 89 90 90 91 89 91 76 57 58 58 57 67 81
91 90 86 83 84 85 85 84 83 85 87 87 89 92 94 95 94 91 90 90 94 94 92 90 90 90 90 90 90 90 90 90 89 89 89 87 88 89 88 88 88 89 89 90 89 90 90 90 90 90 90 93 93 78 86 92 80 56 58 56 56 68 81
83 82 83 83 84 84 82 81 83 85 87 88 88 92 94 95 94 90 90 92 94 93 91 90 90 91 91 91 90 91 90 90 89 88 89 88 88 89 89 90 90 90 90 90 90 90 91 91 90 90 90 93 92 92 91 90 91 71 56 55 55 60 80
82 80 80 82 83 80 82 83 83 85 86 86 87 92 94 94 92 89 89 90 90 90 92 92 92 91 91 90 91 91 91 91 90 89 90 91 90 90 90 91 90 90 90 90 91 90 89 89 90 90 89 91 92 93 92 92 91 79 54 55 55 57 68
81 80 81 80 78 80 83 85 83 85 87 86 88 91 93 92 89 88 88 89 89 91 94 93 92 91 90 90 90 91 92 91 90 90 91 90 89 88 88 89 90 90 90 91 89 87 87 87 88 89 90 90 91 91 90 86 76 90 58 56 54 56 60
79 78 79 79 79 81 83 82 82 83 84 87 89 89 90 90 88 87 87 87 89 91 92 92 91 90 90 89 90 90 90 90 90 89 90 89 89 88 87 88 88 88 88 88 88 87 86 86 87 86 87 87 89 89 89 89 85 72 69 55 54 54 57
76 76 77 80 80 80 82 81 81 81 82 84 85 88 89 88 87 87 87 86 87 89 90 90 90 90 89 89 89 89 90 91 90 89 89 88 88 88 87 87 87 88 87 87 87 87 86 86 86 86 85 86 87 88 89 87 89 74 64 63 53 54 55
74 74 75 75 78 79 81 80 79 80 81 82 82 84 86 88 85 83 82 83 87 87 88 88 88 88 88 89 89 88 90 90 90 89 89 89 89 87 87 87 87 86 87 86 86 85 85 86 87 85 85 85 86 87 88 88 88 91 72 59 55 54 54
73 74 75 77 77 78 79 80 81 82 80 81 82 82 82 83 83 80 80 83 85 87 88 88 87 87 87 89 89 89 90 89 90 90 90 90 90 89 89 88 88 88 87 87 87 86 85 85 86 86 86 86 86 86 87 87 89 88 86 65 60 57 56
74 76 76 76 77 77 79 80 79 79 80 79 81 82 83 83 82 81 82 83 85 86 87 87 87 86 87 87 89 89 89 88 91 91 90 89 90 91 90 90 89 88 86 87 88 87 86 86 86 85 86 85 86 87 86 87 88 88 88 76 71 70 67
74 75 76 77 77 77 78 78 78 77 79 79 79 80 80 81 82 84 84 84 85 86 86 85 85 86 86 87 88 88 88 87 87 88 91 91 90 91 91 90 89 88 85 85 86 86 86 86 85 84 85 85 86 85 85 86 87 88 89 84 77 76 75
75 75 76 76 76 76 76 76 76 76 76 78 80 81 80 80 81 82 82 83 83 83 82 80 79 82 82 83 83 82 85 86 85 87 89 91 89 90 85 84 88 85 86 87 86 85 84 85 83 82 84 84 83 83 84 86 86 89 74 86 67 74 76
75 75 75 75 76 76 76 76 76 75 76 77 78 79 79 80 82 83 85 84 83 82 81 80 81 81 81 81 81 82 82 82 82 84 84 85 83 83 82 72 62 73 83 85 73 61 55 58 75 78 78 78 81 83 82 83 87 67 60 58 56 58 60
73 73 74 75 75 74 75 75 75 76 76 76 77 78 78 77 78 79 81 82 83 83 82 83 82 83 83 84 83 81 84 84 84 83 82 82 82 82 81 84 79 53 49 57 58 54 50 47 48 48 51 65 74 74 63 60 56 53 54 53 51 53 55
75 74 74 75 75 74 74 75 75 75 75 77 77 77 77 78 78 78 79 80 81 81 81 81 80 80 80 81 80 80 81 82 82 82 82 82 83 83 83 85 82 80 59 50 58 55 48 47 46 46 46 46 50 56 66 59 53 49 48 50 51 51 52

ECMWFFLT1_sfc_temp_057.txt.gz
Temp
101 101 100 99 97 98 97 95 95 95 94 94 93 94 95 94 92 91 90 88 87 87 87 87 88 88 87 88 88 88 89 89 89 89 89 90 90 90 90 91 90 90 92 92 91 91 92 92 93 93 92 91 91 91 91 90 90 90 90 89 89 89 88
100 101 102 101 99 98 97 96 95 96 95 94 94 93 95 93 92 92 90 89 88 87 87 88 87 88 88 88 88 88 88 89 89 89 90 89 90 90 91 91 90 90 90 92 93 92 92 93 93 93 92 92 91 91 91 90 90 90 90 89 88 88 88
99 102 102 101 99 99 96 98 96 96 95 96 95 95 94 92 92 91 91 90 88 88 88 88 88 88 88 88 88 88 89 89 89 90 90 91 91 93 92 91 91 92 92 92 93 94 94 93 92 92 92 92 92 90 90 90 90 90 90 89 89 88 87
98 101 103 102 100 98 98 98 96 97 98 98 96 96 94 92 93 93 92 91 89 89 87 88 89 89 89 88 88 88 88 89 89 91 91 92 91 91 91 91 91 92 92 92 94 94 95 93 93 92 91 91 91 91 91 91 91 90 90 89 89 89 88
99 102 102 101 101 99 98 98 98 96 98 99 98 95 95 95 95 95 94 93 93 90 91 91 92 91 90 90 90 90 89 89 89 91 91 92 91 91 91 92 92 92 92 94 93 92 92 92 93 92 92 91 92 91 91 91 91 90 89 89 88 89 88
102 100 101 102 101 101 99 100 100 100 99 99 98 97 97 98 97 97 96 93 93 93 92 91 91 90 89 90 91 91 90 89 89 89 91 91 91 91 92 92 93 93 94 93 94 93 93 93 93 93 93 93 93 93 92 91 91 91 89 89 88 89 89
101 101 101 102 103 102 101 100 102 101 100 101 101 100 99 99 98 97 97 96 95 92 93 93 93 92 90 90 90 90 89 90 90 90 91 92 92 91 91 92 92 94 94 93 93 94 93 92 92 92 92 93 91 93 91 90 90 91 89 88 87 88 88
102 101 102 103 105 104 104 101 101 102 101 101 101 101 100 99 99 98 97 98 97 97 95 95 93 91 90 91 91 91 91 91 92 91 91 92 92 91 92 92 92 92 93 93 93 93 94 92 93 93 93 93 92 91 92 90 89 92 90 88 87 88 89
104 102 103 104 105 107 106 103 102 102 99 99 99 99 99 99 99 98 98 98 97 97 96 98 96 94 91 91 90 90 91 92 92 91 91 92 93 94 94 94 93 93 92 94 95 93 93 93 93 91 91 91 91 90 91 90 90 91 90 89 88 87 89
102 101 101 104 102 107 102 104 102 99 98 97 97 97 98 98 98 99 99 99 99 98 98 98 97 96 93 92 92 92 91 91 92 93 93 94 94 94 95 96 95 94 93 94 96 95 93 93 93 92 90 91 91 91 90 90 91 90 91 89 89 88 87
103 101 101 103 103 103 104 104 100 96 96 94 95 99 98 98 98 99 98 100 100 99 100 98 98 97 94 94 94 94 91 92 93 93 93 94 95 96 97 98 98 96 95 95 95 96 94 92 93 91 90 91 90 90 90 90 90 90 91 91 90 89 89
99 98 96 98 99 100 101 98 97 95 95 94 97 99 96 96 98 100 99 99 101 101 99 99 100 98 95 95 94 92 92 92 93 94 94 94 96 97 98 99 98 98 96 96 95 95 97 94 93 92 91 90 91 91 90 90 90 89 90 92 91 90 90
98 96 95 98 97 98 97 96 95 95 94 97 99 99 99 99 98 99 97 98 101 101 100 98 97 95 95 95 95 93 92 92 93 93 94 94 95 97 98 99 100 100 98 97 96 96 97 97 93 92 92 91 91 91 90 90 90 89 89 90 90 90 89
95 98 98 97 96 95 95 95 95 95 94 97 98 98 99 100 100 98 97 98 99 101 102 101 97 94 93 94 93 92 93 92 94 93 93 94 93 94 97 98 98 97 97 97 96 97 97 98 96 94 93 92 92 91 91 90 90 89 89 89 90 90 89
100 100 98 97 94 94 94 94 93 94 95 96 98 97 98 99 99 97 97 98 98 102 101 99 95 94 95 93 92 91 92 92 93 93 93 94 93 93 94 96 96 96 96 96 96 97 98 98 98 95 92 92 91 91 92 91 90 90 90 89 89 90 90
102 102 100 98 96 96 94 94 94 93 94 93 95 95 98 97 96 98 98 98 100 97 99 98 95 94 93 92 92 92 92 91 91 92 92 92 92 91 93 95 95 96 96 95 96 95 95 95 96 97 95 92 91 91 91 91 91 84 75 78 89 89 90
101 102 102 100 96 97 96 95 95 94 93 93 93 95 95 96 96 98 100 98 98 95 97 100 95 95 94 92 93 92 91 91 91 91 90 91 91 91 91 92 94 93 93 93 94 94 93 94 95 97 97 94 93 92 91 91 91 74 69 71 74 87 89
99 99 101 102 101 99 97 97 96 95 94 96 96 95 95 94 97 97 97 98 98 99 100 99 98 95 92 94 92 92 91 91 91 90 90 90 90 90 91 92 92 92 92 93 93 92 95 94 93 93 95 95 94 93 92 92 79 69 68 69 70 75 89
98 99 99 99 99 99 101 102 100 96 98 99 98 97 98 97 98 94 95 96 96 97 98 99 99 94 92 93 92 91 91 90 90 90 90 90 90 90 90 90 91 91 92 93 93 93 91 91 93 92 93 94 93 93 94 93 75 67 67 68 68 69 80
99 100 101 102 102 103 103 102 101 103 102 100 100 102 101 99 98 97 97 97 97 95 94 94 96 94 92 91 91 91 91 90 90 89 89 90 90 90 90 90 89 92 94 93 92 91 91 92 91 92 91 92 92 92 94 94 75 65 65 66 66 67 73
97 98 98 98 98 101 100 99 97 98 98 101 103 101 101 99 100 98 96 96 96 95 93 94 94 93 92 91 91 91 91 90 90 89 89 89 89 89 89 89 89 90 92 93 92 91 90 90 90 91 91 92 93 93 95 97 71 63 63 63 63 65 69
99 100 100 101 99 95 93 97 96 98 97 98 100 102 102 101 101 98 95 96 96 96 94 93 92 93 92 91 91 91 90 90 89 89 89 89 89 89 89 89 88 88 90 92 93 93 92 91 92 91 91 91 92 93 92 96 68 61 62 62 62 63 78
102 102 102 101 102 98 93 92 92 94 94 94 96 99 101 102 102 99 97 96 97 95 94 93 91 92 91 91 91 91 91 90 90 89 89 89 89 89 89 88 88 89 90 90 92 93 92 91 92 91 92 91 91 90 90 94 74 59 60 61 60 65 81
104 103 103 101 96 94 93 92 92 93 93 93 93 96 98 101 100 97 94 93 94 95 93 93 92 92 92 91 91 91 91 91 90 89 89 89 89 89 90 91 91 90 90 90 91 92 94 93 92 91 91 92 92 93 91 93 77 57 59 59 58 67 82
105 100 95 93 92 93 93 91 89 90 91 91 92 94 96 98 98 96 94 94 96 96 95 93 92 93 92 92 92 91 92 92 91 91 91 89 90 91 90 90 90 91 91 92 92 92 92 93 92 92 92 95 94 82 89 93 81 56 59 57 58 68 82
90 91 93 92 94 91 88 87 87 87 90 91 91 93 95 98 97 94 94 95 97 95 94 93 93 93 93 93 92 93 92 92 90 90 91 90 90 91 91 91 92 92 92 91 92 92 93 93 93 92 93 95 94 94 93 92 93 72 57 56 57 60 81
90 89 89 91 90 84 87 89 89 89 91 92 91 94 96 97 96 93 92 92 92 92 95 95 94 93 93 92 93 93 93 93 92 91 92 92 91 92 92 93 92 92 91 92 93 92 91 92 92 93 92 94 95 95 94 94 93 81 56 56 56 57 67
89 90 91 88 84 84 87 90 88 89 92 92 91 93 96 95 92 92 91 91 91 93 97 96 94 93 92 92 92 94 94 93 92 92 93 92 91 90 90 92 92 92 92 93 91 90 89 90 90 91 92 93 94 94 93 90 80 93 58 57 54 56 58
84 85 85 85 88 88 88 88 88 88 88 92 94 93 93 94 91 91 90 89 91 94 95 95 94 93 92 91 92 92 92 92 92 92 93 92 92 91 90 91 91 91 90 90 90 89 89 88 89 88 89 90 91 91 92 92 87 74 73 56 54 54 56
84 84 85 89 89 87 87 85 85 86 86 88 89 91 92 92 90 90 89 89 92 94 94 94 93 92 91 91 91 92 92 93 93 92 92 92 91 90 90 89 90 90 90 89 89 89 88 88 88 88 88 88 89 90 92 91 93 79 67 64 53 54 54
83 82 83 82 85 85 86 86 84 85 85 87 88 90 91 92 90 89 88 91 93 92 93 93 92 91 90 91 91 91 93 93 92 92 92 92 91 89 89 89 89 88 88 88 88 88 88 88 89 87 87 88 87 89 89 91 91 95 75 60 56 54 53
81 81 82 82 82 83 84 85 85 85 83 85 87 88 89 91 91 88 88 89 90 92 92 91 90 89 90 91 91 91 92 92 92 92 92 91 92 91 90 90 90 89 88 88 88 88 87 87 88 88 87 87 88 88 89 89 91 91 89 67 61 57 55
80 80 80 81 81 82 83 84 84 84 84 84 86 87 88 87 87 87 87 89 90 91 91 90 89 89 89 90 91 91 91 91 92 92 91 90 92 92 91 91 91 89 87 87 88 88 88 88 87 87 87 87 88 89 89 89 91 91 92 88 77 74 68
79 79 80 80 81 82 83 82 82 81 81 80 83 85 86 86 86 87 88 90 91 91 90 88 88 88 89 90 91 90 90 90 90 90 92 92 92 94 94 94 93 92 88 89 89 88 88 89 88 87 88 88 90 89 89 90 90 92 90 83 79 81 80
79 78 79 79 80 81 80 79 80 80 80 80 81 82 83 84 85 86 87 88 89 89 88 87 86 88 89 90 90 89 90 90 90 91 93 93 92 87 83 85 94 92 91 84 83 85 86 88 87 87 87 87 85 84 84 85 87 82 56 63 57 64 77
78 78 78 79 80 80 79 79 80 80 80 80 81 82 83 84 85 85 86 86 87 86 85 84 85 86 86 87 87 88 88 89 90 91 93 95 89 85 80 65 55 68 85 80 64 53 54 60 75 73 78 80 82 81 79 80 79 56 50 49 48 48 49
76 76 77 78 78 78 78 79 79 79 79 80 80 80 81 81 82 83 85 85 86 86 85 85 84 84 85 85 85 83 85 87 87 86 86 87 87 87 83 84 77 50 50 61 60 54 48 45 44 48 55 68 78 73 61 59 53 48 47 45 45 45 45
77 77 77 78 78 77 78 78 78 79 79 80 80 80 80 81 82 83 85 85 86 87 87 87 86 85 84 85 85 84 86 86 86 87 86 87 86 86 86 86 81 80 57 48 53 49 44 44 43 43 45 48 54 63 73 62 53 48 46 45 44 45 44

ECMWFFLT1_sfc_temp_063.txt.gz
Temp
88 87 87 87 86 86 84 84 85 86 86 85 86 86 86 86 85 83 82 81 81 80 81 81 81 81 81 81 81 81 82 81 81 81 81 82 82 81 81 81 81 80 81 81 81 82 82 83 83 83 82 82 82 81 81 81 81 82 81 80 81 80 80
86 87 87 87 86 85 85 85 85 86 86 86 86 86 87 86 85 83 82 82 81 81 81 81 81 81 81 81 82 81 81 81 82 82 82 81 81 81 82 82 82 80 81 82 81 82 82 83 84 82 82 82 83 82 81 81 81 81 82 80 80 79 79
86 87 87 87 86 85 84 85 85 87 87 87 87 87 86 85 85 84 83 82 81 81 82 81 82 81 82 81 81 81 81 81 81 81 81 82 82 83 83 83 83 83 82 82 82 81 83 83 83 83 83 82 83 82 82 81 81 81 81 81 80 80 79
87 87 88 87 87 86 86 86 86 87 89 89 88 88 87 85 86 85 84 83 82 81 80 81 82 82 81 81 81 81 81 81 82 82 83 83 82 83 82 82 83 84 82 82 84 84 84 83 83 83 84 82 82 83 83 82 82 81 81 80 80 80 80
87 88 88 87 87 86 85 86 86 87 88 89 89 88 88 87 87 86 85 85 84 82 82 82 83 83 82 82 82 81 81 82 82 82 83 83 83 83 83 82 83 84 84 84 83 83 83 83 83 83 83 82 82 82 82 82 82 81 81 80 80 80 79
87 87 87 87 87 87 87 87 88 89 89 89 89 88 89 88 88 87 86 85 84 84 84 83 82 82 82 82 82 82 82 82 82 82 83 83 82 83 83 83 83 84 84 84 85 84 84 84 84 83 83 83 83 83 83 83 83 82 81 81 80 80 80
87 88 87 87 88 88 88 89 89 90 91 91 91 90 90 89 88 88 87 86 85 83 83 83 83 83 82 82 82 82 81 82 82 82 83 83 83 83 83 83 83 84 85 84 84 84 83 83 84 84 84 83 83 83 82 82 82 82 81 81 80 80 80
88 88 87 88 88 89 89 89 90 91 92 91 91 90 90 90 89 89 87 87 86 85 85 84 83 83 83 83 83 82 82 82 83 83 83 83 83 83 83 83 83 84 84 84 84 85 85 83 84 84 84 84 83 83 83 82 82 82 82 81 80 80 81
88 88 88 89 89 90 90 89 90 90 90 91 90 89 90 90 89 89 88 88 87 86 85 86 85 85 84 83 82 82 82 83 82 82 82 83 83 84 84 84 84 84 84 84 85 85 86 85 84 83 84 84 83 82 82 82 82 83 82 81 80 80 80
87 87 87 90 91 91 90 90 89 89 88 89 89 88 89 89 90 89 89 89 88 86 86 86 86 86 84 83 83 83 83 82 82 83 83 83 84 84 85 85 85 84 84 85 86 84 85 85 85 83 83 83 83 82 82 82 82 82 82 82 81 81 80
89 87 87 88 89 89 89 90 88 87 88 88 88 89 89 89 89 90 89 89 88 87 87 87 87 86 85 84 84 83 83 83 83 83 83 83 84 85 86 86 86 85 85 85 86 86 85 84 85 84 83 83 83 83 83 83 83 82 82 82 82 82 81
88 87 86 88 88 88 89 88 88 87 87 88 89 89 88 88 90 90 90 90 90 89 88 87 88 87 86 85 84 83 83 83 83 83 83 84 85 85 86 87 86 86 86 86 86 86 86 85 85 85 84 83 84 83 83 83 83 82 83 83 83 82 82
88 86 86 88 88 89 88 86 86 86 87 88 90 90 89 89 90 90 89 89 90 90 89 88 87 86 85 85 85 83 83 83 83 84 84 84 85 86 86 87 87 87 86 87 87 87 86 86 85 84 84 84 84 84 83 83 83 83 82 83 83 82 81
88 87 88 89 88 86 85 85 85 85 86 88 89 90 89 90 90 90 89 89 90 91 90 90 87 86 85 85 84 84 84 84 85 84 84 85 84 85 86 87 87 87 86 86 87 87 87 86 85 85 85 85 84 84 84 83 83 83 83 83 83 82 82
88 88 85 87 86 86 86 85 85 85 86 88 89 89 89 89 90 90 89 90 90 92 91 89 87 86 86 85 84 84 84 84 85 85 85 85 84 84 85 86 86 86 86 86 87 87 88 88 87 85 84 84 84 84 84 84 83 84 83 82 82 83 82
89 89 86 86 86 85 85 86 86 86 86 87 89 89 89 89 89 89 89 90 91 90 91 89 87 86 85 85 84 85 85 84 84 84 84 84 84 84 85 86 86 87 86 86 86 87 87 87 86 86 85 84 84 84 84 84 84 80 74 76 83 83 83
87 86 85 86 84 85 83 84 85 85 85 86 88 89 89 89 89 90 91 90 90 89 90 90 87 87 86 85 85 85 85 84 84 84 83 84 84 84 84 84 85 85 85 85 85 86 85 86 86 87 86 85 85 84 84 84 84 73 69 70 73 81 83
84 84 85 85 85 84 83 84 84 84 85 87 89 89 89 88 89 89 90 90 90 91 92 90 89 87 86 86 85 85 84 84 84 83 83 83 83 83 84 85 84 84 84 85 85 84 86 86 86 86 86 86 86 85 84 84 77 70 68 68 68 73 83
85 85 83 82 83 84 86 86 85 85 87 89 89 89 90 88 89 88 89 89 89 90 91 91 90 87 86 87 85 85 84 84 84 83 83 83 83 84 83 83 84 84 84 85 85 85 84 84 85 85 86 85 84 85 85 85 75 68 67 67 67 67 75
85 85 86 84 84 85 82 82 84 86 87 86 87 90 91 89 88 88 89 90 89 89 89 89 89 87 86 86 85 85 85 84 84 83 83 83 84 84 83 83 83 85 86 86 85 84 84 85 85 85 85 85 84 84 86 85 75 67 66 66 65 66 69
84 82 82 82 81 81 80 81 81 82 82 85 87 86 87 86 87 86 85 87 87 88 88 89 89 86 85 85 85 85 85 84 84 83 83 83 83 83 83 83 83 84 85 86 85 84 84 84 84 85 85 86 85 84 85 87 73 65 64 64 63 65 67
82 83 81 81 80 80 82 84 84 84 83 86 87 88 89 88 87 85 85 85 86 87 88 87 87 85 84 85 86 85 85 85 84 84 84 83 83 83 83 83 83 83 84 85 86 86 86 85 86 85 85 86 86 86 84 87 71 65 64 63 63 64 72
83 82 82 82 82 81 81 83 83 84 83 81 83 85 87 88 88 86 85 85 86 85 86 85 85 86 83 85 85 85 85 85 85 84 84 84 83 83 83 83 83 83 84 84 85 85 85 85 86 86 86 85 85 85 86 86 74 64 62 62 61 64 76
84 83 82 82 81 81 80 80 81 82 82 81 80 81 83 87 86 85 83 83 84 83 84 85 85 86 84 84 85 85 86 85 85 84 84 84 83 83 84 84 85 85 84 84 85 86 86 86 86 86 86 86 86 86 86 87 77 62 61 60 60 66 77
84 83 82 81 81 80 79 78 79 81 80 80 80 80 81 83 85 82 83 84 86 86 85 85 85 85 85 83 84 85 86 86 86 85 85 84 84 85 84 84 84 85 85 85 86 86 86 86 86 85 86 87 87 81 84 87 81 62 59 59 59 65 77
80 81 82 82 81 81 78 79 78 78 79 80 81 81 81 83 83 82 82 84 86 86 85 85 85 85 85 83 84 85 86 86 85 85 85 85 84 85 84 85 85 85 85 85 85 85 86 86 85 85 85 86 86 87 85 86 86 75 56 57 56 59 74
81 81 80 81 81 82 80 80 80 79 80 80 80 82 82 82 81 79 79 80 81 84 87 86 84 83 83 83 84 85 85 86 86 85 86 86 85 85 85 85 85 84 84 84 85 85 84 85 84 85 84 85 86 86 86 86 85 81 55 55 55 57 63
80 80 82 80 81 81 79 80 79 80 82 80 83 83 82 81 79 79 78 78 81 84 86 83 83 83 83 83 84 85 85 86 85 86 86 85 84 83 83 84 85 85 84 84 83 82 82 83 82 82 82 83 85 85 85 84 78 86 59 55 54 55 56
76 77 77 77 78 80 80 77 78 78 78 81 81 80 80 79 78 78 79 79 80 82 83 84 83 83 83 83 83 83 84 84 84 85 86 84 84 83 82 82 83 84 83 82 82 81 81 81 82 81 79 79 81 82 84 84 81 73 72 55 55 53 54
76 76 77 79 79 78 79 77 76 77 77 79 78 78 79 79 78 78 78 79 81 82 83 83 83 83 83 82 83 83 84 84 84 85 85 84 83 83 82 82 82 82 82 81 81 81 80 80 80 80 80 78 78 80 81 82 83 75 70 65 55 55 54
75 75 75 75 77 77 77 77 76 77 77 78 78 78 79 79 78 78 78 80 81 81 82 82 82 82 81 82 82 82 84 84 84 84 84 84 83 82 82 81 82 81 80 81 81 80 80 79 80 79 79 78 77 78 78 81 81 76 63 59 56 55 54
74 74 75 75 75 76 76 76 76 76 76 77 78 79 79 79 78 77 78 81 81 81 81 81 81 81 81 81 82 82 84 83 84 83 84 83 83 83 82 82 82 81 79 81 81 81 80 78 79 79 79 78 79 78 79 79 75 70 69 63 60 57 54
73 74 73 74 75 76 74 75 75 75 75 75 77 78 79 79 79 78 79 80 82 83 83 80 80 80 80 81 81 82 82 83 82 82 83 82 82 83 83 83 82 81 79 81 81 80 79 79 78 78 78 77 77 78 76 70 69 69 67 68 68 66 61
72 73 73 74 74 75 74 74 73 74 73 74 75 76 77 78 79 80 80 81 81 81 80 80 80 80 80 81 81 81 82 81 85 83 82 82 83 84 84 83 81 81 80 80 81 79 78 78 78 78 79 78 79 77 70 67 66 64 65 64 65 66 66
72 72 72 73 73 75 73 73 73 73 73 73 74 75 75 77 78 79 80 80 80 80 79 78 79 80 80 80 80 80 81 80 81 81 78 70 63 58 56 63 77 78 69 66 67 78 81 78 76 74 74 74 74 72 68 67 65 63 57 58 55 62 65
72 72 72 73 74 74 73 74 73 72 72 72 73 75 75 75 76 78 80 80 80 80 78 78 78 79 79 79 79 80 79 80 79 77 75 73 69 67 65 57 47 54 67 66 60 56 61 64 72 73 71 68 66 69 69 67 66 53 47 47 47 46 49
71 71 72 73 72 72 72 72 73 73 72 72 73 73 74 75 76 77 78 78 78 78 78 78 77 77 78 79 80 78 80 79 78 75 73 71 71 69 67 65 62 48 46 53 56 53 50 50 52 56 62 69 66 60 56 56 49 44 45 44 45 47 46
72 72 72 72 73 72 71 72 71 72 72 72 73 74 74 75 76 77 78 77 77 78 77 76 75 74 74 76 76 76 77 77 76 74 72 71 71 71 69 68 66 64 52 46 50 51 49 49 49 50 52 56 58 60 57 49 44 43 42 44 43 44 44

ECMWFFLT1_sfc_temp_069.txt.gz
Temp
83 82 82 83 82 82 82 82 82 83 83 82 82 82 82 81 81 80 79 78 78 77 78 78 78 78 78 78 78 79 79 78 78 77 77 77 77 77 76 76 76 76 76 76 76 76 77 77 77 78 77 77 77 77 77 77 77 77 77 76 76 75 75
81 82 82 83 82 82 83 83 82 83 83 83 82 82 82 81 81 80 79 79 78 78 78 78 78 78 78 78 79 78 78 78 78 78 77 76 77 77 77 77 76 76 76 77 77 77 77 77 78 77 77 77 77 77 77 77 77 76 76 76 75 75 75
81 82 82 82 82 82 82 83 83 84 83 84 83 82 82 81 81 80 80 79 78 78 78 78 78 78 78 79 78 78 78 78 78 78 77 77 77 78 77 77 77 77 77 77 76 77 77 77 77 77 77 77 77 77 77 77 77 77 76 76 76 75 75
81 82 83 83 83 83 83 83 83 84 84 84 84 83 82 81 82 81 81 80 79 79 77 78 78 78 78 78 78 78 78 78 78 78 78 78 77 77 77 77 77 77 76 76 78 78 78 78 77 77 78 77 77 77 77 77 77 77 76 76 75 76 75
82 83 83 82 83 82 82 83 83 83 84 85 85 83 83 82 82 82 81 81 81 79 79 79 80 79 79 79 79 78 78 78 78 78 79 79 78 77 77 77 77 77 77 78 77 77 77 77 77 77 77 77 77 77 77 77 77 77 76 76 75 75 75
81 81 82 82 83 83 83 84 84 84 84 84 84 83 83 83 83 82 82 81 81 81 80 80 79 79 78 79 79 79 79 78 78 78 78 78 78 77 77 77 78 78 77 77 78 77 77 77 77 77 77 77 78 78 77 77 77 77 77 76 76 76 75
82 82 82 83 83 83 83 84 85 85 85 86 85 85 84 84 83 83 82 81 81 80 80 79 80 79 79 79 79 78 78 78 78 78 79 78 78 78 78 78 78 78 79 77 77 78 77 77 77 77 78 78 77 77 77 77 77 77 77 76 76 76 76
83 83 83 83 84 84 84 84 85 85 85 85 85 84 83 84 83 83 82 82 82 81 81 80 80 79 79 79 79 78 78 78 79 79 78 78 78 78 78 78 78 78 77 77 78 78 78 78 78 78 78 78 77 77 77 77 77 77 77 76 76 76 77
84 84 84 84 84 85 85 84 84 85 84 84 84 83 83 83 83 83 82 82 82 81 81 81 81 80 80 79 78 78 79 79 78 78 78 78 78 78 78 78 78 78 78 78 78 78 78 78 78 78 78 78 78 77 77 77 77 78 77 77 76 76 76
82 82 83 85 85 86 85 84 84 83 82 82 82 82 82 83 83 83 83 83 82 81 81 82 82 81 80 79 79 79 79 78 78 78 78 78 78 78 79 79 79 79 78 79 79 78 78 79 78 78 77 77 77 77 77 77 77 77 77 77 77 76 76
82 82 82 83 83 83 83 83 81 81 82 81 82 83 83 83 83 83 83 83 83 82 82 82 82 81 80 79 79 79 78 78 78 78 78 78 79 79 79 80 80 79 79 79 79 79 79 78 78 78 77 78 78 77 77 78 78 77 77 78 78 77 77
80 80 80 81 82 81 81 81 81 81 81 81 82 83 82 82 83 83 83 83 84 83 82 82 83 81 80 80 79 78 78 78 78 78 78 78 79 79 80 80 80 80 80 80 79 79 80 79 78 78 78 78 78 78 78 78 78 78 78 78 78 77 78
81 80 80 80 81 81 81 79 80 80 80 82 83 83 83 83 83 84 83 82 84 84 83 82 82 81 80 80 80 78 78 78 78 79 79 79 79 80 80 80 80 80 80 80 80 80 80 80 79 79 79 78 79 78 78 78 78 78 78 78 78 78 77
81 80 80 80 80 79 79 79 80 80 80 81 82 83 83 84 84 83 83 82 83 84 83 83 81 80 80 80 79 78 78 79 79 79 79 79 79 79 80 80 80 80 80 80 80 80 80 80 80 80 80 79 79 79 79 78 78 78 78 78 78 78 78
79 79 79 79 79 79 79 79 79 79 80 81 82 82 82 83 83 83 83 83 83 84 83 83 81 80 80 79 78 78 79 79 79 79 79 79 78 78 79 79 79 80 80 80 80 80 81 81 81 80 79 79 79 79 79 78 78 79 79 78 78 78 78
79 79 79 79 79 80 80 80 80 79 80 80 81 81 82 82 82 83 83 83 83 83 83 82 81 80 79 79 79 79 79 79 79 79 79 78 78 78 78 79 79 79 79 79 80 80 80 80 80 80 80 79 79 79 79 79 79 76 71 72 79 78 78
79 79 79 80 79 80 80 80 80 79 79 79 80 81 82 82 83 83 84 83 83 82 83 83 80 80 80 79 80 79 79 78 78 78 78 78 78 78 78 78 79 78 78 78 79 79 79 79 79 80 80 80 80 79 79 79 80 71 67 67 69 77 78
78 78 79 80 80 80 80 80 79 78 79 80 81 82 82 82 83 83 83 83 83 84 84 83 81 80 80 80 80 79 79 79 78 78 78 78 78 78 78 78 78 78 78 78 78 78 79 79 79 79 80 80 80 80 80 80 73 68 66 66 66 69 78
79 79 80 79 79 80 80 80 80 79 80 81 82 83 84 84 83 82 83 83 83 84 83 83 82 81 80 80 80 79 79 79 78 78 78 78 78 78 78 78 77 77 77 78 78 79 78 78 79 79 79 80 79 79 80 80 72 67 65 65 65 64 70
79 80 80 81 81 81 81 81 81 81 82 82 83 84 85 85 84 84 84 84 83 83 82 82 82 81 80 80 80 80 79 79 79 78 78 78 78 78 78 77 77 78 79 79 78 78 78 78 78 79 78 79 79 79 80 80 73 67 64 64 63 64 66
72 74 77 78 79 80 80 80 80 80 80 82 83 84 84 84 84 83 82 83 82 83 82 82 82 81 80 80 80 80 80 79 79 78 78 78 78 78 78 78 78 78 79 79 79 78 78 78 78 78 79 79 80 80 80 81 71 65 63 62 61 62 64
69 73 73 73 75 74 75 77 79 80 81 83 83 83 84 84 84 83 82 83 83 82 82 82 81 81 81 80 80 80 80 80 79 79 79 78 78 78 77 78 77 77 78 79 80 80 79 79 79 79 79 79 80 80 79 82 70 64 62 61 61 61 68
72 71 72 72 73 72 73 75 76 77 78 78 81 82 83 83 84 83 82 81 83 82 82 81 81 81 81 81 81 81 81 80 80 79 79 79 78 78 78 78 78 78 79 78 79 79 79 79 79 80 79 79 79 79 79 81 73 64 61 60 60 61 70
74 74 74 74 74 74 74 75 77 78 80 78 78 80 81 81 82 81 80 81 81 81 81 81 81 82 81 81 82 81 81 81 81 80 79 79 78 78 79 79 80 79 80 79 79 79 80 80 80 80 80 80 79 80 80 80 75 64 60 59 59 63 72
73 73 73 73 74 74 75 75 76 76 76 76 75 74 79 81 81 80 80 81 82 82 82 81 82 82 82 82 82 83 82 82 81 81 80 79 79 80 79 79 79 80 80 80 80 80 80 80 80 80 80 81 81 76 79 81 76 65 61 58 57 63 73
71 73 73 74 74 74 75 77 77 76 75 74 74 75 76 79 80 80 80 81 82 82 82 82 83 84 84 84 83 84 83 83 82 81 81 80 80 81 80 81 81 80 80 80 80 80 80 80 80 80 80 81 81 81 80 80 81 76 61 58 56 59 72
72 72 72 73 74 75 74 74 74 73 73 73 74 75 76 77 77 75 76 77 78 80 82 82 83 83 83 84 84 84 83 84 83 82 82 82 81 81 81 81 80 80 80 80 80 80 79 80 80 80 79 80 81 81 81 81 81 79 63 57 56 57 63
71 72 73 74 75 74 73 73 73 73 73 74 74 75 75 75 75 74 73 72 74 74 76 77 79 79 79 79 81 83 83 83 82 83 82 82 81 80 80 80 81 81 80 80 79 78 78 78 78 79 79 80 80 80 81 81 77 82 66 58 55 55 56
69 69 70 71 72 74 74 72 71 71 72 73 74 74 74 75 74 73 73 73 73 73 73 74 76 77 78 78 79 80 81 82 82 82 82 82 81 80 79 80 80 80 79 79 78 78 77 77 77 77 78 78 78 79 80 80 79 70 74 59 55 54 54
69 70 70 71 72 72 73 71 71 71 71 72 73 73 74 74 73 74 73 72 72 73 73 73 74 75 76 77 78 79 80 81 81 82 82 81 81 80 79 79 79 79 79 79 78 77 77 77 77 77 77 77 76 76 77 78 79 72 68 67 56 55 54
68 68 69 69 70 72 71 71 70 71 70 71 71 72 72 73 74 74 73 72 73 74 74 73 73 74 75 75 76 77 79 80 80 81 81 81 81 79 79 79 78 78 78 78 78 77 77 76 76 76 76 76 76 75 75 77 77 78 72 67 61 56 54
67 68 69 70 70 71 70 70 70 70 70 70 70 71 72 71 72 72 71 72 73 74 74 73 72 72 74 74 75 76 78 78 79 80 80 80 80 80 80 80 79 78 77 77 78 77 76 76 76 76 75 76 76 75 75 75 74 71 67 67 65 60 55
66 66 67 67 69 71 69 69 69 69 70 69 69 70 71 71 71 70 71 72 73 74 74 73 72 73 73 73 74 74 76 77 77 78 79 79 79 80 80 80 80 78 77 77 78 77 77 77 76 75 75 75 74 75 73 71 68 67 65 64 64 64 61
64 66 67 68 69 69 68 68 67 68 68 68 67 68 69 70 70 70 71 72 73 73 73 74 73 72 72 73 73 74 75 75 79 78 77 77 78 78 78 79 79 78 77 77 77 76 76 77 75 74 75 75 74 74 69 66 65 66 67 65 66 64 62
64 64 65 67 68 69 67 66 67 66 67 67 66 67 68 69 69 70 71 71 72 72 73 74 74 73 72 72 73 74 75 75 76 76 73 62 56 53 53 55 61 67 71 69 69 75 79 78 76 77 77 77 75 72 69 67 66 68 62 67 62 65 65
63 64 65 66 67 67 67 68 67 67 67 66 66 67 68 69 69 70 71 71 72 72 73 73 72 72 71 71 72 73 74 75 75 72 69 66 61 58 55 52 47 49 60 65 59 54 54 60 76 78 77 76 71 71 73 72 71 52 48 48 49 51 52
62 63 64 65 66 66 67 67 68 67 67 66 67 67 67 69 69 69 70 70 71 71 71 71 71 71 71 72 72 72 74 74 72 69 66 65 65 65 63 62 58 46 45 50 51 46 47 54 58 63 66 73 67 57 53 51 46 46 45 45 45 45 44
62 62 64 65 65 66 66 66 67 66 65 65 67 66 66 67 69 68 70 70 70 69 69 69 71 70 69 71 71 73 73 72 70 68 66 65 65 66 65 64 62 61 50 45 46 47 43 43 48 54 57 58 58 57 55 49 45 45 45 44 44 44 43

ECMWFFLT1_sfc_temp_072.txt.gz
Temp
80 80 80 81 80 80 80 80 80 81 81 80 80 80 80 80 79 78 78 77 77 76 77 77 77 77 77 77 77 78 78 78 77 77 77 76 77 76 75 76 76 75 76 76 76 76 77 78 78 78 78 78 78 78 77 78 78 78 78 78 78 77 77
79 80 81 81 80 80 80 80 80 81 81 81 81 80 81 80 79 78 78 78 77 77 77 77 77 77 77 77 78 78 77 77 78 78 77 76 76 76 77 76 76 75 75 76 77 77 77 78 78 78 77 78 78 78 78 78 78 78 78 77 77 77 77
79 80 81 81 81 81 80 81 81 82 82 82 82 81 81 79 79 79 78 78 77 77 78 77 77 77 77 77 77 77 78 78 78 78 77 77 77 78 77 77 76 76 77 77 77 77 78 77 77 78 78 77 78 78 78 78 78 78 78 77 77 77 76
79 80 81 81 82 81 81 81 81 82 83 83 83 82 81 80 81 80 80 79 78 77 77 77 78 78 78 77 77 77 77 77 78 78 78 78 78 77 76 76 76 77 76 76 78 78 78 78 77 77 78 78 77 78 78 78 78 78 78 77 77 77 77
79 81 81 81 81 81 81 81 81 81 83 84 84 82 82 82 82 81 80 80 80 78 79 79 80 79 78 78 78 78 78 77 78 78 79 78 78 77 77 77 77 77 77 77 77 77 77 77 77 77 77 77 78 77 77 78 78 78 77 77 77 77 77
79 79 80 81 82 82 82 82 83 83 83 83 83 83 83 83 83 82 81 80 80 80 80 79 79 78 78 78 79 78 78 78 78 78 78 78 77 77 77 77 77 77 77 77 78 77 77 77 77 77 77 78 78 78 78 78 78 78 78 77 77 77 77
80 80 80 81 82 83 82 83 84 84 84 85 85 84 84 83 82 82 82 81 81 79 79 79 79 79 78 78 78 78 77 78 78 78 78 78 78 77 77 78 78 78 78 77 77 78 77 77 77 77 78 78 78 78 78 77 77 78 78 77 77 77 77
80 80 81 82 83 84 84 83 84 84 84 84 84 84 83 83 83 82 82 82 81 81 80 80 79 79 78 78 78 78 78 78 78 78 78 78 78 77 78 78 77 78 77 77 77 78 78 78 78 78 78 78 78 78 78 78 77 78 78 77 77 77 77
82 82 82 83 83 84 85 84 84 83 83 82 83 83 83 83 83 82 82 82 82 81 81 81 80 80 79 78 78 78 78 78 78 78 78 78 78 78 79 78 78 78 77 78 78 78 78 78 78 78 78 78 78 77 78 78 78 78 78 77 77 77 77
80 80 81 83 84 85 84 84 83 81 81 81 81 81 81 82 82 82 82 82 82 81 81 81 81 81 79 78 78 79 78 78 78 79 79 78 79 78 79 79 79 78 78 79 79 78 78 79 78 78 77 77 77 77 78 78 78 78 78 78 77 77 77
81 80 80 81 82 82 82 82 80 79 80 79 80 82 81 81 82 82 82 82 82 82 82 82 81 81 80 79 79 79 78 78 79 78 78 78 79 79 80 80 80 79 79 79 79 79 78 78 78 78 77 77 77 77 77 78 78 78 78 78 78 78 78
79 79 79 80 80 81 80 80 80 79 79 79 81 82 80 80 82 82 82 82 83 82 82 82 82 81 80 80 79 78 78 78 78 78 78 78 79 79 80 80 80 80 80 80 79 79 79 78 78 78 77 78 78 78 78 78 78 78 78 79 79 78 78
79 79 79 80 80 81 79 78 78 79 79 81 82 82 82 82 82 82 81 81 83 83 82 81 81 80 79 80 79 78 78 78 78 78 79 78 79 80 80 80 81 81 80 80 80 80 79 79 78 78 79 78 79 79 78 78 78 78 78 78 78 78 78
78 79 80 80 80 78 78 78 78 78 79 80 81 82 82 82 82 82 81 81 82 83 83 82 81 79 78 79 78 77 78 78 79 78 78 79 78 79 80 80 80 80 80 80 79 80 80 80 79 79 79 79 79 79 79 78 78 78 78 78 78 79 78
75 78 79 79 78 78 78 78 77 78 79 80 81 81 81 81 81 81 81 82 81 83 82 81 80 79 79 78 77 77 78 78 79 79 79 79 78 78 78 79 79 79 79 79 80 80 81 81 81 79 79 79 79 79 79 79 78 79 79 78 78 79 79
76 78 78 79 78 79 78 79 78 78 79 79 80 80 81 80 80 81 81 81 82 81 82 80 79 78 78 78 78 78 78 78 78 78 78 78 77 77 78 79 79 79 79 79 79 79 79 79 80 80 80 79 79 79 79 79 79 75 70 72 79 79 79
76 77 78 79 78 79 79 79 78 78 78 78 79 80 80 80 81 82 83 82 81 80 81 81 79 79 79 78 79 78 78 77 77 78 77 77 78 77 77 77 78 78 77 78 78 78 78 79 79 80 80 80 79 79 79 79 79 70 66 66 68 77 79
75 76 77 78 78 79 78 78 77 77 78 80 80 80 81 80 81 81 81 81 81 82 82 81 80 79 78 79 78 78 77 78 77 77 77 77 77 77 77 78 77 77 77 78 78 77 79 79 78 79 80 80 80 80 80 79 72 67 65 65 65 68 78
75 76 77 77 77 78 79 79 79 79 80 81 81 81 83 82 82 80 81 81 81 82 82 81 81 79 78 79 78 78 78 78 77 77 77 77 77 77 77 77 77 77 77 78 78 78 77 77 78 78 79 79 79 79 80 80 71 66 65 65 64 64 70
72 76 78 79 79 79 79 79 80 81 81 81 82 84 84 83 83 82 82 82 81 81 80 80 80 79 79 78 78 78 78 78 78 77 77 77 77 77 77 77 77 78 79 79 78 77 77 78 78 78 77 78 78 78 80 80 72 65 63 63 63 63 66
69 73 74 76 76 79 78 78 79 79 79 81 82 82 83 82 82 80 80 81 80 81 79 80 79 78 78 78 78 78 78 78 78 77 77 78 77 77 77 77 77 78 78 79 78 77 77 77 77 78 78 79 79 79 80 81 69 64 62 61 61 62 64
70 73 74 75 76 76 76 78 78 80 79 81 81 82 83 82 82 81 80 81 81 81 80 80 79 79 79 78 79 79 79 78 78 78 78 78 77 77 77 77 77 77 78 78 79 79 79 78 79 78 78 79 79 79 79 81 68 63 62 60 60 61 69
69 73 74 73 76 75 75 77 77 78 78 79 81 82 83 83 82 81 80 80 81 80 80 79 78 79 79 79 79 79 79 79 78 78 78 78 77 77 77 77 77 77 78 78 78 79 78 78 79 79 79 79 79 78 78 80 71 63 61 60 59 61 72
71 71 73 74 73 74 74 75 76 78 79 78 79 81 81 82 81 79 78 79 79 80 79 80 79 79 79 79 80 79 79 79 79 78 78 78 77 78 78 79 79 79 79 78 78 79 80 80 79 79 79 79 79 80 79 80 73 62 60 59 58 64 73
71 71 71 73 75 75 75 76 77 78 78 78 78 78 80 81 80 79 78 79 81 81 80 80 80 80 80 80 80 80 80 80 80 79 79 78 78 79 78 78 78 79 79 80 79 79 79 80 79 79 79 81 81 75 78 80 76 63 60 58 57 64 74
70 71 72 73 74 75 75 76 77 77 78 78 78 78 81 81 80 79 79 80 81 80 80 80 81 81 82 81 81 81 81 81 80 80 80 79 79 79 79 80 80 80 79 79 80 80 80 80 80 79 79 81 81 81 80 80 81 75 59 58 56 59 73
72 72 72 73 74 76 74 75 76 76 77 77 76 79 81 81 80 79 79 78 79 79 81 82 81 81 81 81 82 82 82 82 81 81 81 81 80 80 80 81 80 80 79 79 80 79 79 79 79 80 79 81 81 81 81 81 81 78 61 57 56 56 63
71 72 74 74 75 74 73 73 73 73 73 74 76 78 79 79 78 77 77 77 78 79 81 81 81 81 81 81 81 82 82 82 82 82 82 81 80 79 79 80 81 80 80 80 79 77 77 78 78 78 79 80 80 80 80 80 75 83 65 58 56 55 56
69 69 70 71 71 74 74 72 72 72 72 74 76 77 77 78 76 76 76 76 76 75 76 79 80 80 80 80 81 81 82 82 81 81 82 81 81 80 79 79 80 80 79 78 78 77 77 77 77 77 78 78 78 79 79 80 78 69 75 59 55 54 54
69 69 70 72 72 72 73 71 71 71 72 73 74 75 77 77 75 75 75 74 75 75 75 76 77 79 80 80 80 81 81 82 82 82 82 81 81 80 79 79 79 79 78 78 78 77 76 76 77 77 77 77 77 78 79 79 80 71 67 68 56 55 53
68 68 68 69 70 71 71 71 70 70 70 71 72 74 75 76 76 75 74 74 75 75 75 75 75 76 78 79 80 80 82 82 82 81 82 82 81 80 79 79 79 78 78 78 77 77 76 76 77 76 76 76 77 77 77 79 79 81 71 65 60 55 54
67 68 69 69 69 71 70 70 71 71 70 70 71 72 73 74 75 74 73 74 75 75 75 74 74 74 76 77 78 79 80 81 82 82 82 81 82 81 80 80 79 78 78 78 78 77 76 76 76 76 76 76 77 77 78 78 78 78 77 70 67 61 55
65 66 66 66 69 70 69 69 69 69 70 69 69 71 71 71 72 72 73 73 73 74 74 73 73 74 75 75 76 77 78 79 80 80 81 81 81 81 81 81 80 79 77 78 78 77 77 77 76 76 76 76 76 77 77 77 77 77 75 74 73 73 67
63 64 66 66 68 69 68 68 68 68 68 68 68 69 70 71 71 71 72 73 73 73 74 74 73 74 74 74 75 75 76 77 79 79 79 80 81 81 81 80 80 79 78 78 77 78 77 78 77 76 77 76 77 77 77 76 76 75 75 73 73 73 71
63 63 65 65 66 68 67 67 67 67 68 67 68 69 69 69 70 71 71 72 73 73 75 75 75 74 73 73 74 74 76 76 77 78 78 73 64 58 58 64 73 77 78 75 77 80 80 78 77 78 78 79 77 76 75 76 74 75 67 75 65 71 72
62 63 64 66 67 67 67 68 68 67 68 67 67 68 69 69 69 70 71 72 72 73 73 73 73 73 72 72 73 74 75 75 76 76 73 69 65 62 58 52 46 49 66 70 59 54 58 63 78 79 79 79 77 75 78 77 78 63 57 56 55 55 57
61 62 63 64 65 65 66 67 68 68 68 67 68 68 68 69 69 70 70 70 71 72 72 72 72 72 72 72 73 74 75 75 74 72 69 68 67 67 64 63 58 46 43 48 51 49 48 52 54 56 65 77 74 58 51 58 51 50 51 50 50 50 49
62 62 63 64 64 64 65 66 67 66 67 67 67 68 68 69 69 69 70 70 70 71 71 71 72 72 71 72 72 74 74 74 72 69 68 68 69 69 68 67 66 64 49 43 46 46 42 40 47 55 57 61 62 61 61 51 47 46 45 45 45 45 44

ECMWFFLT1_sfc_temp_075.txt.gz
Temp
87 86 86 86 85 85 85 85 85 85 84 84 84 85 85 85 84 84 83 82 81 81 81 81 81 82 81 82 82 82 83 82 82 82 82 83 83 83 83 84 84 84 85 85 85 85 85 86 85 86 85 85 85 85 84 84 84 85 85 84 84 84 84
87 87 87 87 86 86 86 85 85 85 85 85 85 84 86 85 84 84 83 82 82 82 81 82 81 82 82 82 82 82 82 82 82 82 83 83 83 83 84 83 84 83 84 85 86 85 85 86 86 85 85 85 85 85 85 84 84 84 85 84 84 84 84
87 87 87 87 87 87 85 87 86 86 86 87 86 86 85 84 84 83 83 83 82 82 83 82 82 82 82 82 82 82 82 83 82 83 83 84 83 85 84 84 84 85 85 85 85 86 86 86 85 85 85 85 86 85 85 85 84 85 85 84 84 84 84
87 87 88 88 87 87 87 86 86 87 88 88 87 87 86 84 85 85 85 84 83 82 81 82 83 83 83 82 82 82 82 82 83 84 84 84 84 84 84 84 84 85 84 85 86 86 87 86 85 85 84 85 85 85 85 85 86 85 85 84 84 85 84
87 88 88 87 88 87 87 87 87 86 88 89 89 87 87 86 87 86 86 86 86 84 84 84 85 84 83 83 83 83 83 83 83 84 85 85 84 84 83 85 85 85 85 86 85 84 84 84 86 85 85 84 85 85 85 85 85 85 84 84 84 84 85
88 87 87 87 88 88 88 88 89 89 89 89 89 88 88 89 89 88 87 86 86 86 85 84 84 83 83 84 84 84 83 83 83 83 84 84 84 84 84 84 85 85 86 85 86 86 85 85 85 85 86 86 86 87 87 85 85 86 85 84 84 85 86
88 87 87 87 88 89 89 89 90 90 90 91 91 90 90 90 89 89 89 87 87 85 85 85 85 85 83 84 83 83 82 83 83 83 85 85 84 84 84 84 84 86 86 85 85 86 85 85 85 85 85 86 86 87 85 84 85 85 84 84 83 84 84
88 87 87 88 89 91 91 89 90 91 90 91 91 90 90 90 90 89 88 88 88 88 87 87 86 84 83 84 84 84 84 84 85 84 84 85 85 84 85 85 84 85 85 85 85 85 86 85 86 85 85 86 85 85 85 84 84 86 85 84 83 84 85
90 88 88 90 90 91 91 90 90 90 89 88 89 89 90 90 89 89 89 89 88 88 87 89 87 86 84 84 83 83 84 84 84 84 84 85 85 86 86 86 85 85 84 86 87 86 86 86 87 85 84 84 84 84 84 84 84 85 85 84 83 83 85
88 87 87 90 90 92 91 91 89 88 86 87 87 87 88 89 89 89 89 89 89 88 88 88 88 87 85 84 84 85 84 84 84 85 86 86 86 86 87 88 86 86 85 86 87 86 85 86 86 85 83 84 84 84 84 84 84 85 85 84 84 84 83
88 86 86 88 88 89 89 89 87 85 85 84 85 88 87 88 88 89 88 89 89 89 90 89 88 87 86 86 85 86 84 85 85 85 85 86 87 87 88 88 88 87 86 87 87 87 86 85 85 84 83 84 84 84 84 84 85 84 85 85 85 85 85
85 85 84 85 87 87 87 86 86 85 84 84 87 88 86 86 88 89 88 89 90 90 89 89 89 88 86 87 86 84 84 84 85 85 85 86 87 88 88 89 88 88 87 87 87 87 87 86 86 85 84 84 84 84 84 84 84 84 84 86 86 85 85
86 84 84 86 85 86 85 84 84 84 84 87 88 89 88 88 88 89 86 87 90 90 89 87 87 86 86 87 87 84 84 85 85 85 86 85 86 88 88 88 89 88 88 88 87 87 87 88 86 85 85 84 85 85 84 84 85 84 84 84 85 85 84
83 86 86 85 85 85 84 84 84 84 84 86 88 88 88 89 89 88 86 87 88 90 90 89 86 84 84 85 85 83 84 85 86 85 85 85 84 86 87 88 88 87 87 87 87 88 87 88 87 87 86 86 85 85 85 84 84 84 84 84 85 85 85
86 88 87 86 84 83 84 84 83 84 85 85 87 87 88 88 88 87 87 88 87 90 88 87 85 84 85 84 83 83 83 84 85 85 85 85 84 84 85 86 86 86 86 86 86 88 88 88 88 87 86 86 85 85 85 85 85 85 85 84 84 85 85
86 88 90 89 86 85 84 85 84 83 84 84 86 86 88 87 86 87 87 87 88 87 88 86 84 83 84 83 83 83 83 83 83 83 84 83 83 83 84 85 85 86 85 85 86 86 86 86 86 87 86 85 85 85 85 85 85 80 72 75 84 85 85
84 86 89 89 88 86 85 85 85 84 83 83 84 85 86 86 86 87 89 88 88 86 87 87 84 84 84 83 84 83 83 82 83 83 82 82 83 83 83 83 84 84 83 84 84 84 84 85 85 87 87 87 86 85 85 85 85 72 67 67 70 82 85
80 81 84 87 89 89 86 86 85 84 84 86 87 86 86 85 87 87 88 88 87 88 89 87 86 85 83 84 83 83 82 83 82 82 82 82 82 82 82 83 83 83 83 83 84 83 85 84 84 84 86 87 87 87 86 86 76 68 66 66 65 70 83
77 79 82 83 85 86 89 89 88 85 87 87 87 87 89 88 88 85 87 86 86 88 88 87 87 84 83 84 83 82 82 82 82 82 82 81 82 82 82 82 82 82 83 83 84 84 82 83 84 84 84 85 84 86 87 87 73 66 65 65 64 64 73
77 78 81 85 87 88 88 88 88 88 88 87 88 90 91 89 88 87 88 87 87 87 85 85 85 84 83 83 83 83 83 82 82 82 82 82 82 82 82 82 81 83 85 85 84 83 83 84 83 83 83 84 84 84 87 87 75 65 64 63 63 63 67
76 77 79 82 84 88 87 86 87 87 86 89 90 89 90 88 89 88 86 87 86 86 84 85 84 83 83 83 83 83 83 82 82 81 82 82 82 81 81 81 82 82 84 85 84 83 82 83 83 83 83 84 85 85 86 88 71 63 62 61 61 62 66
77 78 78 82 85 85 85 88 87 88 87 89 90 90 90 89 90 88 86 87 86 86 85 84 83 83 83 83 83 83 83 83 82 82 82 82 82 81 81 81 81 81 83 84 86 85 85 84 85 84 84 84 85 85 85 88 69 63 61 60 60 61 74
79 79 80 80 86 87 86 88 88 89 87 88 90 90 90 90 90 88 87 87 88 86 85 84 83 83 83 83 83 83 83 83 83 82 82 82 82 81 82 81 81 82 83 83 84 85 85 84 85 84 85 85 84 84 84 87 74 61 60 59 58 63 78
80 81 81 83 86 87 85 87 88 87 89 88 88 90 90 90 88 86 84 84 85 85 85 85 84 84 83 83 84 83 83 83 83 82 82 82 82 82 83 84 84 84 84 83 84 85 86 86 85 85 85 85 85 86 85 86 76 60 59 58 57 66 79
79 81 82 82 85 86 87 85 86 87 87 87 88 88 89 89 87 85 84 85 87 87 86 85 84 84 84 84 84 84 84 85 84 84 84 82 83 84 83 83 83 85 85 85 85 85 85 85 85 85 85 87 87 79 83 86 79 61 59 57 57 66 80
76 79 81 83 85 86 85 84 84 85 86 86 86 88 88 89 87 84 85 86 88 87 85 85 85 86 86 85 85 85 85 85 84 84 84 83 83 84 84 85 85 85 85 85 85 85 86 86 86 85 85 87 87 87 86 86 87 76 58 58 56 59 78
76 78 79 81 81 83 84 84 85 86 87 86 85 88 89 88 86 83 84 84 85 84 86 86 86 86 85 85 86 86 86 86 85 85 86 86 85 85 85 86 85 86 85 85 86 85 84 85 85 86 85 87 87 88 88 88 87 83 59 57 56 56 64
74 77 80 80 79 81 84 86 85 86 88 85 87 88 88 86 83 83 83 83 84 85 88 87 86 86 85 85 85 86 87 86 85 85 86 86 85 84 84 85 86 86 85 86 85 83 83 83 83 84 85 86 87 87 86 85 77 89 65 57 55 55 56
70 72 74 76 79 81 82 82 84 86 86 88 89 88 86 85 83 83 83 82 84 86 87 87 87 86 85 85 85 85 86 86 85 85 87 85 85 84 83 84 84 84 84 83 83 82 82 82 83 83 84 84 85 85 85 85 83 70 79 59 55 54 54
69 71 73 76 78 79 81 79 80 80 83 86 86 86 86 85 83 82 82 83 85 86 87 86 86 85 85 84 85 85 86 86 86 86 86 85 85 84 84 83 84 83 83 83 83 82 81 82 83 82 83 83 84 86 87 85 86 74 69 70 54 55 53
66 68 71 73 75 77 79 79 78 79 80 82 83 85 85 85 83 82 82 84 85 85 86 85 85 84 84 85 85 85 86 86 86 86 86 86 85 84 84 83 83 82 83 83 83 82 82 83 83 81 82 83 84 85 85 85 85 88 75 66 61 55 54
66 67 69 71 73 75 77 78 79 78 77 78 80 82 84 85 85 82 82 83 84 85 85 85 84 84 84 85 85 86 87 86 87 87 87 86 87 85 85 84 84 83 83 83 83 83 82 82 83 83 83 83 84 85 85 85 86 85 85 73 69 62 56
64 65 67 68 71 73 75 76 77 77 77 76 78 80 81 82 83 83 82 82 84 85 85 84 84 83 83 84 85 86 86 86 87 87 87 86 87 87 87 86 86 85 83 84 84 83 84 83 83 83 83 83 84 85 85 85 85 85 85 84 82 80 73
63 64 66 68 70 72 74 75 75 75 75 75 76 78 79 81 81 81 83 83 84 84 83 83 83 83 83 84 85 85 86 85 84 85 87 88 88 88 88 87 87 87 84 84 84 85 84 85 84 83 85 84 86 85 84 84 85 85 86 86 84 84 82
63 63 64 65 67 70 71 73 75 75 75 75 76 77 78 78 79 80 82 83 83 83 82 81 81 82 82 83 83 83 83 84 85 86 87 87 87 81 76 79 87 87 86 87 88 87 86 85 85 84 85 86 85 84 84 84 85 86 74 85 72 82 85
63 64 65 65 67 69 70 72 74 75 75 75 77 77 77 78 78 79 81 81 83 84 82 81 80 80 81 83 83 83 82 82 83 84 85 87 82 75 67 52 45 55 76 86 71 66 65 67 83 86 87 85 86 86 85 86 88 72 62 60 59 58 62
63 64 64 65 65 66 68 70 72 73 74 75 77 77 77 77 78 79 79 80 81 82 82 82 81 81 82 82 83 82 83 83 83 82 83 81 78 77 73 73 67 47 41 48 55 55 55 54 54 55 62 79 86 81 68 65 58 58 57 54 53 53 52
66 65 66 66 65 65 67 69 70 71 72 75 76 77 77 78 78 78 80 79 79 80 82 84 84 83 83 83 83 80 82 83 83 82 81 79 78 77 76 77 76 70 50 43 46 45 41 41 43 45 49 51 60 74 81 63 53 51 52 52 52 52 50

ECMWFFLT1_sfc_temp_078.txt.gz
Temp
97 95 94 94 92 93 92 91 90 91 90 90 90 91 92 91 90 89 89 87 85 85 85 85 86 86 86 86 87 87 87 87 87 87 87 88 89 89 89 90 89 89 92 91 91 91 91 91 92 92 91 91 91 90 90 90 89 90 90 89 89 89 89
96 96 96 95 94 93 93 92 91 91 91 91 91 90 92 91 90 90 88 87 86 86 86 86 85 86 86 87 87 87 86 87 87 87 88 88 88 89 90 89 89 89 90 91 92 91 91 92 92 91 91 91 90 90 91 90 89 89 90 89 89 88 89
97 97 97 96 95 94 92 93 92 92 91 92 92 92 91 89 90 89 89 88 86 86 87 86 86 87 87 87 87 87 87 88 87 88 88 89 89 91 90 90 90 91 91 92 92 92 93 92 91 91 91 91 92 91 90 90 89 90 90 89 89 89 88
96 97 97 97 95 94 94 93 92 93 94 94 93 93 91 89 91 90 90 89 87 87 86 87 87 87 87 86 86 86 87 87 88 90 90 90 89 90 90 89 89 91 91 91 93 93 94 92 92 91 90 91 90 91 91 90 91 90 90 89 89 89 88
97 98 98 97 97 95 94 94 93 92 94 95 94 92 92 92 92 92 91 91 91 89 90 89 91 89 88 88 89 89 88 88 89 90 90 90 89 89 89 90 91 91 91 93 92 91 90 91 92 91 90 90 91 91 90 90 90 90 89 89 88 89 89
98 97 97 97 97 97 96 96 96 96 95 95 95 94 94 95 94 94 93 91 91 92 90 90 89 88 88 89 90 89 89 88 88 88 89 89 89 89 90 90 91 91 93 91 93 92 91 91 92 92 92 92 92 93 93 91 91 91 90 89 88 90 91
98 97 97 98 98 98 97 96 98 97 97 97 98 96 96 96 95 95 95 93 93 91 91 91 91 90 88 89 89 89 88 89 89 89 90 90 90 89 89 90 90 92 93 92 91 92 92 90 90 91 91 93 91 93 91 90 90 91 90 88 88 88 89
99 98 98 98 99 100 99 97 97 98 97 97 97 97 96 97 96 96 95 95 94 94 93 93 92 90 89 89 90 89 89 89 90 90 90 90 90 89 90 91 90 91 91 92 91 92 92 91 92 91 91 92 91 90 92 90 89 92 91 88 88 88 90
101 99 99 100 100 102 101 99 98 98 96 95 96 95 96 96 96 95 95 95 95 94 94 95 94 93 89 89 89 88 90 90 90 90 89 91 91 92 93 92 91 91 91 92 93 92 92 92 93 90 90 90 90 90 90 89 90 90 90 89 88 88 90
99 98 98 100 101 102 100 99 97 95 94 93 94 93 94 95 95 95 96 96 97 95 95 95 95 94 91 90 90 90 90 89 90 91 92 92 93 93 94 94 93 92 92 93 94 93 91 92 92 91 89 89 89 89 89 89 90 90 91 89 89 89 88
99 98 96 98 99 99 99 99 95 93 93 91 92 95 94 94 94 96 95 96 97 96 97 96 95 94 92 92 92 92 89 91 92 91 91 92 94 94 95 96 95 93 93 93 94 94 93 91 92 90 89 89 89 89 89 89 89 89 91 91 91 90 90
93 93 92 93 95 96 96 95 94 92 91 91 93 95 92 92 95 96 96 96 98 97 96 96 97 95 93 93 92 90 90 90 92 92 92 93 94 95 96 96 96 95 94 94 93 94 95 92 92 91 89 89 90 89 89 89 89 89 89 92 92 91 91
95 94 93 94 93 94 93 93 92 91 91 93 95 96 95 95 94 96 93 94 97 97 96 94 94 93 92 93 93 91 91 91 91 92 93 92 93 95 95 96 97 96 95 94 94 94 95 95 92 91 91 89 90 90 89 89 89 89 89 90 90 91 90
90 96 95 94 93 92 91 91 91 90 91 93 94 95 95 96 96 95 93 94 95 97 97 96 94 91 90 91 91 89 91 91 92 92 91 92 91 93 95 96 96 95 94 94 93 95 95 95 93 93 93 91 91 90 90 89 89 89 89 89 90 90 90
94 97 96 95 91 91 91 92 90 90 91 92 94 94 95 95 95 94 94 94 94 98 96 94 92 91 91 90 89 89 90 90 91 91 91 91 90 91 92 94 94 94 93 92 94 96 96 96 96 93 92 91 90 90 91 90 89 90 89 88 89 90 91
95 96 98 97 94 93 91 91 91 90 90 90 92 93 95 94 93 94 94 94 95 94 95 94 91 90 90 90 89 90 89 89 89 90 90 90 89 89 91 93 93 94 93 92 93 93 93 93 94 95 93 91 91 91 91 90 91 85 77 80 89 89 91
91 91 93 94 95 95 93 92 92 91 90 89 91 92 93 93 93 94 96 94 95 93 94 95 91 90 90 89 90 89 89 88 88 89 88 88 89 89 89 90 91 91 90 90 91 91 90 92 93 94 94 93 92 91 91 91 90 76 69 70 74 88 90
88 87 89 91 91 92 94 94 93 92 91 93 94 93 93 92 94 94 94 94 94 96 97 94 92 91 89 91 89 89 88 88 88 87 87 88 87 88 88 90 90 89 89 90 90 89 92 91 91 91 93 94 94 93 92 92 81 69 67 69 69 75 89
86 88 88 88 88 88 91 95 97 94 94 95 94 94 96 95 95 92 93 92 93 94 95 94 94 90 89 90 89 88 88 88 87 87 87 87 87 87 87 88 88 89 89 90 90 90 88 89 90 90 91 92 91 93 94 93 76 66 66 67 67 67 78
85 86 88 89 89 90 90 91 93 97 97 95 95 98 98 96 95 94 95 94 94 93 92 91 92 90 89 89 88 88 88 87 87 87 87 87 87 87 87 87 87 90 91 91 89 88 88 90 89 89 88 90 90 90 93 94 76 66 64 65 64 66 71
82 84 85 86 87 89 89 88 91 93 95 98 98 97 97 96 97 95 94 94 92 92 91 91 90 89 89 88 88 88 88 87 87 86 87 87 87 86 86 86 87 88 90 92 90 88 87 88 88 88 88 90 91 90 92 96 71 64 62 62 62 63 69
82 84 84 86 86 86 86 88 89 94 95 97 98 99 98 97 97 95 93 94 93 93 92 90 89 89 89 88 89 88 88 87 87 86 87 87 86 86 86 86 86 86 88 90 92 91 90 89 90 89 89 89 91 91 91 95 70 62 61 60 61 62 78
81 84 86 87 89 89 89 90 90 93 95 97 98 99 98 98 98 95 94 94 94 92 91 90 88 88 88 88 89 88 88 88 87 86 86 87 86 86 87 86 86 87 88 89 90 91 90 89 91 90 90 90 89 89 90 93 76 60 59 59 59 65 83
82 85 87 88 88 90 90 91 92 94 96 96 96 98 98 98 96 93 90 90 91 92 91 90 89 89 88 88 89 88 88 88 88 87 87 87 86 87 88 89 89 88 89 89 90 92 93 92 91 90 91 91 91 92 90 92 79 59 58 57 57 69 83
80 85 86 87 88 89 91 92 93 94 95 95 95 97 97 97 95 91 90 91 94 93 91 90 90 90 89 89 89 89 89 90 89 88 88 87 88 89 88 88 88 89 89 91 91 91 92 92 91 91 91 94 94 83 89 93 83 59 59 56 57 69 84
75 80 84 88 90 90 88 90 91 92 94 94 93 97 96 97 94 90 90 92 94 93 91 90 90 91 91 90 90 90 90 90 88 88 89 88 88 89 89 89 90 90 90 90 91 91 93 93 92 91 91 94 94 94 92 91 93 75 57 57 56 60 83
76 80 82 86 88 85 89 91 91 92 94 94 93 96 97 96 93 89 89 90 90 90 92 92 91 90 90 90 91 91 91 91 90 89 90 91 89 90 90 91 90 91 90 90 92 91 90 92 92 92 91 93 93 94 94 94 93 83 56 57 55 57 67
74 78 82 84 85 86 89 92 91 92 95 94 94 96 96 93 89 87 88 89 89 91 94 92 91 90 90 89 90 91 91 91 90 90 91 90 89 88 88 90 91 90 91 91 90 88 88 88 89 91 91 92 93 93 92 90 82 93 62 58 55 56 58
69 71 74 77 83 88 89 89 91 92 94 96 96 95 94 91 88 87 87 87 89 92 92 92 91 90 89 88 89 89 90 90 90 89 92 90 89 88 87 89 89 89 89 88 88 87 87 87 88 88 90 90 90 90 90 90 86 74 78 58 55 54 55
68 70 72 76 82 84 88 86 88 91 93 94 93 93 92 90 87 87 87 87 90 92 92 91 90 89 89 88 89 89 90 91 91 90 90 90 89 88 87 87 88 88 88 88 88 87 86 87 87 87 87 88 89 90 91 90 92 77 71 69 54 55 54
66 67 69 71 76 78 83 86 84 87 90 92 92 92 91 91 88 87 86 89 90 90 91 90 89 89 88 88 89 89 91 91 90 90 91 90 90 88 88 87 87 87 87 87 87 87 87 86 87 85 86 87 87 89 90 92 92 95 78 66 59 55 53
66 67 69 71 72 75 79 84 84 85 85 86 89 89 89 90 90 86 87 90 90 91 91 90 88 88 88 89 89 90 91 90 91 91 90 90 91 89 89 88 88 88 88 88 88 88 87 87 88 88 86 86 88 89 91 91 92 92 90 73 67 61 56
64 66 66 67 69 71 74 79 82 82 83 84 87 89 90 90 90 89 90 89 91 91 90 89 88 87 87 88 90 90 90 90 92 92 91 90 92 91 91 91 91 89 87 88 89 88 88 88 88 88 87 87 87 90 89 91 92 92 93 89 84 82 73
63 64 66 68 69 70 71 72 76 80 81 82 85 87 88 89 89 90 90 91 92 92 90 88 88 88 88 89 90 90 90 89 86 88 92 91 92 93 93 92 92 92 88 89 89 89 90 89 88 88 89 89 90 89 90 90 91 92 92 92 89 88 86
64 64 65 67 68 69 70 72 74 76 78 79 83 85 86 86 88 89 89 90 91 90 88 87 86 88 88 89 90 89 89 90 90 91 92 92 90 93 90 89 94 92 91 91 94 93 92 92 91 90 91 92 90 89 90 91 90 94 80 90 77 86 91
65 65 65 67 69 69 70 71 73 75 77 78 81 82 83 84 85 87 89 89 90 89 88 87 87 87 88 89 89 89 89 89 90 91 91 93 91 88 74 52 46 60 81 89 69 60 57 63 85 86 90 92 92 93 91 91 88 63 64 63 61 63 66
66 65 65 66 67 67 69 70 71 73 74 77 79 80 81 82 84 85 86 87 88 88 88 88 87 88 89 89 89 88 88 89 90 90 90 91 92 90 84 80 70 46 42 51 57 53 44 41 41 46 54 74 87 85 68 61 52 51 54 56 57 57 56
70 68 66 67 67 67 68 69 70 71 73 76 78 79 81 82 84 84 86 86 86 87 87 88 87 87 88 89 89 87 87 89 88 89 89 90 90 88 86 86 82 75 51 42 46 46 42 41 40 40 43 47 60 77 85 61 50 50 50 51 52 53 51

ECMWFFLT1_sfc_temp_081.txt.gz
Temp
93 89 87 91 92 93 90 93 94 95 94 93 93 95 95 94 93 92 91 88 87 86 87 87 87 88 87 88 88 88 89 89 89 89 89 90 91 90 90 92 91 90 93 93 91 92 92 93 93 93 93 91 91 91 90 91 90 91 90 90 90 90 90
91 92 93 93 90 88 94 95 95 95 95 94 94 93 95 94 93 92 90 89 88 87 87 88 87 87 88 88 89 88 88 88 89 89 90 89 90 91 92 91 91 90 91 93 93 93 93 93 93 93 92 92 91 91 92 91 90 90 91 90 90 89 89
93 92 91 97 96 93 95 97 95 96 95 95 95 95 94 92 93 91 91 90 88 88 88 88 88 88 88 88 88 88 89 89 89 90 90 91 91 93 92 91 92 93 93 93 93 94 94 93 92 92 93 92 92 91 91 91 90 91 91 90 90 90 89
94 98 95 94 94 93 98 97 96 97 97 97 96 96 95 92 94 93 92 91 89 88 87 89 89 89 89 88 88 88 88 89 89 90 91 92 92 92 92 92 91 93 93 93 96 95 96 93 93 92 92 92 91 92 92 91 92 91 91 90 90 90 89
93 96 99 96 97 97 98 97 96 95 97 99 97 95 95 95 96 95 94 93 93 90 91 91 92 91 90 90 91 90 89 89 89 91 92 92 91 91 91 93 93 93 93 95 94 93 93 92 93 92 92 91 92 92 91 91 92 91 90 90 89 90 90
98 95 95 97 96 95 93 98 99 98 98 98 98 97 98 98 97 97 96 94 93 93 92 91 91 90 90 91 92 91 90 89 89 90 91 91 91 91 92 92 94 93 95 94 95 95 94 94 93 93 93 93 94 94 93 92 92 92 91 90 89 90 91
100 99 97 96 97 99 99 97 100 100 99 100 100 99 99 99 97 97 97 96 95 92 93 92 93 92 90 91 91 90 89 90 90 91 92 93 92 91 91 92 93 94 95 94 94 95 94 93 93 92 93 93 92 94 92 91 91 91 90 89 89 89 90
101 100 98 98 99 102 98 97 100 101 100 100 100 100 99 99 99 98 97 97 96 96 95 94 94 92 91 91 91 91 91 91 92 92 92 93 92 92 92 93 93 94 94 95 94 95 95 93 94 94 94 94 93 92 94 92 91 93 92 89 89 89 91
103 102 102 101 100 99 97 97 100 101 99 98 99 98 99 99 99 98 98 97 97 96 95 97 96 94 91 91 90 90 91 92 91 92 92 93 93 94 94 94 94 94 94 95 96 95 95 94 95 93 93 93 92 92 92 91 92 92 92 90 89 89 91
102 100 100 103 102 106 103 103 102 99 97 97 97 97 97 98 98 98 98 98 98 97 97 97 97 96 92 92 92 93 92 91 92 94 93 94 94 94 95 96 95 95 95 96 97 95 94 95 94 93 91 92 92 92 91 91 92 92 92 91 90 89 89
102 99 99 101 101 102 102 102 98 96 96 94 95 99 97 97 97 98 98 99 98 98 99 98 97 96 94 94 94 94 92 93 94 93 93 94 95 96 97 98 97 95 95 96 97 97 95 93 94 92 91 92 92 91 91 92 92 91 93 93 92 91 91
98 100 97 99 99 99 100 97 97 95 95 94 97 99 96 95 98 99 98 98 100 100 98 98 99 97 94 95 94 92 92 93 94 94 94 94 96 97 97 98 98 97 96 97 96 96 97 94 94 93 91 91 92 92 91 91 91 90 91 94 94 92 92
100 96 98 101 99 101 99 95 95 96 95 97 99 99 98 98 98 99 96 97 100 100 99 97 97 95 94 95 96 93 93 93 94 94 94 94 96 97 97 98 100 99 97 97 97 97 97 96 94 94 93 92 93 92 91 91 91 90 90 91 92 92 91
94 99 98 97 97 97 97 97 96 95 95 97 98 99 99 99 99 98 97 97 98 100 100 99 97 94 93 93 93 91 93 93 95 94 93 94 93 95 97 98 99 98 97 96 96 98 98 98 95 95 95 93 93 92 92 91 91 90 90 90 92 92 92
98 99 98 98 96 96 96 97 95 94 96 96 98 98 99 99 98 97 97 97 97 101 99 97 95 94 94 92 91 91 92 92 94 94 94 94 93 94 95 97 97 97 97 95 96 98 98 99 98 95 94 94 92 92 93 92 91 91 91 90 90 92 93
97 98 99 98 97 98 95 96 96 94 95 94 96 96 99 98 96 97 97 97 99 97 99 97 95 93 92 92 92 92 92 91 92 93 93 93 92 92 94 96 96 98 97 96 95 95 95 95 96 97 95 93 92 92 93 92 92 87 80 82 90 91 93
92 92 94 94 91 93 97 96 97 95 93 93 94 96 97 97 97 98 100 98 98 96 98 99 94 94 93 92 93 92 91 91 91 92 91 91 92 92 93 93 95 95 94 94 94 94 93 95 96 97 96 95 94 93 93 93 93 78 72 73 77 89 91
89 89 91 91 92 93 92 94 96 95 95 96 97 96 97 95 98 98 98 98 98 99 101 98 96 94 92 93 92 91 90 91 91 90 90 91 90 90 91 93 93 92 93 94 94 92 95 95 94 94 96 96 95 95 94 94 83 71 70 71 71 78 91
87 88 89 88 89 89 93 93 94 97 98 97 97 98 99 99 99 95 97 96 97 98 99 99 98 94 92 93 91 91 90 90 90 90 90 90 90 90 90 91 92 93 93 94 94 94 92 92 94 93 94 95 93 94 95 95 78 68 68 69 69 69 81
86 87 88 90 90 90 91 91 93 95 97 98 99 101 101 100 99 98 98 98 97 97 95 95 95 93 92 91 91 90 90 90 90 89 89 90 90 90 90 90 90 93 95 95 93 91 92 94 92 93 91 93 93 92 95 96 77 67 66 67 66 68 73
82 83 84 86 87 89 88 88 90 91 92 95 100 100 100 100 101 99 97 98 97 96 94 95 94 92 91 91 91 91 90 90 89 89 89 89 89 89 89 89 90 92 94 95 94 91 90 92 91 92 92 93 95 94 95 99 71 65 64 64 64 66 71
81 82 83 85 85 86 87 90 90 92 92 94 97 102 102 101 102 100 97 98 97 96 96 94 93 92 91 91 91 91 90 90 89 89 89 89 89 89 88 89 89 89 92 93 95 94 93 92 93 93 92 93 94 95 93 96 64 65 63 63 63 64 80
81 81 82 84 87 88 88 89 91 93 93 94 95 98 102 103 102 100 99 97 98 95 95 94 92 91 90 91 91 91 90 90 90 89 89 89 89 88 89 88 89 90 92 92 94 94 93 92 94 92 93 93 92 92 92 95 70 62 61 62 60 67 84
81 80 82 83 85 88 89 91 92 93 94 95 95 96 100 103 101 97 94 94 96 95 95 95 93 92 90 91 92 90 90 90 90 89 89 89 89 89 90 91 91 91 91 92 93 95 95 94 93 93 93 93 93 94 93 95 76 59 59 60 58 71 85
78 79 79 81 83 86 89 89 89 90 91 92 95 96 98 101 101 97 95 95 98 97 95 94 93 93 91 91 91 91 91 92 91 90 90 89 90 91 90 90 90 92 92 93 94 94 95 94 93 93 93 96 96 86 91 96 82 57 60 58 57 72 86
73 75 77 80 83 86 85 85 87 90 92 93 94 97 98 102 100 95 95 96 98 96 94 93 93 94 93 92 92 93 92 92 90 90 91 90 90 90 91 91 92 92 92 93 93 94 96 96 94 93 94 96 96 96 95 94 93 70 58 57 57 63 84
73 74 75 78 80 77 82 86 90 92 94 94 95 98 100 101 99 94 93 93 93 93 95 95 94 93 92 92 93 93 93 93 92 91 92 92 91 92 92 93 93 93 91 93 94 94 93 95 95 95 93 96 96 97 97 96 95 78 57 56 57 59 70
72 73 75 76 75 78 82 86 86 91 96 95 97 99 99 98 94 92 91 92 92 94 97 95 94 93 92 91 92 93 93 93 92 92 93 92 91 90 90 92 93 92 93 93 92 90 90 91 92 94 95 95 96 96 95 93 85 90 59 58 55 57 60
68 69 69 71 74 77 80 81 84 89 95 98 100 98 97 97 93 91 90 90 91 95 96 95 94 92 92 91 91 91 92 92 92 91 94 92 91 91 89 91 91 91 90 90 90 89 89 89 90 91 93 93 94 93 94 93 88 75 73 58 55 55 57
68 69 70 72 73 76 78 80 82 88 92 96 96 96 95 95 92 90 90 90 93 95 95 94 93 92 91 90 91 91 92 93 93 92 93 92 90 90 89 89 90 90 90 90 90 89 88 89 90 90 91 91 92 93 95 93 94 78 70 65 54 55 55
65 67 67 67 69 73 77 81 82 85 89 93 95 95 94 95 93 90 89 91 93 93 94 93 92 91 90 90 91 91 93 93 92 91 93 93 91 89 89 89 89 89 89 89 89 89 88 88 89 88 88 89 90 91 93 95 94 96 75 64 57 56 54
65 68 67 67 68 71 74 79 83 87 87 87 93 93 93 94 93 89 89 92 92 94 94 92 90 89 89 91 91 92 93 92 93 92 93 92 92 90 90 90 90 90 89 89 89 89 88 88 89 89 89 89 91 91 93 93 94 93 86 69 64 60 56
64 66 65 65 66 69 72 75 78 80 85 85 89 93 94 93 93 91 91 91 94 94 92 91 89 88 89 89 91 91 92 91 93 93 93 92 93 93 92 92 92 91 88 89 90 89 89 89 88 89 89 89 89 91 90 92 93 93 92 84 80 77 71
63 65 65 66 66 67 70 73 75 77 80 84 86 88 90 91 91 92 92 94 95 96 92 90 89 89 89 90 91 91 92 91 88 89 93 93 94 94 93 93 93 93 89 90 90 90 90 90 89 89 90 90 91 91 91 91 93 93 93 90 85 84 82
64 64 64 65 66 67 68 71 74 76 77 80 84 86 86 88 90 91 91 92 93 92 90 89 88 89 90 90 91 90 90 91 91 92 93 93 92 94 87 90 96 93 91 93 95 94 94 91 90 91 93 94 91 90 91 92 90 94 81 91 73 84 88
63 64 64 65 66 67 68 71 72 73 74 76 81 83 84 86 87 89 93 91 91 92 89 88 88 89 89 90 90 90 91 91 92 92 93 94 93 82 69 52 46 60 84 90 65 56 55 67 87 88 93 93 93 93 92 93 91 60 55 59 63 64 67
63 64 63 64 65 66 67 68 70 71 72 73 77 82 83 84 85 86 88 90 92 91 89 89 88 89 91 90 91 90 91 92 92 91 91 93 92 87 83 81 72 47 43 52 56 51 44 43 44 48 55 76 92 70 58 59 52 50 52 52 52 52 55
65 66 65 65 65 65 66 66 67 69 70 72 74 77 80 84 85 84 86 87 88 90 89 89 88 88 90 91 91 88 89 92 91 91 91 92 91 88 86 87 81 74 50 43 47 46 42 42 42 43 47 46 58 78 77 58 49 49 50 50 50 51 50

ECMWFFLT1_sfc_temp_084.txt.gz
Temp
92 91 91 91 90 91 91 91 91 92 91 90 91 93 94 93 90 89 88 86 84 84 85 85 85 85 84 85 85 85 86 86 85 86 86 86 86 86 86 87 87 86 88 87 86 86 87 88 88 89 88 88 88 88 88 87 87 89 88 88 87 85 86
91 93 92 91 90 91 90 90 90 91 92 91 91 91 93 93 90 90 88 86 85 85 85 85 85 85 85 85 86 85 85 86 86 85 86 85 85 86 87 87 86 86 86 87 87 87 88 89 89 88 88 88 88 88 88 87 87 87 87 87 86 86 86
91 93 92 91 91 91 89 91 90 89 90 93 94 93 93 90 91 89 88 87 86 85 86 86 85 85 85 85 85 85 86 86 86 87 87 88 88 90 89 87 88 88 89 89 88 89 90 89 88 88 89 88 89 88 88 87 87 87 87 86 86 86 85
90 90 91 92 92 91 91 90 87 88 88 92 94 93 92 90 92 90 90 88 87 86 85 86 86 87 86 85 85 85 85 86 87 88 89 89 88 89 88 88 87 89 88 89 92 91 93 90 89 88 89 88 88 88 88 88 88 87 87 87 86 86 85
89 91 91 91 91 90 90 88 86 86 88 91 93 92 93 93 94 93 91 91 89 87 88 88 89 88 87 87 88 87 86 87 87 88 89 89 88 88 89 90 89 90 89 91 89 88 88 88 90 89 88 87 88 88 88 88 88 87 86 86 85 86 86
89 89 89 90 91 91 90 88 87 86 86 89 92 92 92 93 96 95 94 91 89 90 89 88 88 87 87 88 88 87 87 87 87 87 88 88 88 89 89 89 91 90 92 90 91 91 90 90 90 89 90 90 90 90 89 89 89 89 87 86 85 86 87
88 89 89 90 91 91 91 90 90 88 86 85 85 86 87 91 88 95 95 92 91 89 89 89 89 89 87 88 87 87 86 87 87 88 89 90 90 89 88 89 89 91 91 90 90 91 91 90 89 89 89 90 89 90 87 87 87 87 86 85 85 85 86
92 90 91 91 93 94 93 92 91 89 87 86 83 80 80 82 87 88 93 94 92 91 90 90 90 88 87 88 88 88 88 88 89 89 89 90 90 89 90 90 89 90 90 91 90 91 92 90 91 90 90 90 89 88 89 87 86 89 88 85 85 85 88
93 93 92 94 95 96 96 94 92 90 87 86 83 81 82 83 82 88 95 94 93 91 91 92 91 91 88 88 88 88 88 89 89 89 89 90 91 91 92 91 91 91 90 92 93 91 91 91 92 89 89 89 88 87 88 87 88 88 87 86 85 85 87
93 93 93 94 95 96 95 95 94 90 90 88 85 84 83 83 90 91 94 95 94 92 92 92 92 92 89 89 89 90 88 88 88 90 90 91 91 91 92 93 92 92 92 93 94 92 91 91 91 89 87 88 87 87 87 87 88 88 88 87 86 86 85
94 92 93 96 95 95 94 95 93 90 90 88 89 93 92 93 93 94 96 96 95 94 94 93 93 92 90 90 90 90 89 89 90 89 90 91 92 92 93 93 93 92 92 93 94 93 92 90 90 88 88 89 88 88 87 88 88 87 89 89 88 87 87
95 92 91 93 93 93 94 91 90 89 88 88 92 94 92 92 96 97 96 96 96 95 94 94 94 93 91 91 91 89 89 89 90 90 90 91 92 93 93 94 94 93 93 93 93 93 94 92 91 90 88 88 89 89 88 87 88 87 87 90 90 88 88
98 94 90 92 91 92 90 88 89 89 88 92 95 96 96 96 96 96 94 94 97 96 95 93 93 91 91 91 91 89 89 90 90 90 91 91 92 94 93 94 95 94 93 94 94 94 94 94 91 90 90 89 89 89 88 88 88 87 87 88 88 88 87
96 97 94 93 92 91 89 88 89 88 89 93 95 97 98 97 97 96 94 95 96 97 97 96 93 91 89 90 90 88 89 90 91 91 90 91 89 91 93 94 94 94 93 93 93 95 95 94 92 92 92 90 90 89 89 88 88 87 87 87 88 88 87
97 99 98 96 92 90 89 90 88 88 92 92 96 96 97 97 96 95 95 95 95 98 97 94 92 91 91 89 88 88 88 88 91 90 90 90 89 90 92 93 93 93 92 91 93 95 96 95 94 92 91 90 89 89 90 89 88 89 88 87 87 88 88
94 95 92 90 88 88 85 82 84 90 92 91 94 94 97 96 94 95 96 95 97 95 96 94 92 90 90 89 89 89 88 88 88 89 89 89 89 89 91 92 93 94 93 92 92 92 91 92 92 93 92 90 89 89 90 89 89 85 80 81 87 87 90
88 90 90 89 87 90 87 84 79 75 84 92 92 93 94 94 95 96 98 96 97 93 95 96 92 92 91 89 90 89 88 88 88 88 87 87 89 89 89 90 92 91 90 90 90 90 89 91 92 93 93 92 91 90 90 90 90 78 72 74 78 87 87
87 86 87 88 88 89 89 88 82 80 75 77 88 93 95 93 96 96 96 96 96 97 99 97 94 93 90 91 89 89 88 88 88 87 87 87 87 87 88 90 90 89 89 90 90 88 92 92 91 91 92 93 92 91 90 90 82 71 70 71 72 79 87
84 84 85 85 86 87 90 89 88 89 90 92 94 95 98 98 97 93 95 94 95 96 98 98 97 92 90 91 89 88 88 88 88 87 87 87 87 87 88 88 89 89 90 91 91 91 89 88 91 90 91 92 89 91 91 91 77 68 69 70 70 71 81
82 83 84 85 86 87 86 86 88 89 91 91 93 96 97 96 96 96 96 96 95 95 94 93 94 92 90 89 89 88 88 88 88 87 87 87 87 87 87 88 88 91 93 93 90 88 89 91 89 89 88 90 89 88 91 91 76 67 67 68 68 69 74
79 80 81 81 81 84 83 84 86 87 89 91 92 93 94 97 98 97 95 96 95 94 92 94 93 90 90 89 89 89 89 88 87 87 87 87 88 87 87 87 88 90 92 94 92 89 88 89 89 89 89 91 92 90 92 95 71 65 65 65 65 67 71
78 79 78 79 80 80 81 84 84 87 88 90 92 94 94 94 98 98 95 97 96 95 94 93 91 90 90 89 90 89 89 88 87 87 87 87 87 87 87 87 86 87 89 91 94 92 91 90 91 90 90 91 92 93 90 94 66 65 64 64 64 66 77
78 77 78 79 80 81 82 83 85 87 87 89 91 92 93 96 97 98 98 96 98 95 94 92 90 90 89 90 90 89 89 89 88 87 87 88 87 87 88 87 87 88 89 90 92 92 91 90 92 90 91 91 90 90 89 92 68 63 62 63 63 66 80
77 77 78 78 79 81 81 82 83 83 84 85 87 90 91 93 94 94 92 93 94 95 94 93 92 91 89 89 90 89 89 88 88 88 88 87 87 87 88 89 89 90 90 90 91 92 93 92 91 90 91 92 91 92 90 93 72 59 61 62 61 70 81
74 76 76 77 78 78 79 78 79 81 83 84 86 89 91 92 93 92 93 93 97 97 95 93 92 92 90 90 90 90 90 90 89 89 89 87 88 89 88 88 88 90 90 92 92 92 91 91 90 91 91 94 94 86 90 93 78 56 61 59 59 70 82
71 72 74 76 78 77 76 77 78 81 83 85 86 89 93 95 93 90 92 95 97 96 94 92 92 93 92 90 91 91 90 90 88 88 89 88 88 88 88 89 90 90 90 91 91 92 94 93 91 91 91 93 93 93 92 92 87 66 59 58 57 63 82
72 72 72 74 74 73 76 77 78 79 81 83 85 88 91 94 93 90 90 91 92 92 94 94 93 92 91 90 91 92 91 91 90 89 90 90 89 90 90 90 90 90 89 91 92 92 91 92 92 92 90 92 92 93 93 93 91 73 57 57 57 60 71
70 71 73 73 72 73 74 75 76 78 82 84 87 89 91 92 89 88 89 90 91 92 96 93 92 91 90 89 90 92 91 91 90 90 91 90 88 88 88 89 90 90 90 91 89 88 87 88 89 91 91 91 92 92 92 90 84 83 59 58 56 58 62
67 67 68 69 70 72 73 73 74 77 78 83 86 88 91 93 89 88 88 88 90 93 93 93 93 91 90 89 90 89 90 90 89 89 92 90 89 88 87 88 89 88 88 87 87 87 86 87 88 88 89 89 89 89 90 90 86 73 69 57 56 56 58
67 68 69 71 71 70 71 71 72 74 77 80 83 86 88 90 89 88 88 88 91 92 93 92 92 90 89 88 89 89 90 91 91 90 90 89 88 88 87 87 88 87 87 87 87 86 86 86 87 87 88 88 89 90 92 89 90 73 68 64 55 55 56
66 66 67 67 68 69 69 70 70 73 76 81 83 86 87 89 89 89 88 90 91 90 92 91 91 89 89 89 89 89 91 91 90 89 90 90 89 87 87 87 87 86 86 86 86 86 86 85 86 85 86 87 87 88 89 90 91 85 70 62 58 56 55
65 65 66 67 67 67 68 69 70 72 74 77 81 85 86 89 91 89 89 91 90 91 91 91 89 88 88 89 89 90 91 90 91 90 90 91 90 88 88 87 88 87 86 86 87 87 86 84 86 86 86 87 87 88 90 89 90 86 76 66 62 59 57
63 64 64 64 66 67 66 67 68 69 71 73 79 82 85 85 91 91 91 90 92 92 91 90 88 87 87 88 89 89 90 90 91 91 90 90 91 90 89 89 89 88 85 86 87 87 86 86 86 86 86 86 87 88 88 89 89 89 82 75 71 70 67
62 62 64 65 66 66 66 66 66 67 68 71 77 80 81 83 86 91 91 93 94 94 91 89 87 88 87 88 88 88 89 89 86 87 90 91 91 91 90 90 90 89 86 86 87 87 86 87 86 86 86 86 88 88 87 88 89 90 86 80 77 76 75
62 62 63 64 65 65 64 65 65 66 67 70 75 78 79 80 81 84 89 91 91 90 89 87 85 86 88 88 89 88 87 88 87 89 90 90 88 90 85 88 92 88 88 90 90 88 88 88 87 87 89 89 88 86 86 88 87 90 80 83 70 78 81
63 63 63 64 64 64 64 65 65 65 67 71 74 75 77 78 80 81 84 88 89 89 88 87 86 86 87 88 87 88 88 87 89 89 89 91 89 77 66 52 48 61 84 89 76 74 73 74 87 89 90 90 88 90 88 87 90 74 68 61 61 62 65
62 62 62 62 62 63 63 64 65 66 66 69 72 73 75 77 80 79 80 83 85 87 86 87 85 86 87 86 87 86 87 89 89 88 87 89 84 79 76 74 69 47 43 55 58 53 47 51 55 63 71 84 88 72 60 71 61 55 55 54 57 57 58
64 63 62 63 62 62 63 64 64 64 65 67 70 71 74 76 78 78 81 83 84 82 83 83 83 85 85 86 86 85 85 88 87 88 87 87 83 81 80 80 75 68 51 44 47 47 45 44 46 47 53 63 71 76 71 58 53 52 52 53 54 55 54

ECMWFFLT1_sfc_temp_087.txt.gz
Temp
83 83 85 87 87 87 86 86 87 87 87 87 87 87 87 87 85 84 83 82 81 80 81 81 81 81 80 81 81 81 81 81 80 80 80 79 80 80 79 79 79 78 79 79 79 80 80 83 83 82 83 83 82 81 82 81 82 83 81 81 81 81 81
83 84 86 87 86 86 86 87 86 87 87 87 88 87 88 87 85 84 83 82 82 81 81 81 81 81 81 81 81 80 80 81 81 81 81 79 79 80 81 80 80 79 79 80 79 80 81 82 83 82 82 83 82 82 81 81 81 81 81 80 80 79 80
84 85 86 87 86 86 85 87 87 87 88 88 88 88 87 86 86 85 83 82 82 82 82 82 81 81 81 81 80 80 81 81 81 81 81 81 81 81 82 81 82 81 81 81 81 81 82 82 81 82 83 82 83 82 81 81 81 81 80 80 80 80 78
84 85 86 87 87 87 87 87 87 88 89 89 89 89 88 86 87 86 85 84 82 82 81 82 82 82 81 81 81 80 81 81 81 82 82 83 82 82 81 81 81 82 81 81 83 84 86 83 82 81 84 82 82 83 82 81 82 81 81 80 80 80 79
84 86 86 86 86 86 86 86 86 87 89 90 89 89 89 88 88 87 86 85 85 83 83 83 84 83 82 82 82 82 82 82 82 82 83 83 83 83 82 82 82 83 83 84 82 83 83 82 83 81 82 82 82 82 82 81 82 81 80 80 80 80 80
85 85 85 86 87 87 87 87 88 88 88 89 89 89 90 89 90 88 87 85 85 85 84 84 84 83 82 83 83 83 82 82 82 82 83 83 82 83 83 83 83 83 84 84 84 83 83 83 84 83 83 83 83 83 83 82 82 82 81 80 80 80 80
85 86 86 86 87 87 87 88 88 89 89 90 90 90 90 90 89 89 88 86 85 84 84 84 84 84 83 83 83 82 81 82 82 82 83 83 83 83 83 83 83 84 85 84 84 84 83 83 84 84 84 84 83 83 82 82 82 82 81 80 79 80 80
87 86 86 87 88 88 88 88 88 89 89 89 88 88 89 90 90 89 88 87 86 86 85 85 85 84 83 83 83 83 83 83 83 83 84 84 84 83 83 84 84 84 84 84 85 85 85 84 85 85 84 84 83 83 83 82 81 82 82 80 80 80 81
88 87 87 88 88 89 89 87 88 88 87 87 86 87 89 89 89 89 88 87 87 86 85 86 86 86 84 84 83 83 84 84 83 83 83 84 84 84 85 85 85 85 85 85 85 85 86 85 85 84 84 84 83 82 82 82 82 82 81 81 80 80 81
87 87 87 88 89 89 88 87 87 86 85 85 84 84 86 88 89 88 87 88 88 86 86 87 87 86 85 84 84 84 84 83 84 84 84 84 85 85 86 86 86 86 85 86 87 85 86 86 85 84 83 84 83 82 82 82 82 82 82 81 81 81 80
88 86 86 86 87 87 87 87 85 84 85 84 84 85 85 85 86 87 86 86 87 88 88 87 87 87 86 85 84 84 84 84 84 84 84 85 86 86 87 87 87 87 86 87 87 87 86 85 85 83 83 84 83 83 82 82 83 82 83 82 82 82 81
86 85 84 85 86 86 86 85 85 83 83 84 85 85 83 84 85 86 87 86 87 87 88 88 88 87 86 85 84 84 84 84 84 84 84 85 86 87 87 88 87 87 87 87 87 87 87 86 86 85 83 84 84 84 83 83 83 83 83 83 83 82 82
86 85 84 85 86 87 86 83 83 83 82 84 85 85 85 85 85 86 85 85 86 87 87 88 88 87 86 86 85 84 84 84 84 85 85 85 86 87 88 88 88 88 88 88 88 88 87 87 86 85 84 84 84 84 83 83 83 82 82 83 83 82 81
87 85 84 84 85 85 84 83 84 83 82 84 85 85 85 85 86 86 85 86 87 87 88 90 88 86 86 85 85 84 84 85 85 85 85 86 86 86 87 88 88 88 88 88 88 89 88 88 86 86 86 85 85 85 84 83 83 82 82 83 83 82 81
78 77 78 79 79 78 77 78 79 82 83 84 85 85 85 86 85 85 86 87 87 89 89 89 87 87 86 85 84 84 84 85 85 86 85 86 85 86 86 87 87 87 87 87 88 89 89 89 88 86 85 85 84 84 85 84 83 83 83 82 82 82 82
80 79 76 74 75 76 78 76 75 76 79 79 84 85 86 86 85 86 86 87 88 89 90 89 88 86 86 85 84 85 85 84 85 85 85 85 85 85 86 87 87 88 87 87 87 88 88 88 88 88 86 85 84 84 84 84 84 82 77 79 83 82 84
77 78 79 78 76 75 74 78 77 75 74 73 74 75 78 77 80 85 90 89 89 89 90 91 88 87 86 85 85 85 84 84 84 84 83 84 85 85 85 86 87 86 86 86 86 86 86 86 87 88 87 86 85 84 84 85 85 76 71 72 76 83 83
75 75 75 76 78 78 76 78 80 78 75 75 74 74 74 73 74 74 74 81 90 92 92 91 89 88 86 86 85 84 84 84 84 83 83 83 83 84 85 86 86 85 85 85 86 85 87 86 86 87 87 87 86 85 85 85 80 71 69 71 71 77 84
73 74 74 74 74 75 75 76 78 80 80 79 77 75 74 75 75 75 76 74 72 83 92 91 90 88 86 86 85 84 84 84 84 83 83 83 83 84 84 84 85 85 85 85 86 86 85 85 85 85 86 87 85 85 86 85 76 69 68 69 69 70 79
71 72 73 74 72 73 74 74 72 77 81 79 80 81 80 79 77 78 78 76 77 75 86 90 90 88 86 86 85 85 84 84 84 83 83 83 83 84 84 84 84 86 87 86 86 85 85 86 85 84 84 86 85 84 86 85 76 67 66 67 67 68 73
69 70 71 72 72 73 73 72 73 73 76 78 80 83 84 81 81 82 82 82 81 83 86 90 89 87 86 85 85 85 85 84 84 83 83 83 83 83 83 84 84 85 87 87 86 85 84 86 85 84 84 85 86 85 86 88 72 65 65 64 65 66 70
68 69 69 70 71 71 71 72 72 73 74 77 80 81 84 85 87 87 86 88 87 88 89 90 88 86 86 86 86 86 85 84 84 83 84 83 83 83 83 83 83 84 86 87 87 86 86 86 87 86 84 84 86 86 85 88 68 64 64 64 64 65 74
69 69 69 71 72 72 72 73 73 74 75 77 78 80 82 85 86 85 85 86 90 89 89 89 87 86 86 86 86 86 86 85 84 84 84 84 83 83 83 83 83 84 85 86 87 85 85 86 87 86 86 85 84 85 85 86 70 63 62 63 63 66 77
69 69 69 70 71 72 71 72 73 75 76 76 77 80 82 84 84 84 83 83 85 87 88 89 88 87 85 86 87 86 86 86 85 84 84 84 83 83 84 85 85 86 86 86 86 86 86 87 87 86 87 87 86 85 84 86 72 61 61 61 61 68 78
67 68 69 69 70 69 70 71 72 73 74 74 75 77 79 81 82 82 82 84 86 88 89 88 89 88 86 86 87 87 87 87 86 85 85 84 85 85 85 85 85 86 86 87 87 87 87 86 86 86 86 88 88 84 84 86 74 59 62 61 60 68 79
63 66 67 69 70 70 70 70 71 71 71 72 73 76 77 80 81 81 82 83 86 87 88 89 89 90 89 86 87 88 87 87 86 86 86 85 85 86 85 86 86 86 86 86 87 87 87 87 86 86 86 87 87 87 87 86 79 64 59 59 58 62 79
65 66 66 67 68 69 68 69 69 69 70 71 73 75 77 78 79 78 80 81 82 83 87 90 91 89 87 86 87 88 87 88 87 86 87 87 86 86 86 86 86 86 86 86 87 87 86 86 86 87 85 86 87 87 86 88 85 70 57 57 57 59 69
65 65 67 67 67 67 67 68 68 69 70 71 73 75 76 76 76 77 78 79 80 84 88 89 89 88 87 85 87 88 88 88 87 87 87 87 86 85 84 86 87 86 86 86 86 85 84 83 84 85 85 86 86 87 87 85 81 80 58 58 56 57 60
62 62 63 64 65 66 67 66 67 67 69 71 72 73 73 74 74 75 77 78 81 84 86 87 87 87 87 85 86 86 87 87 86 86 88 86 86 85 84 85 85 85 85 84 84 83 83 82 82 84 84 84 85 85 86 86 83 73 67 57 56 55 57
63 63 63 65 65 66 66 66 66 67 69 70 70 71 72 72 73 75 76 78 82 84 85 86 86 86 86 85 85 86 87 87 87 87 87 86 86 85 84 84 84 84 84 84 84 83 82 83 81 82 82 83 83 84 86 85 86 73 67 65 55 55 56
61 61 62 62 63 65 65 65 65 66 67 68 69 70 71 72 73 75 75 78 81 82 84 85 85 85 86 85 85 86 87 87 87 86 87 87 86 84 84 84 84 83 84 83 83 83 82 82 82 81 81 81 82 83 84 85 85 83 70 64 58 56 55
61 62 62 63 62 63 64 64 65 66 66 67 69 69 70 72 74 74 76 79 79 82 84 85 84 84 85 86 85 86 87 86 86 86 87 86 86 85 85 84 84 84 83 83 83 83 82 82 82 82 82 81 82 83 84 84 85 83 76 67 63 59 56
60 61 61 60 62 63 62 63 63 64 65 65 68 69 70 71 73 74 76 78 79 82 84 84 84 84 84 85 86 86 86 86 86 86 86 86 86 86 85 85 85 84 82 83 83 83 83 82 82 81 82 82 81 82 83 84 84 82 77 73 70 68 65
59 60 60 61 62 63 63 63 63 63 64 64 66 68 69 70 71 73 75 78 79 80 83 83 83 84 84 85 85 85 86 86 83 84 85 86 86 86 86 85 86 85 83 83 83 83 82 83 82 81 82 82 83 82 81 82 83 82 79 75 73 71 69
59 58 59 60 61 62 61 62 62 63 64 64 66 67 67 68 69 71 73 75 77 78 79 82 82 83 84 85 85 84 84 85 84 85 85 85 85 86 86 86 87 84 83 85 87 86 84 83 83 83 84 85 84 83 81 81 81 84 72 78 66 72 73
59 58 58 60 60 60 61 63 62 63 63 64 65 66 67 67 68 70 72 73 75 78 78 79 80 82 83 84 84 85 83 83 84 85 84 86 84 84 71 57 50 58 76 84 78 73 71 70 83 85 86 85 85 85 84 84 86 71 62 59 57 58 61
58 57 58 59 59 59 60 61 62 63 63 63 64 64 65 66 67 69 70 72 73 75 75 76 78 79 81 82 83 82 83 83 84 84 84 84 83 82 76 73 68 51 45 49 65 67 60 59 64 69 72 82 84 80 72 74 69 57 55 55 55 54 55
60 60 59 59 60 60 60 61 61 62 62 62 63 63 64 65 67 68 69 71 71 74 75 75 75 75 77 80 81 80 80 83 83 83 83 82 80 77 75 75 72 67 52 46 46 56 57 58 58 58 61 66 73 75 73 64 59 54 52 53 54 54 53